[[{"header":{"parameterUnit":"m.s-1","parameterCategory":1,"la1":31.0,"la2":29.5877,"lo1":-88.7671,"lo2":-86.6584,"dy":0.0162,"dx":0.0185,"nx":115,"ny":88,"refTime":"2023-09-22T00:00:00:Z","depth":0,"parameterNumber":2,"parameterNumberName":"U-component_of_WINDS"},"data":[0.0,0.0,0.0,0.0,0.0,0.0,0.0,0.0,0.0,0.0,0.0,0.0,0.0,0.0,0.0,0.0,0.0,0.0,0.0,0.0,0.0,0.0,0.0,0.0,0.0,0.0,0.0,0.0,0.0,0.0,0.0,0.0,0.0,0.0,0.0,0.0,0.0,0.0,0.0,0.0,0.0,0.0,0.0,0.0,0.0,0.0,0.0,0.0,0.0,0.0,0.0,0.0,0.0,0.0,0.0,0.0,0.0,0.0,0.0,0.0,0.0,0.0,0.0,0.0,0.0,0.0,0.0,0.0,0.0,0.0,0.0,0.0,0.0,0.0,0.0,0.0,0.0,0.0,0.0,0.0,0.0,0.0,0.0,0.0,0.0,0.0,0.0,0.0,0.0,0.0,0.0,0.0,0.0,0.0,0.0,0.0,0.0,0.0,0.0,0.0,0.0,0.0,0.0,0.0,0.0,0.0,0.0,0.0,0.0,0.0,0.0,0.0,0.0,0.0,0.0,0.0,0.0,0.0,0.0,0.0,0.0,0.0,0.0,0.0,0.0,0.0,0.0,0.0,0.0,0.0,0.0,0.0,0.0,0.0,0.0,0.0,0.0,0.0,0.0,0.0,0.0,0.0,0.0,0.0,0.0,0.0,0.0,0.0,0.0,0.0,0.0,0.0,0.0,0.0,0.0,0.0,0.0,0.0,0.0,0.0,0.0,0.0,0.0,0.0,0.0,0.0,0.0,0.0,0.0,0.0,0.0,0.0,0.0,0.0,0.0,0.0,0.0,0.0,0.0,0.0,0.0,0.0,0.0,0.0,0.0,0.0,0.0,0.0,0.0,0.0,0.0,0.0,0.0,0.0,0.0,0.0,0.0,0.0,0.0,0.0,0.0,0.0,0.0,0.0,0.0,0.0,0.0,0.0,0.0,0.0,0.0,0.0,0.0,0.0,0.0,0.0,0.0,0.0,0.0,0.0,0.0,0.0,0.0,0.0,0.0,0.0,0.0,0.0,0.0,0.0,0.0,0.0,0.0,0.0,0.0,0.0,0.0,0.0,0.0,0.0,0.0,0.0,0.0,0.0,0.0,0.0,0.0,0.0,0.0,0.0,0.0,0.0,0.0,0.0,0.0,0.0,0.0,0.0,0.0,0.0,0.0,0.0,0.0,0.0,0.0,0.0,0.0,0.0,0.0,0.0,0.0,0.0,0.0,0.0,0.0,0.0,0.0,0.0,0.0,0.0,0.0,0.0,0.0,0.0,0.0,0.0,0.0,0.0,0.0,0.0,0.0,0.0,0.0,0.0,0.0,0.0,0.0,0.0,0.0,0.0,0.0,0.0,0.0,0.0,0.0,0.0,0.0,0.0,0.0,0.0,0.0,0.0,0.0,0.0,0.0,0.0,0.0,0.0,0.0,0.0,0.0,0.0,0.0,0.0,0.0,0.0,0.0,0.0,0.0,0.0,0.0,0.0,0.0,0.0,0.0,0.0,0.0,0.0,0.0,0.0,0.0,0.0,0.0,0.0,0.0,0.0,0.0,0.0,0.0,0.0,0.0,0.0,0.0,0.0,0.0,0.0,0.0,0.0,0.0,0.0,0.0,0.0,0.0,0.0,0.0,0.0,0.0,0.0,0.0,0.0,0.0,0.0,0.0,0.0,0.0,0.0,0.0,0.0,0.0,0.0,0.0,0.0,0.0,0.0,0.0,0.0,0.0,0.0,0.0,0.0,0.0,0.0,0.0,0.0,0.0,0.0,0.0,0.0,0.0,0.0,0.0,0.0,0.0,0.0,0.0,0.0,0.0,0.0,0.0,0.0,0.0,0.0,0.0,0.0,0.0,0.0,0.0,0.0,0.0,0.0,0.0,0.0,0.0,0.0,0.0,0.0,0.0,0.0,0.0,0.0,0.0,0.0,0.0,0.0,0.0,0.0,0.0,0.0,0.0,0.0,0.0,0.0,0.0,0.0,0.0,0.0,0.0,0.0,0.0,0.0,0.0,0.0,0.0,0.0,0.0,0.0,0.0,0.0,0.0,0.0,0.0,0.0,0.0,0.0,0.0,0.0,0.0,0.0,0.0,0.0,0.0,0.0,0.0,0.0,0.0,0.0,0.0,0.0,0.0,0.0,0.0,0.0,0.0,0.0,0.0,0.0,0.0,0.0,0.0,0.0,0.0,0.0,0.0,0.0,0.0,0.0,0.0,0.0,0.0,0.0,0.0,0.0,0.0,0.0,0.0,0.0,0.0,0.0,0.0,0.0,0.0,0.0,0.0,0.0,0.0,0.0,0.0,0.0,0.0,0.0,0.0,0.0,0.0,0.0,0.0,0.0,0.0,0.0,0.0,0.0,0.0,0.0,0.0,0.0,0.0,0.0,0.0,0.0,0.0,0.0,0.0,0.0,0.0,0.0,0.0,0.0,0.0,0.0,0.0,0.0,0.0,0.0,0.0,0.0,0.0,0.0,0.0,0.0,0.0,0.0,0.0,0.0,0.0,0.0,0.0,0.0,0.0,0.0,0.0,0.0,0.0,0.0,0.0,0.0,0.0,0.0,0.0,0.0,0.0,0.0,0.0,0.0,0.0,0.0,0.0,0.0,0.0,0.0,0.0,0.0,0.0,0.0,0.0,0.0,0.0,0.0,0.0,0.0,0.0,0.0,0.0,0.0,0.0,0.0,0.0,0.0,0.0,0.0,0.0,0.0,0.0,0.0,0.0,0.0,0.0,0.0,0.0,0.0,0.0,0.0,0.0,0.0,0.0,0.0,0.0,0.0,0.0,0.0,0.0,0.0,0.0,0.0,0.0,0.0,0.0,0.0,0.0,0.0,0.0,0.0,0.0,0.0,0.0,0.0,0.0,0.0,0.0,0.0,0.0,0.0,0.0,0.0,0.0,0.0,0.0,0.0,0.0,0.0,0.0,0.0,0.0,0.0,0.0,0.0,0.0,0.0,0.0,0.0,0.0,0.0,0.0,0.0,0.0,0.0,0.0,0.0,0.0,0.0,0.0,0.0,0.0,0.0,0.0,0.0,0.0,0.0,0.0,0.0,0.0,0.0,0.0,0.0,0.0,0.0,0.0,0.0,0.0,0.0,0.0,0.0,0.0,0.0,0.0,0.0,0.0,0.0,0.0,0.0,0.0,0.0,0.0,0.0,0.0,0.0,0.0,0.0,0.0,0.0,0.0,0.0,0.0,0.0,0.0,0.0,0.0,0.0,0.0,0.0,0.0,0.0,0.0,0.0,0.0,0.0,0.0,0.0,0.0,0.0,0.0,0.0,0.0,0.0,0.0,0.0,0.0,0.0,0.0,0.0,0.0,0.0,0.0,0.0,0.0,0.0,0.0,0.0,0.0,0.0,0.0,0.0,0.0,0.0,0.0,0.0,0.0,0.0,0.0,0.0,0.0,0.0,0.0,0.0,0.0,0.0,0.0,0.0,0.0,0.0,0.0,0.0,0.0,0.0,0.0,0.0,0.0,0.0,0.0,0.0,0.0,0.0,0.0,0.0,0.0,0.0,0.0,0.0,0.0,0.0,0.0,0.0,0.0,0.0,0.0,0.0,0.0,0.0,0.0,0.0,0.0,0.0,0.0,0.0,0.0,0.0,0.0,0.0,0.0,0.0,0.0,0.0,0.0,0.0,0.0,0.0,0.0,0.0,0.0,0.0,0.0,0.0,0.0,0.0,0.0,0.0,0.0,0.0,0.0,0.0,0.0,0.0,0.0,0.0,0.0,0.0,0.0,0.0,0.0,0.0,0.0,0.0,0.0,0.0,0.0,0.0,0.0,0.0,0.0,0.0,0.0,0.0,0.0,0.0,0.0,0.0,0.0,0.0,0.0,0.0,0.0,0.0,0.0,0.0,0.0,0.0,0.0,0.0,0.0,0.0,0.0,0.0,0.0,0.0,0.0,0.0,0.0,0.0,0.0,0.0,0.0,0.0,0.0,0.0,0.0,0.0,0.0,0.0,0.0,0.0,0.0,0.0,0.0,0.0,0.0,0.0,0.0,0.0,0.0,0.0,0.0,0.0,0.0,0.0,0.0,0.0,0.0,0.0,0.0,0.0,0.0,0.0,0.0,0.0,0.0,0.0,0.0,0.0,0.0,0.0,0.0,0.0,0.0,0.0,0.0,0.0,0.0,0.0,0.0,0.0,0.0,0.0,0.0,0.0,0.0,0.0,0.0,0.0,0.0,0.0,0.0,0.0,0.0,0.0,0.0,0.0,0.0,0.0,0.0,0.0,0.0,0.0,0.0,0.0,0.0,0.0,0.0,0.0,1.8062,0.0,0.0,0.0,0.0,0.0,0.0,0.0,0.0,0.0,0.0,0.0,0.0,0.0,0.0,0.0,0.0,0.0,0.0,0.0,0.0,0.0,0.0,0.0,0.0,0.0,0.0,0.0,0.0,0.0,0.0,0.0,0.0,0.0,0.0,0.0,0.0,0.0,0.0,0.0,0.0,0.0,0.0,0.0,0.0,0.0,0.0,0.0,0.0,0.0,0.0,0.0,0.0,0.0,0.0,0.0,0.0,0.0,0.0,0.0,0.0,0.0,0.0,0.0,0.0,0.0,0.0,0.0,0.0,0.0,0.0,0.0,0.0,0.0,0.0,0.0,0.0,0.0,0.0,0.0,0.0,0.0,0.0,0.0,0.0,0.0,0.0,0.0,0.0,0.0,0.0,0.0,0.0,0.0,0.0,0.0,0.0,0.0,0.0,0.0,0.0,0.0,0.0,0.0,0.0,0.0,0.0,0.0,0.0,0.0,0.0,1.5156,1.3024,1.3448,1.2739,1.0772,0.0,0.0,0.0,0.0,0.0,0.0,0.0,0.0,0.0,0.0,0.0,0.0,0.0,0.0,0.0,0.0,0.0,0.0,0.0,0.0,0.0,0.0,0.0,0.0,0.0,0.0,0.0,0.0,0.0,0.0,0.0,0.0,0.0,0.0,0.0,0.0,0.0,0.0,0.0,0.0,0.0,0.0,0.0,0.0,0.0,0.0,0.0,0.0,0.0,0.0,0.0,0.0,0.0,0.0,0.0,0.0,0.0,0.0,0.0,0.0,0.0,0.0,0.0,0.0,0.0,0.0,0.0,0.0,0.0,0.0,0.0,0.0,0.0,0.0,0.0,0.0,0.0,0.0,0.0,0.0,0.0,0.0,0.0,0.0,0.0,0.0,0.0,0.0,0.0,0.0,0.0,0.0,0.0,0.0,0.0,0.0,0.0,0.0,0.0,0.0,0.0,0.0,0.0,0.0,0.0,0.0,0.0,0.0,0.0,0.0,0.0,0.0,0.4795,0.3201,0.1729,0.0,0.0,0.0,0.0,0.0,0.0,0.0,0.0,0.0,0.0,0.0,0.0,0.0,0.0,0.0,0.0,0.0,0.0,0.0,0.0,0.0,0.0,0.0,0.0,0.0,0.0,0.0,0.0,0.0,0.0,0.0,0.0,0.0,0.0,0.0,0.0,0.0,0.0,0.0,0.0,0.0,0.0,0.0,0.0,0.0,0.0,0.0,0.0,0.0,0.0,0.0,0.0,0.0,0.0,0.0,0.0,0.0,0.0,0.0,0.0,0.0,0.0,0.0,0.0,0.0,0.0,0.0,0.0,0.0,0.0,0.0,0.0,0.0,0.0,0.0,0.0,0.0,0.0,0.0,0.0,0.0,0.0,0.0,0.0,0.0,0.0,0.0,0.0,0.0,0.0,0.0,0.0,0.0,0.0,0.0,0.0,0.0,0.0,0.0,0.0,0.0,0.0,0.0,0.0,0.0,0.0,0.0,0.0,0.0,0.0,0.2788,-0.22,-0.4182,0.0,-0.7296,0.0,0.0,0.0,0.0,0.0,0.0,0.0,0.0,0.0,0.0,0.0,0.0,0.0,0.0,0.0,0.0,0.0,0.0,0.0,0.0,0.0,0.0,0.0,0.0,0.0,0.0,0.0,0.0,0.0,0.0,0.0,0.0,0.0,0.0,0.0,0.0,0.0,0.0,0.0,0.0,0.0,0.0,0.0,0.0,0.0,0.0,0.0,0.0,0.0,0.0,0.0,0.0,0.0,0.0,0.0,0.0,0.0,0.0,0.0,0.0,0.0,0.0,0.0,0.0,0.0,0.0,0.0,0.0,0.0,0.0,0.0,0.0,0.0,0.0,0.0,0.0,0.0,0.0,0.0,0.0,0.0,0.0,0.0,0.0,0.0,0.0,0.0,0.0,0.0,0.0,0.0,0.0,0.0,0.0,0.0,0.0,0.0,0.0,0.0,0.0,0.0,0.0,0.0,0.0,0.0,0.0,0.0,0.0,0.0,0.0,-0.5095,-1.0029,-1.0898,-1.0487,0.0,0.0,0.0,0.0,0.0,0.0,0.0,0.0,0.0,0.0,0.0,0.0,0.0,0.0,0.0,0.0,0.0,0.0,0.0,0.0,0.0,0.0,0.0,0.0,0.0,0.0,0.0,0.0,0.0,0.0,0.0,0.0,0.0,0.0,0.0,0.0,0.0,0.0,0.0,0.0,0.0,0.0,0.0,0.0,0.0,0.0,0.0,0.0,0.0,0.0,0.0,0.0,0.0,0.0,0.0,0.0,0.0,0.0,0.0,0.0,0.0,0.0,0.0,0.0,0.0,0.0,0.0,0.0,0.0,0.0,0.0,0.0,0.0,0.0,0.0,0.0,0.0,0.0,0.0,0.0,0.0,0.0,0.0,0.0,0.0,0.0,0.0,0.0,0.0,0.0,0.0,0.0,0.0,0.0,0.0,0.0,0.0,0.0,0.0,0.0,0.0,0.0,0.0,0.0,0.0,0.0,0.0,0.0,0.0,0.0,-0.9661,-1.2915,-1.6848,-1.596,-1.3586,-0.9976,0.0,0.0,0.0,0.0,0.0,0.0,0.0,0.0,0.0,0.0,0.0,0.0,0.0,0.0,0.0,0.0,0.0,0.0,0.0,0.0,0.0,0.0,0.0,0.0,0.0,0.0,0.0,0.0,0.0,0.0,0.0,0.0,0.0,0.0,0.0,0.0,0.0,0.0,0.0,0.0,0.0,0.0,0.0,0.0,0.0,0.0,0.0,0.0,0.0,0.0,0.0,0.0,0.0,0.0,0.0,0.0,0.0,0.0,0.0,0.0,0.0,0.0,0.0,0.0,0.0,0.0,0.0,0.0,0.0,0.0,0.0,0.0,0.0,0.0,0.0,0.0,0.0,0.0,0.0,0.0,0.0,0.0,0.0,0.0,0.0,0.0,0.0,0.0,0.0,0.0,0.0,0.0,0.0,0.0,0.0,0.0,0.0,0.0,0.0,0.0,0.0,0.0,0.0,0.0,0.0,0.0,0.0,0.0,-1.7969,-1.8624,-2.0288,-2.2962,-1.9063,-1.569,0.0,0.0,0.0,0.0,0.0,0.0,0.0,0.0,0.0,0.0,0.0,0.0,0.0,0.0,0.0,0.0,0.0,0.0,0.0,0.0,0.0,0.0,0.0,0.0,0.0,0.0,0.0,0.0,0.0,0.0,0.0,0.0,0.0,0.0,0.0,0.0,0.0,0.0,0.0,0.0,0.0,0.0,0.0,0.0,0.0,0.0,0.0,0.0,0.0,0.0,0.0,0.0,0.0,0.0,0.0,0.0,0.0,0.0,0.0,0.0,0.0,0.0,0.0,0.0,0.0,0.0,0.0,0.0,0.0,0.0,0.0,0.0,0.0,0.0,0.0,0.0,0.0,0.0,0.0,0.0,0.0,0.0,0.0,0.0,0.0,0.0,0.0,0.0,0.0,0.0,0.0,0.0,0.0,0.0,0.0,0.0,0.0,0.0,0.0,0.0,0.0,0.0,0.0,0.0,0.0,0.0,0.0,0.0,0.0,-1.9398,-2.1733,-2.2754,-2.2438,-1.9924,-1.7048,0.0,0.0,0.0,0.0,0.0,0.0,0.0,0.0,0.0,0.0,0.0,0.0,0.0,0.0,0.0,0.0,0.0,0.0,0.0,0.0,0.0,0.0,0.0,0.0,0.0,0.0,0.0,0.0,0.0,0.0,0.0,0.0,0.0,0.0,0.0,0.0,0.0,0.0,0.0,0.0,0.0,0.0,0.0,0.0,0.0,0.0,0.0,0.0,0.0,0.0,0.0,0.0,0.0,0.0,0.0,0.0,0.0,0.0,0.0,0.0,0.0,0.0,0.0,0.0,0.0,0.0,0.0,0.0,0.0,0.0,0.0,0.0,0.0,0.0,0.0,0.0,0.0,0.0,0.0,0.0,0.0,0.0,0.0,0.0,0.0,0.0,0.0,0.0,0.0,0.0,0.0,0.0,0.0,0.0,0.0,0.0,0.0,0.0,0.0,0.0,0.0,0.0,0.0,0.0,0.0,0.0,0.0,0.0,0.0,-2.2386,0.0,-2.5129,-2.2577,-2.0688,-1.7817,0.0,0.0,0.0,0.0,0.0,0.0,0.0,0.0,0.0,0.0,0.0,0.0,0.0,0.0,0.0,0.0,0.0,0.0,0.0,0.0,0.0,0.0,0.0,0.0,0.0,0.0,0.0,0.0,0.0,0.0,0.0,0.0,0.0,0.0,0.0,0.0,0.0,0.0,0.0,0.0,0.0,0.0,0.0,0.0,0.0,0.0,0.0,0.0,0.0,0.0,0.0,0.0,0.0,0.0,0.0,0.0,0.0,0.0,0.0,0.0,0.0,0.0,0.0,0.0,0.0,0.0,0.0,0.0,0.0,0.0,0.0,0.0,0.0,0.0,0.0,0.0,0.0,0.0,0.0,0.0,0.0,0.0,0.0,0.0,0.0,0.0,0.0,0.0,0.0,0.0,0.0,0.0,0.0,0.0,0.0,0.0,0.0,0.0,0.0,0.0,0.0,0.0,0.0,0.0,0.0,0.0,0.0,0.0,-2.3783,-2.7718,-2.8676,-2.7279,-2.3999,-2.1335,-1.7919,0.0,0.0,0.0,0.0,0.0,0.0,0.0,0.0,0.0,0.0,0.0,0.0,0.0,0.0,0.0,0.0,0.0,0.0,0.0,0.0,0.0,0.0,0.0,0.0,0.0,0.0,0.0,0.0,0.0,0.0,0.0,0.0,0.0,0.0,0.0,0.0,0.0,0.0,0.0,0.0,0.0,0.0,0.0,0.0,0.0,0.0,0.0,0.0,0.0,0.0,0.0,0.0,0.0,0.0,0.0,0.0,0.0,0.0,0.0,0.0,0.0,0.0,0.0,0.0,0.0,0.0,0.0,0.0,0.0,0.0,0.0,0.0,0.0,0.0,0.0,0.0,0.0,0.0,0.0,0.0,0.0,0.0,0.0,0.0,0.0,0.0,0.0,0.0,0.0,0.0,0.0,0.0,0.0,0.0,0.0,0.0,0.0,0.0,0.0,0.0,0.0,0.0,0.0,0.0,0.0,0.0,0.0,0.0,0.0,-2.4653,-2.5213,-2.5211,-2.438,-2.0785,-1.8459,0.0,0.0,0.0,0.0,0.0,0.0,0.0,0.0,0.0,0.0,0.0,0.0,0.0,0.0,0.0,0.0,0.0,0.0,0.0,0.0,0.0,0.0,0.0,0.0,0.0,0.0,0.0,0.0,0.0,0.0,0.0,0.0,0.0,0.0,0.0,0.0,0.0,0.0,0.0,0.0,0.0,0.0,0.0,0.0,0.0,0.0,0.0,0.0,0.0,0.0,0.0,0.0,0.0,0.0,0.0,0.0,0.0,0.0,0.0,0.0,0.0,0.0,0.0,0.0,0.0,0.0,0.0,0.0,0.0,0.0,0.0,0.0,0.0,0.0,0.0,0.0,0.0,0.0,0.0,0.0,0.0,0.0,0.0,0.0,0.0,0.0,0.0,0.0,0.0,0.0,0.0,0.0,0.0,0.0,0.0,0.0,0.0,0.0,0.0,0.0,0.0,0.0,0.0,0.0,0.0,0.0,0.0,0.0,0.0,-2.3515,-2.5258,-2.5764,-2.4805,-2.1889,-1.9541,-1.7859,0.0,0.0,0.0,0.0,0.0,0.0,0.0,0.0,0.0,0.0,0.0,0.0,0.0,0.0,0.0,0.0,0.0,0.0,0.0,0.0,0.0,0.0,0.0,0.0,0.0,0.0,0.0,0.0,0.0,0.0,0.0,0.0,0.0,0.0,0.0,0.0,0.0,0.0,0.0,0.0,0.0,0.0,0.0,0.0,0.0,0.0,0.0,0.0,0.0,0.0,0.0,0.0,0.0,0.0,0.0,0.0,0.0,0.0,0.0,0.0,0.0,0.0,0.0,0.0,0.0,0.0,0.0,0.0,0.0,0.0,0.0,0.0,0.0,0.0,0.0,0.0,0.0,0.0,0.0,0.0,0.0,0.0,0.0,0.0,0.0,0.0,0.0,0.0,0.0,0.0,0.0,0.0,0.0,0.0,0.0,0.0,0.0,0.0,0.0,0.0,0.0,0.0,0.0,0.0,0.0,0.0,0.0,0.0,-2.3909,-2.8138,-2.8602,-2.5126,-2.4065,-2.095,0.0,0.0,0.0,0.0,0.0,0.0,0.0,0.0,0.0,0.0,0.0,0.0,0.0,0.0,0.0,0.0,0.0,0.0,0.0,0.0,0.0,0.0,0.0,0.0,0.0,0.0,0.0,0.0,0.0,0.0,0.0,0.0,0.0,0.0,0.0,0.0,0.0,0.0,0.0,0.0,0.0,0.0,0.0,0.0,0.0,0.0,0.0,0.0,0.0,0.0,0.0,0.0,0.0,0.0,0.0,0.0,0.0,0.0,0.0,0.0,0.0,0.0,0.0,0.0,0.0,0.0,0.0,0.0,0.0,0.0,0.0,0.0,0.0,0.0,0.0,0.0,0.0,0.0,0.0,0.0,0.0,0.0,0.0,0.0,0.0,0.0,0.0,0.0,0.0,0.0,0.0,0.0,0.0,0.0,0.0,0.0,0.0,0.0,0.0,0.0,0.0,0.0,0.0,0.0,0.0,0.0,0.0,0.0,0.0,-2.5082,-2.8181,-2.8717,-2.6196,-2.2727,-2.0113,0.0,0.0,0.0,0.0,0.0,0.0,0.0,0.0,0.0,0.0,0.0,0.0,0.0,0.0,0.0,0.0,0.0,0.0,0.0,0.0,0.0,0.0,0.0,0.0,0.0,0.0,0.0,0.0,0.0,0.0,0.0,0.0,0.0,0.0,0.0,0.0,0.0,0.0,0.0,0.0,0.0,0.0,0.0,0.0,0.0,0.0,0.0,0.0,0.0,0.0,0.0,0.0,0.0,0.0,0.0,0.0,0.0,0.0,0.0,0.0,0.0,0.0,0.0,0.0,0.0,0.0,0.0,0.0,0.0,0.0,0.0,0.0,0.0,0.0,0.0,0.0,0.0,0.0,0.0,0.0,0.0,0.0,0.0,0.0,0.0,0.0,0.0,0.0,0.0,0.0,0.0,0.0,0.0,0.0,0.0,0.0,0.0,0.0,0.0,0.0,0.0,0.0,0.0,0.0,0.0,0.0,0.0,0.0,-2.4751,-2.5464,-2.8279,-2.8834,-2.6925,-2.3754,-2.0981,0.0,0.0,0.0,0.0,0.0,0.0,0.0,0.0,0.0,0.0,0.0,0.0,0.0,0.0,0.0,0.0,0.0,0.0,0.0,0.0,0.0,0.0,0.0,0.0,0.0,0.0,0.0,0.0,0.0,0.0,0.0,0.0,0.0,0.0,0.0,0.0,0.0,0.0,0.0,0.0,0.0,0.0,0.0,0.0,0.0,0.0,0.0,0.0,0.0,0.0,0.0,0.0,0.0,0.0,0.0,0.0,0.0,0.0,0.0,0.0,0.0,0.0,0.0,0.0,0.0,0.0,0.0,0.0,0.0,0.0,0.0,0.0,0.0,0.0,0.0,0.0,0.0,0.0,0.0,0.0,0.0,0.0,0.0,0.0,0.0,0.0,0.0,0.0,0.0,0.0,0.0,0.0,0.0,0.0,0.0,0.0,0.0,0.0,0.0,0.0,0.0,0.0,0.0,0.0,0.0,0.0,0.0,0.0,-2.4997,-2.5547,-2.8223,-2.8863,-2.7318,-2.5815,-2.2628,0.0,0.0,0.0,0.0,0.0,0.0,0.0,0.0,0.0,0.0,0.0,0.0,0.0,0.0,0.0,0.0,0.0,0.0,0.0,0.0,0.0,0.0,0.0,0.0,0.0,0.0,0.0,0.0,0.0,0.0,0.0,0.0,0.0,0.0,0.0,0.0,0.0,0.0,0.0,0.0,0.0,0.0,0.0,0.0,0.0,0.0,0.0,0.0,0.0,0.0,0.0,0.0,0.0,0.0,0.0,0.0,0.0,0.0,0.0,0.0,0.0,0.0,0.0,0.0,0.0,0.0,0.0,0.0,0.0,0.0,0.0,0.0,0.0,0.0,0.0,0.0,0.0,0.0,0.0,0.0,0.0,0.0,0.0,0.0,0.0,0.0,0.0,0.0,0.0,0.0,0.0,0.0,0.0,0.0,0.0,0.0,0.0,0.0,0.0,0.0,0.0,0.0,0.0,0.0,0.0,0.0,0.0,0.0,-2.4879,-2.5,-2.7264,-2.8084,-2.7306,-2.4834,-2.1944,0.0,0.0,0.0,0.0,0.0,0.0,0.0,0.0,0.0,0.0,0.0,0.0,0.0,0.0,0.0,0.0,0.0,0.0,0.0,0.0,0.0,0.0,0.0,0.0,0.0,0.0,0.0,0.0,0.0,0.0,0.0,0.0,0.0,0.0,0.0,0.0,0.0,0.0,0.0,0.0,0.0,0.0,0.0,0.0,0.0,0.0,0.0,0.0,-1.9534,0.0,0.0,0.0,0.0,0.0,0.0,0.0,0.0,0.0,0.0,0.0,0.0,0.0,0.0,0.0,0.0,0.0,0.0,0.0,0.0,0.0,0.0,0.0,0.0,0.0,0.0,0.0,0.0,0.0,0.0,0.0,0.0,0.0,0.0,0.0,0.0,0.0,0.0,0.0,0.0,0.0,0.0,0.0,0.0,0.0,0.0,0.0,0.0,0.0,0.0,0.0,0.0,0.0,0.0,0.0,0.0,0.0,0.0,0.0,-2.513,-2.564,-2.7243,-2.772,-2.6879,-2.4723,-2.2164,0.0,0.0,0.0,0.0,0.0,0.0,0.0,0.0,0.0,0.0,0.0,0.0,0.0,0.0,0.0,0.0,0.0,0.0,0.0,0.0,0.0,0.0,0.0,0.0,0.0,0.0,0.0,0.0,0.0,0.0,0.0,0.0,0.0,0.0,0.0,0.0,0.0,0.0,0.0,0.0,0.0,0.0,0.0,0.0,0.0,0.0,0.0,0.0,0.0,0.0,0.0,0.0,0.0,0.0,0.0,0.0,0.0,0.0,0.0,0.0,0.0,0.0,0.0,0.0,0.0,0.0,0.0,0.0,0.0,0.0,0.0,0.0,0.0,0.0,0.0,0.0,0.0,0.0,0.0,0.0,0.0,0.0,0.0,0.0,0.0,0.0,0.0,0.0,0.0,0.0,0.0,0.0,0.0,0.0,0.0,0.0,0.0,0.0,0.0,0.0,0.0,0.0,0.0,0.0,0.0,0.0,0.0,-2.4218,-2.5462,-2.6501,-2.7422,-2.741,-2.6408,-2.4556,-2.2407,-1.9831,0.0,0.0,0.0,0.0,0.0,0.0,0.0,0.0,0.0,0.0,0.0,0.0,0.0,0.0,0.0,0.0,0.0,0.0,0.0,0.0,0.0,0.0,0.0,0.0,0.0,0.0,0.0,0.0,0.0,0.0,0.0,0.0,0.0,0.0,0.0,0.0,0.0,0.0,-1.666,-1.6798,0.0,0.0,0.0,0.0,0.0,0.0,0.0,0.0,-1.9516,0.0,0.0,0.0,0.0,0.0,0.0,0.0,0.0,0.0,0.0,0.0,0.0,0.0,0.0,0.0,0.0,0.0,0.0,0.0,0.0,0.0,0.0,0.0,0.0,0.0,0.0,0.0,0.0,0.0,0.0,0.0,0.0,0.0,0.0,0.0,0.0,0.0,0.0,0.0,0.0,0.0,0.0,0.0,0.0,0.0,0.0,0.0,0.0,0.0,0.0,0.0,0.0,0.0,0.0,0.0,0.0,-2.4518,-2.5043,-2.5632,-2.6501,-2.6878,-2.6699,-2.574,-2.3251,-2.1193,-1.9754,0.0,0.0,0.0,0.0,0.0,0.0,0.0,0.0,0.0,0.0,0.0,0.0,0.0,0.0,0.0,0.0,0.0,0.0,0.0,0.0,0.0,0.0,0.0,0.0,0.0,0.0,0.0,0.0,0.0,0.0,0.0,0.0,0.0,0.0,0.0,0.0,0.0,0.0,0.0,-1.8031,-1.8432,0.0,0.0,0.0,0.0,0.0,0.0,0.0,0.0,-1.9055,0.0,0.0,0.0,0.0,0.0,0.0,0.0,0.0,0.0,0.0,0.0,0.0,0.0,0.0,0.0,0.0,0.0,0.0,0.0,0.0,0.0,0.0,0.0,0.0,0.0,0.0,0.0,0.0,0.0,0.0,0.0,0.0,0.0,0.0,0.0,0.0,0.0,0.0,0.0,0.0,0.0,0.0,0.0,0.0,0.0,0.0,0.0,0.0,0.0,0.0,0.0,0.0,0.0,0.0,0.0,-2.4105,-2.4543,-2.5211,-2.6168,-2.5962,-2.5499,-2.4732,-2.2636,-2.0804,0.0,0.0,0.0,0.0,0.0,0.0,0.0,0.0,0.0,0.0,0.0,0.0,0.0,0.0,0.0,0.0,0.0,0.0,0.0,0.0,0.0,0.0,0.0,0.0,0.0,0.0,0.0,0.0,0.0,0.0,0.0,0.0,0.0,0.0,0.0,0.0,0.0,0.0,0.0,0.0,-1.8495,-1.8932,-1.8668,0.0,0.0,0.0,0.0,0.0,0.0,-1.9236,-1.9142,0.0,0.0,0.0,0.0,0.0,0.0,0.0,0.0,0.0,0.0,0.0,0.0,0.0,0.0,0.0,0.0,0.0,0.0,0.0,0.0,0.0,0.0,0.0,0.0,0.0,0.0,0.0,0.0,0.0,0.0,0.0,0.0,0.0,0.0,0.0,0.0,0.0,0.0,0.0,0.0,0.0,0.0,0.0,0.0,0.0,0.0,0.0,0.0,0.0,0.0,0.0,0.0,0.0,0.0,0.0,-2.3398,-2.4137,-2.4928,-2.5849,-2.5288,-2.4556,-2.3816,-2.1983,-2.0337,0.0,0.0,0.0,0.0,0.0,0.0,0.0,0.0,0.0,0.0,0.0,0.0,0.0,0.0,0.0,0.0,0.0,0.0,0.0,0.0,0.0,0.0,0.0,0.0,0.0,0.0,0.0,0.0,0.0,0.0,0.0,0.0,0.0,0.0,0.0,0.0,0.0,0.0,0.0,0.0,0.0,-1.961,-1.9397,-1.9447,0.0,0.0,0.0,0.0,-1.9098,-1.9811,0.0,0.0,0.0,0.0,0.0,0.0,0.0,0.0,0.0,0.0,0.0,0.0,0.0,0.0,0.0,0.0,0.0,0.0,0.0,0.0,0.0,0.0,0.0,0.0,0.0,0.0,0.0,0.0,0.0,0.0,0.0,0.0,0.0,0.0,0.0,0.0,0.0,0.0,0.0,0.0,0.0,0.0,0.0,0.0,0.0,0.0,0.0,0.0,0.0,0.0,0.0,0.0,0.0,0.0,0.0,0.0,-2.3355,-2.4721,-2.5602,-2.5845,-2.5598,-2.47,-2.3261,-2.0677,-1.9196,0.0,0.0,0.0,0.0,0.0,0.0,0.0,0.0,0.0,0.0,0.0,0.0,0.0,0.0,0.0,0.0,0.0,0.0,0.0,0.0,0.0,0.0,0.0,0.0,0.0,0.0,0.0,0.0,0.0,0.0,0.0,0.0,0.0,0.0,0.0,0.0,0.0,0.0,0.0,0.0,0.0,-2.1581,-2.0602,-2.0891,-2.1004,0.0,0.0,-2.0297,-2.1865,-2.2034,0.0,0.0,0.0,0.0,0.0,0.0,0.0,0.0,0.0,0.0,0.0,0.0,0.0,0.0,0.0,0.0,0.0,0.0,0.0,0.0,0.0,0.0,0.0,0.0,0.0,0.0,0.0,0.0,0.0,0.0,0.0,0.0,0.0,0.0,0.0,0.0,0.0,0.0,0.0,0.0,0.0,0.0,0.0,0.0,0.0,0.0,0.0,0.0,0.0,0.0,0.0,0.0,0.0,0.0,0.0,-2.1639,-2.3435,-2.3717,-2.4591,-2.6104,-2.4573,-2.3537,-2.3264,-2.0498,-1.9032,0.0,0.0,0.0,0.0,0.0,0.0,0.0,0.0,0.0,0.0,0.0,0.0,0.0,0.0,0.0,0.0,0.0,0.0,0.0,0.0,0.0,0.0,0.0,0.0,0.0,0.0,0.0,0.0,0.0,0.0,0.0,0.0,0.0,0.0,0.0,0.0,0.0,0.0,0.0,0.0,0.0,0.0,-2.0832,-2.1681,0.0,0.0,0.0,-2.1605,-2.2731,0.0,0.0,0.0,0.0,0.0,0.0,0.0,0.0,0.0,0.0,0.0,0.0,0.0,0.0,0.0,0.0,0.0,0.0,0.0,0.0,0.0,0.0,0.0,0.0,0.0,0.0,0.0,0.0,0.0,0.0,0.0,0.0,0.0,0.0,0.0,0.0,0.0,0.0,0.0,0.0,0.0,0.0,0.0,0.0,0.0,0.0,0.0,0.0,0.0,0.0,0.0,0.0,0.0,0.0,0.0,0.0,0.0,-2.334,-2.2916,-2.3695,-2.5621,-2.358,-2.2399,-2.2437,-2.0105,0.0,0.0,0.0,0.0,0.0,0.0,0.0,0.0,0.0,0.0,0.0,0.0,0.0,0.0,0.0,0.0,0.0,0.0,0.0,0.0,0.0,0.0,0.0,0.0,0.0,0.0,0.0,-1.8507,0.0,0.0,0.0,0.0,0.0,0.0,0.0,0.0,0.0,0.0,0.0,0.0,0.0,0.0,-2.1543,-2.1142,-2.2498,-2.3351,0.0,0.0,-2.2774,-2.284,-2.2259,-2.1267,0.0,0.0,0.0,0.0,0.0,0.0,0.0,0.0,0.0,0.0,0.0,0.0,0.0,0.0,0.0,0.0,0.0,0.0,0.0,0.0,0.0,0.0,0.0,0.0,0.0,0.0,0.0,0.0,0.0,0.0,0.0,0.0,0.0,0.0,0.0,0.0,0.0,0.0,0.0,0.0,0.0,0.0,0.0,0.0,0.0,0.0,0.0,0.0,0.0,0.0,0.0,0.0,0.0,0.0,0.0,-2.2739,-2.3255,-2.3572,-2.3812,-2.3055,-2.1851,-2.0117,-1.8918,-1.8028,0.0,0.0,0.0,0.0,0.0,0.0,0.0,0.0,0.0,0.0,0.0,0.0,0.0,0.0,0.0,0.0,0.0,0.0,0.0,0.0,0.0,0.0,0.0,0.0,0.0,0.0,0.0,0.0,0.0,0.0,0.0,0.0,0.0,0.0,0.0,0.0,0.0,0.0,0.0,0.0,0.0,-2.2234,-2.2209,-2.364,-2.4506,0.0,0.0,-2.354,-2.2535,-2.359,-2.3464,-2.0313,0.0,0.0,0.0,0.0,0.0,0.0,0.0,0.0,0.0,0.0,0.0,0.0,0.0,0.0,0.0,0.0,0.0,0.0,0.0,0.0,0.0,0.0,0.0,0.0,0.0,0.0,0.0,0.0,0.0,0.0,0.0,0.0,0.0,0.0,0.0,0.0,0.0,0.0,0.0,0.0,0.0,0.0,0.0,0.0,0.0,0.0,0.0,0.0,0.0,0.0,0.0,0.0,0.0,-2.0932,-2.2652,-2.2495,-2.3002,-2.4134,-2.2816,-2.1515,-2.0534,-1.8986,-1.794,0.0,0.0,0.0,0.0,0.0,0.0,0.0,0.0,0.0,0.0,0.0,0.0,0.0,0.0,0.0,0.0,0.0,0.0,0.0,0.0,0.0,0.0,0.0,0.0,0.0,0.0,0.0,0.0,-1.9332,-1.9442,-1.9675,0.0,0.0,0.0,0.0,0.0,0.0,0.0,0.0,0.0,0.0,-2.2419,-2.2723,-2.3979,0.0,0.0,-2.4054,-2.4117,-2.3,-2.3075,-2.2611,-2.0639,-1.9849,0.0,0.0,0.0,0.0,0.0,0.0,0.0,0.0,0.0,0.0,0.0,0.0,0.0,0.0,0.0,0.0,0.0,0.0,0.0,0.0,0.0,0.0,0.0,0.0,0.0,0.0,0.0,0.0,0.0,0.0,0.0,0.0,0.0,0.0,0.0,0.0,0.0,0.0,0.0,0.0,0.0,0.0,0.0,0.0,0.0,0.0,0.0,0.0,0.0,0.0,0.0,0.0,-2.0572,-2.2353,-2.1882,-2.2352,-2.3764,-2.238,-2.121,-2.0308,-1.8916,-1.7951,0.0,0.0,0.0,0.0,0.0,0.0,0.0,0.0,0.0,0.0,0.0,0.0,0.0,0.0,0.0,0.0,0.0,0.0,0.0,0.0,0.0,0.0,0.0,0.0,0.0,0.0,0.0,0.0,-1.9737,-1.9705,-1.9705,0.0,0.0,0.0,0.0,0.0,0.0,0.0,0.0,0.0,0.0,-2.2437,-2.2786,-2.3991,-2.4481,-2.3527,-2.4067,-2.4243,-2.3276,-2.2661,-2.1882,-2.0614,0.0,0.0,0.0,0.0,0.0,0.0,0.0,0.0,0.0,0.0,0.0,0.0,0.0,0.0,0.0,0.0,0.0,0.0,0.0,0.0,0.0,0.0,0.0,0.0,0.0,0.0,0.0,0.0,0.0,0.0,-2.673,0.0,0.0,0.0,0.0,0.0,0.0,0.0,0.0,0.0,0.0,0.0,0.0,0.0,0.0,0.0,0.0,0.0,0.0,0.0,0.0,0.0,0.0,0.0,-2.168,-2.1685,-2.1713,-2.1772,-2.1714,-2.0825,-1.9043,-1.8438,-1.7916,-1.7323,0.0,0.0,0.0,0.0,0.0,0.0,0.0,0.0,0.0,0.0,0.0,0.0,0.0,0.0,0.0,0.0,0.0,0.0,0.0,0.0,0.0,0.0,0.0,0.0,0.0,0.0,-1.972,-1.9705,-1.9705,0.0,0.0,0.0,0.0,0.0,0.0,0.0,0.0,0.0,0.0,-2.0941,-2.2297,-2.2347,-2.374,-2.4531,-2.3966,-2.3954,-2.3778,-2.315,-2.2636,-2.1744,0.0,0.0,0.0,0.0,0.0,0.0,0.0,0.0,0.0,0.0,0.0,0.0,0.0,0.0,0.0,0.0,0.0,0.0,0.0,0.0,0.0,0.0,0.0,0.0,0.0,0.0,0.0,-2.9716,-2.9582,0.0,0.0,0.0,0.0,0.0,0.0,0.0,0.0,0.0,0.0,0.0,-2.4509,-2.4802,0.0,0.0,0.0,0.0,0.0,0.0,0.0,0.0,0.0,0.0,0.0,0.0,-2.0124,-2.1021,-2.1485,-2.1473,-2.1068,-2.1499,-2.0784,-1.8962,-1.8767,-1.8244,-1.7338,0.0,0.0,0.0,0.0,0.0,0.0,0.0,0.0,0.0,0.0,0.0,0.0,0.0,0.0,0.0,0.0,0.0,0.0,0.0,0.0,0.0,0.0,0.0,0.0,0.0,-1.9705,0.0,0.0,0.0,0.0,0.0,0.0,0.0,0.0,0.0,0.0,0.0,-2.0566,-2.1146,-2.2171,-2.2687,-2.2367,-2.2786,-2.2836,0.0,0.0,0.0,0.0,0.0,0.0,0.0,0.0,0.0,0.0,0.0,0.0,0.0,0.0,-1.7139,-1.6426,-1.5928,-1.5586,-1.5449,0.0,0.0,0.0,0.0,0.0,0.0,0.0,0.0,0.0,0.0,0.0,0.0,0.0,0.0,0.0,0.0,-3.0448,0.0,0.0,0.0,0.0,0.0,0.0,0.0,0.0,-2.601,-2.665,-2.6204,-2.6134,-2.5922,0.0,-2.4881,-2.39,0.0,0.0,0.0,0.0,0.0,0.0,0.0,0.0,-2.0019,-2.0707,-2.1141,-2.1124,-2.0735,-2.1102,-2.0647,-1.9225,-1.9009,-1.8587,-1.7867,-1.821,-1.8592,0.0,0.0,0.0,0.0,0.0,0.0,0.0,0.0,0.0,0.0,0.0,0.0,0.0,0.0,0.0,0.0,0.0,0.0,0.0,0.0,0.0,0.0,0.0,-1.9705,0.0,0.0,0.0,0.0,0.0,0.0,0.0,0.0,0.0,-2.0464,-2.0832,-2.1243,-2.2204,-2.263,-2.2623,-2.2103,0.0,0.0,0.0,0.0,0.0,0.0,0.0,-2.1267,-2.0514,-2.0865,-2.1001,-2.028,-2.0097,-1.9701,-1.8644,0.0,0.0,-1.709,-1.6494,-1.6094,-1.6094,-1.5977,-1.5722,-1.5286,-1.5256,-1.4806,0.0,0.0,0.0,0.0,0.0,0.0,0.0,0.0,-3.0448,-3.1292,0.0,-3.098,0.0,0.0,0.0,0.0,0.0,-2.5178,0.0,0.0,-2.7476,-2.8085,-2.7448,-2.6632,-2.6042,-2.5727,-2.6302,-2.5507,-2.3511,-2.2733,0.0,0.0,0.0,0.0,0.0,0.0,-2.0055,-2.0647,-2.0707,-2.0669,-2.0639,-2.0684,-2.0356,-1.9735,-1.9184,-1.893,-1.8893,-1.8893,-1.9169,-1.9654,-1.969,0.0,0.0,0.0,0.0,0.0,0.0,0.0,0.0,0.0,0.0,0.0,0.0,0.0,0.0,0.0,0.0,0.0,0.0,0.0,0.0,-1.9705,0.0,0.0,0.0,0.0,0.0,0.0,0.0,0.0,0.0,0.0,-2.0605,-2.1234,-2.1719,-2.2272,0.0,0.0,0.0,0.0,-2.2071,-2.1543,-2.2385,-2.299,-2.2965,-2.2952,-2.2636,-2.1594,0.0,0.0,-1.9477,-1.9896,-1.9867,-1.779,-1.7734,-1.8135,-1.8516,-1.7861,-1.7344,-1.7353,-1.6938,-1.6376,-1.5513,-1.5204,-1.4644,-3.8112,0.0,0.0,0.0,0.0,-3.3961,-3.4041,-3.3678,-3.4302,-3.3807,-3.2551,-3.2137,0.0,0.0,0.0,0.0,0.0,0.0,-2.7681,-2.8127,-2.9739,-2.9954,-2.898,-2.8722,-2.8097,-2.7165,-2.6319,-2.5592,-2.4932,-2.3697,-2.2656,-2.1794,0.0,0.0,0.0,0.0,-2.0231,-2.0411,-2.0602,-2.0483,-1.9989,-2.0453,-2.0378,-1.9705,-1.9581,-1.9281,-1.893,-1.9281,-1.9369,-1.9132,-1.9493,0.0,0.0,0.0,0.0,0.0,0.0,0.0,0.0,0.0,0.0,0.0,0.0,0.0,0.0,0.0,0.0,0.0,0.0,0.0,-1.9705,-1.9705,-1.9705,0.0,0.0,0.0,0.0,0.0,0.0,0.0,0.0,0.0,-2.1675,-2.1983,-2.2284,0.0,0.0,-2.2246,-2.2096,-2.1543,-2.1217,-2.1468,0.0,0.0,0.0,-2.1631,-2.1267,-2.1008,-2.1096,-2.068,-1.9315,-1.9347,-1.9171,-1.8029,-1.7676,-1.7783,-1.8428,-1.7959,-1.7529,-1.7648,-1.6921,-1.6017,-1.559,-1.4828,-1.3884,-4.1893,-3.9565,-3.7778,-3.6566,-3.5894,-3.6161,-3.6029,-3.5724,-3.5781,-3.5147,-3.4027,-3.3366,-3.2082,-3.0332,-2.8706,0.0,0.0,0.0,-2.9106,-2.9922,-3.0446,-3.0562,-3.0254,-2.9332,-2.8493,-2.7757,-2.6302,-2.5439,-2.5152,-2.3968,-2.287,-2.1886,0.0,0.0,-2.1213,-2.0781,-2.0483,-2.033,-2.0659,-2.0462,-1.9705,-2.0079,-2.0109,-1.972,-1.9705,-1.9566,-1.9244,-1.953,-1.9566,-1.9244,-1.9277,-1.9226,0.0,0.0,0.0,0.0,0.0,0.0,0.0,0.0,0.0,0.0,0.0,-1.6802,0.0,0.0,0.0,0.0,-1.9705,-1.9705,-1.9705,-1.9705,0.0,0.0,0.0,0.0,0.0,0.0,0.0,-2.0,-2.0664,-2.1288,-2.1642,-2.1875,-2.2272,-2.2965,-2.246,-2.1907,-2.1681,0.0,-2.1041,-2.1154,-2.1355,-2.1481,-2.1481,-2.1204,-2.1046,-2.0991,-2.1004,-2.0557,-1.934,-1.9123,-1.8718,-1.776,-1.7295,-1.7285,-1.7716,-1.7461,-1.7324,-1.7881,-1.702,-1.6067,-1.5371,-1.4324,-1.3323,-4.5124,-4.4047,-3.9883,-3.8054,-3.785,-3.7442,-3.7186,-3.6901,-3.5882,-3.5781,-3.6156,-3.4596,-3.3385,-3.2375,-3.0167,0.0,-2.8848,-2.9528,-3.0252,-3.1003,-3.0278,-3.0387,-3.1146,-2.9023,-2.7911,-2.7741,-2.6285,-2.5253,-2.4577,-2.3782,-2.3054,-2.2383,-2.1903,-2.1642,-2.1612,-2.1244,-2.0813,-2.04,-2.0764,-2.0532,-1.9711,-1.9711,-1.9696,-1.96,-1.9615,-1.957,-1.9525,-1.9585,-1.96,-1.9585,-1.9076,-1.9031,-1.9525,0.0,0.0,0.0,0.0,0.0,0.0,0.0,0.0,0.0,0.0,0.0,0.0,0.0,0.0,0.0,-1.9705,0.0,-1.9705,-1.9705,0.0,0.0,0.0,-1.9142,-1.9966,-2.0259,-2.0342,-2.0243,0.0,0.0,-2.104,0.0,-2.1851,-2.2858,-2.2058,-2.1267,-2.0907,-2.1222,-2.1255,-2.0894,-2.1179,-2.1481,-2.1481,-2.1405,-2.1255,-2.1117,-2.1317,-2.0729,-1.9333,-1.8932,-1.8311,-1.7119,-1.668,-1.6665,-1.6694,-1.6743,-1.6973,-1.7695,-1.7067,-1.5998,-1.4836,-1.3924,-1.3005,-4.547,-4.5124,-4.3417,-4.1816,-4.0482,-4.0931,-4.017,-3.8603,-3.8906,-3.8015,-3.6229,-3.5183,-3.3605,-3.1659,-3.1072,-3.1139,-3.1631,-3.1788,-3.1997,-3.2235,-3.262,-3.1826,-3.0032,-2.9809,-2.8914,-2.7405,-2.6194,-2.5507,-2.5287,-2.4036,-2.3308,-2.3122,-2.2449,-2.2135,-2.2106,-2.1658,-2.1399,-2.129,-2.0748,-2.0227,-1.9711,-2.0015,-1.9756,-1.8957,-1.8942,-1.8702,-1.819,-1.8657,-1.8942,-1.8942,-1.9271,-1.9301,-1.8957,-1.9106,0.0,0.0,0.0,0.0,0.0,0.0,0.0,0.0,0.0,-1.6574,-1.6745,0.0,-1.8535,0.0,-1.9705,-1.9705,-1.9705,-1.9705,0.0,0.0,-2.0771,-2.1035,-2.1243,-2.2152,-2.241,-2.1398,-2.2352,-2.2839,-2.2259,-2.1847,-2.1667,-2.1927,-2.1342,-2.1117,-2.1757,-2.128,-2.0978,-2.1204,-2.1305,-2.1481,-2.1405,-2.1117,-2.0643,-1.9748,-1.9949,-1.9723,-1.8401,-1.8064,-1.7763,-1.7137,-1.6638,-1.6406,-1.6571,-1.6709,-1.6709,-1.685,-1.577,-1.4588,-1.4057,-1.3615,-1.3038,-4.5374,-4.497,-4.4489,-4.3229,-4.155,-4.1857,-4.125,-4.0061,-3.9474,-3.8191,-3.6389,-3.5082,-3.3733,-3.2485,-3.2467,-3.2706,-3.3109,-3.2761,-3.2614,-3.257,-3.2127,-3.1093,-2.9593,-2.9369,-2.8405,-2.6784,-2.5829,-2.5118,-2.456,-2.3477,-2.2902,-2.2919,-2.2513,-2.2327,-2.2282,-2.2032,-2.1735,-2.1337,-2.0649,-2.0366,-2.055,-2.0268,-1.9867,-1.9451,-1.911,-1.8691,-1.8179,-1.8792,-1.9001,-1.8747,-1.9061,-1.9211,-1.9151,-1.8927,-1.8927,0.0,0.0,0.0,0.0,0.0,0.0,0.0,0.0,0.0,0.0,0.0,-1.8803,0.0,-1.9705,-1.9705,-1.9705,-1.9705,-1.9959,-2.0632,-2.1051,-2.1485,-2.2069,-2.2757,-2.2914,-2.2219,-2.2467,-2.2452,-2.1801,-2.0961,-2.0469,-2.042,-1.9951,-1.9962,-2.0916,-2.0639,-2.0326,-2.0376,-2.0188,-2.0137,-2.0338,-2.0338,-1.9999,-1.9258,-1.9271,-1.8956,-1.7451,-1.7053,-1.6709,-1.5976,-1.5481,-1.5361,-1.572,-1.5858,-1.585,-1.5667,-1.4949,-1.4217,-1.4197,-1.3747,-1.3204,-4.5086,-4.4297,-4.4182,-4.3258,-4.178,-4.1379,-4.117,-4.0996,-3.8987,-3.756,-3.6526,-3.4758,-3.3899,-3.3807,-3.3807,-3.3752,-3.3605,-3.2926,-3.2504,-3.2203,-3.0592,-2.9709,-2.9492,-2.8558,-2.7547,-2.6475,-2.5518,-2.4591,-2.36,-2.2728,-2.2327,-2.2327,-2.2327,-2.2327,-2.2327,-2.2327,-2.1915,-2.1086,-2.0715,-2.083,-2.1413,-2.0584,-2.0147,-2.0162,-1.9599,-1.9129,-1.877,-1.939,-1.9461,-1.885,-1.8895,-1.9146,-1.9666,-1.8612,-1.8493,0.0,-1.9136,0.0,0.0,0.0,0.0,0.0,0.0,0.0,0.0,-1.8097,-1.9207,-1.9639,-1.9705,-1.9705,-1.9705,-1.9705,-1.9959,-2.0617,-2.0722,-2.1231,-2.2454,-2.2634,-2.2619,-2.2488,-2.2028,-2.1455,-2.0937,-1.9842,-1.9125,-1.9231,-1.8729,-1.8704,-1.9409,-1.9572,-1.9422,-1.8982,-1.8518,-1.8631,-1.8957,-1.9334,-1.9397,-1.8932,-1.8857,-1.8302,-1.6726,-1.6316,-1.5855,-1.4745,-1.4389,-1.4287,-1.4646,-1.4798,-1.4836,-1.4802,-1.4517,-1.4381,-1.4577,-1.419,-1.3501,-4.5066,-4.4239,-4.3605,-4.2739,-4.1739,-4.096,-4.0534,-4.0272,-3.9573,-3.8184,-3.6325,-3.5248,-3.4412,-3.3825,-3.3807,-3.3458,-3.2852,-3.2687,-3.1916,-3.0687,-3.0949,-3.0375,-2.9156,-2.9238,-2.8811,-2.7897,-2.6043,-2.4975,-2.4752,-2.3107,-2.2327,-2.2327,-2.2327,-2.2327,-2.2327,0.0,0.0,0.0,-2.1781,-2.1477,-2.0616,-2.1036,-2.0747,-1.962,-1.9752,0.0,-1.9001,-1.9576,-1.972,-1.9304,-1.9749,0.0,0.0,0.0,0.0,0.0,0.0,0.0,0.0,0.0,0.0,0.0,-1.9442,-1.8972,-1.7937,-1.8862,-1.9603,-1.969,-1.9705,-1.9705,-1.9705,-1.9705,-1.9974,-2.0632,-2.0835,-2.1317,-2.2254,-2.2375,-2.2144,-2.1406,-2.1539,-2.1654,-2.1395,-2.0486,-1.9727,-1.9568,-1.8852,-1.8346,-1.8452,-1.85,-1.8468,-1.8355,-1.8204,-1.8229,-1.8342,-1.8468,-1.8417,-1.789,-1.8091,-1.8009,-1.7247,-1.6557,-1.6204,-1.5676,-1.4841,-1.4116,-1.4225,-1.4523,-1.4782,-1.4782,-1.4702,-1.4561,-1.4205,-1.439,-1.4417,-4.4897,0.0,-4.3278,-4.2585,0.0,-4.0854,-4.0655,-4.0861,-3.9756,-3.8003,-3.5869,-3.4862,-3.4192,-3.3807,-3.3807,-3.3587,-3.3146,-3.2375,-3.1568,-3.0779,-3.0393,-2.9806,-2.8994,-2.9199,-2.8796,-2.7832,-2.6318,-2.5218,-2.451,-2.3158,-2.2409,-2.2327,-2.2327,-2.2327,-2.2327,-2.2327,-2.218,-2.1928,-2.1945,-2.1735,-2.1321,-2.1371,-2.1101,-2.0525,0.0,0.0,0.0,0.0,0.0,0.0,0.0,0.0,0.0,0.0,0.0,-2.0,-1.9803,-1.9705,-1.9705,-1.9705,-1.9705,-1.9705,-1.9705,-1.9471,-1.8928,-1.9405,-1.9705,-1.9705,-1.9705,-1.9705,-1.9705,-1.9705,-1.9959,-2.0617,-2.0903,-2.1272,-2.1843,-2.1792,-2.1428,-2.0959,-2.0789,-2.0707,-2.0707,-1.9995,-1.9321,-1.9003,-1.8328,-1.7644,-1.7422,-1.763,-1.7727,-1.7438,-1.7652,-1.7802,-1.7827,-1.8066,-1.8016,-1.7576,-1.7626,-1.7435,-1.6667,-1.6172,-1.582,-1.5497,-1.462,-1.3983,-1.4185,-1.4252,-1.431,-1.4765,-1.4703,-1.4505,-1.4428,-1.4693,-1.4775,-4.4597,-4.3085,-4.2931,-4.2354,-4.1527,-4.0796,-4.0835,-4.1223,0.0,0.0,0.0,-3.4412,-3.3842,-3.3807,-3.3807,-3.3642,-3.3293,-3.2008,-3.1237,-3.0907,-2.9622,-2.8975,-2.8975,-2.8975,-2.8516,-2.7574,-2.6579,-2.5499,-2.4349,-2.3267,-2.2599,-2.2388,-2.2338,-2.2327,-2.2327,-2.2327,-2.2327,-2.2282,-2.1928,-2.1853,-2.2163,-2.1657,-2.144,-2.1612,-2.1094,-2.0665,-2.0432,-2.0953,-2.0923,-2.0344,-2.0812,-2.1055,-2.0991,-2.055,-2.0299,-2.028,-1.9945,-1.9705,-1.9705,-1.9705,-1.9747,-1.9818,-1.9833,-1.9833,-1.9818,-1.9747,-1.9705,-1.9705,-1.9705,-1.9705,-1.9705,-1.9705,-1.9914,-2.0483,-2.0655,-2.0933,-2.1231,-2.1,-2.0708,-2.0498,-2.0064,-1.9705,-1.975,-1.9278,-1.875,-1.8277,-1.7784,-1.7076,-1.6678,-1.6948,-1.7087,-1.6748,-1.6986,-1.7225,-1.7287,-1.7539,-1.7702,-1.7262,-1.7212,-1.6859,-1.6054,-1.5676,-1.541,-1.5097,-1.4387,-1.4189,-1.4366,-1.419,-1.4124,-1.496,-1.4615,-1.433,-1.4789,-1.4737,-1.4609,-4.4076,-4.3028,-4.2297,-4.147,-4.0662,-4.0546,-4.0162,-3.955,-3.8338,-3.7313,-3.6441,-3.484,-3.4018,-3.3807,-3.3807,-3.3036,-3.1733,-3.1494,-3.065,0.0,-2.9085,-2.8975,-2.8975,-2.8975,-2.892,-2.8636,-2.6962,-2.6002,-2.559,-2.3724,-2.2669,-2.2625,-2.2426,-2.2327,-2.2327,-2.2327,-2.2327,-2.2327,-2.2209,-2.2032,-2.1718,-2.2005,-2.196,-2.1625,-2.1886,-2.2029,-2.2,-2.2056,-2.1895,-2.142,-2.1472,-2.1368,-2.1007,-2.0583,-2.0299,-2.028,-1.9894,-1.9705,-1.9705,-1.9705,-1.9839,-2.0193,-2.0388,-2.0404,-2.0227,-1.9909,-1.9705,-1.9705,-1.9705,-1.9705,-1.9705,-1.9705,-1.9735,-1.9824,-1.9854,-1.9899,-2.0034,-2.001,-1.9936,-1.9884,-1.9765,-1.9705,-1.9669,-1.9257,-1.8921,-1.8668,-1.7909,-1.7119,-1.6683,-1.6529,-1.6566,-1.6547,-1.6584,-1.6635,-1.6722,-1.6697,-1.6798,-1.6672,-1.6685,-1.6629,-1.6362,-1.5964,-1.5632,-1.5487,-1.496,-1.4686,-1.4671,-1.4898,-1.5011,-1.5233,-1.4772,-1.4416,-1.4508,-1.4164,-1.3945,-4.4723,-4.3777,-4.2864,-4.2277,-4.1873,-4.1412,-4.0469,-3.9238,-3.8243,-3.7224,-3.6201,-3.4993,-3.4288,-3.4037,-3.4018,-3.3389,-3.2242,-3.1667,-3.0779,-2.9677,-2.9177,-2.8975,-2.8975,-2.8975,-2.8755,-2.826,-2.7035,-2.595,-2.5082,-2.3689,-2.2815,-2.25,-2.2377,-2.2327,-2.2327,-2.2327,-2.2327,-2.2327,-2.2327,-2.2209,-2.1986,-2.2209,-2.2209,-2.2003,-2.2209,-2.2327,-2.2327,-2.2327,-2.2192,-2.1974,-2.1974,-2.1899,-2.1691,-2.1275,-2.0894,-2.0698,-2.0261,-1.9945,-1.9726,-1.9909,-2.033,-2.0943,-2.0663,-2.0512,-2.0665,-2.007,-1.9726,-1.9705,-1.9705,-1.9705,-1.9705,-1.9705,-1.9705,-1.9705,-1.9705,-1.9705,-1.9705,-1.9705,-1.9705,-1.9705,-1.9705,-1.9705,-1.9705,-1.9487,-1.9191,-1.891,-1.7991,-1.7119,-1.6602,-1.6534,-1.6534,-1.6534,-1.6534,-1.6534,-1.6534,-1.6534,-1.6534,-1.6534,-1.6534,-1.6534,-1.6479,-1.625,-1.6107,-1.6051,-1.5599,-1.5242,-1.5186,-1.5039,-1.514,-1.5337,-1.4693,-1.4286,-1.4366,-1.4008,-1.3772,-4.5094,-4.4131,-4.322,-4.2681,-4.247,-4.1797,-4.0662,-3.9277,-3.8584,-3.7419,-3.6007,-3.5134,-3.4501,-3.4031,-3.4218,-3.3657,-3.253,-3.1816,-3.0973,-3.001,-2.9315,-2.8975,-2.8975,-2.8975,-2.8663,-2.8026,-2.7255,-2.6194,-2.4933,-2.4011,-2.3165,-2.2487,-2.2388,-2.2377,-2.2327,-2.2327,-2.2327,-2.2327,-2.2327,-2.2327,-2.2327,-2.2327,-2.2327,-2.2327,-2.2327,-2.2327,-2.2327,-2.2327,-2.2327,-2.2327,-2.2327,-2.2327,-2.2282,-2.1869,-2.146,-2.115,-2.0731,-2.033,-2.005,-2.0364,-2.0862,-2.1538,-2.091,-2.0616,-2.0894,-2.0224,-1.9705,-1.9705,-1.9705,-1.9705,-1.9705,-1.9705,-1.9705,-1.9705,-1.9705,-1.9705,-1.9705,-1.9705,-1.9705,-1.9705,-1.9705,-1.9705,-1.9705,-1.9705,-1.9435,-1.8711,-1.8004,-1.7268,-1.6688,-1.6534,-1.6534,-1.6534,-1.6534,-1.6534,-1.6534,-1.6534,-1.6534,-1.6534,-1.6534,-1.6534,-1.6479,-1.6479,-1.6491,-1.6436,-1.6151,-1.5876,-1.5776,-1.5478,-1.5412,-1.5703,-1.5062,-1.4351,-1.4348,-1.382,-1.3645,-4.4268,-4.324,-4.2406,-4.145,-4.0816,-4.0681,-4.0123,-3.9335,-3.92,-3.8073,-3.6269,-3.5394,-3.4471,-3.3673,-3.4333,-3.3409,-3.1337,-3.1586,-3.0956,-2.9572,-2.9149,-2.8975,-2.8975,-2.8975,-2.8957,-2.8718,-2.8007,-2.7138,-2.6206,-2.5222,-2.4052,-2.2807,-2.266,-2.2588,-2.2338,-2.2344,-2.2344,-2.2327,-2.2327,-2.2327,-2.2327,-2.2327,-2.2327,-2.2327,-2.2327,-2.2327,-2.2327,-2.2327,-2.2327,-2.2327,-2.2327,-2.2327,-2.2254,-2.1853,-2.1582,-2.1521,-2.115,-2.0926,-2.0894,-2.1244,-2.1491,-2.1568,-2.1213,-2.0926,-2.0959,-2.0208,-1.9741,-1.9705,-1.9705,-1.9705,-1.9705,-1.9705,-1.9705,-1.9705,-1.9705,-1.9705,-1.9705,-1.9705,-1.9705,-1.9705,-1.9705,-1.9705,-1.9705,-1.9705,-1.9295,-1.8472,-1.8125,-1.7593,-1.6791,-1.6522,-1.6534,-1.6534,-1.6534,-1.6534,-1.6534,-1.6534,-1.6534,-1.6534,-1.6534,-1.6534,-1.6534,-1.6534,-1.6534,-1.6479,-1.6479,-1.6337,-1.6337,-1.6349,-1.6293,-1.6151,-1.5688,-1.5084,-1.419,-1.3529,-1.3561,-4.4994,-4.4047,-4.3039,-4.1803,-4.0581,-4.0489,-4.0046,-3.9277,-3.8757,-3.7771,-3.6523,-3.5699,-3.498,-3.4433,-3.4774,-3.3824,-3.1984,-3.2015,-3.1087,-2.9487,-2.9289,-2.9156,-2.9017,-2.8975,-2.8773,-2.8301,-2.7952,-2.7259,-2.6331,-2.5601,-2.4757,-2.3872,-2.4171,-2.4025,-2.332,-2.3467,-2.3384,-2.2936,-2.253,-2.2377,-2.25,-2.2388,-2.2327,-2.2327,-2.2327,-2.2327,-2.2327,-2.2327,-2.2327,-2.2327,-2.2327,-2.2327,-2.2327,-2.2106,-2.1899,-2.1612,-2.1213,-2.1118,-2.1337,-2.1521,-2.1718,-2.2003,-2.1598,-2.1244,-2.0991,-2.0431,-1.9965,-1.9762,-1.9705,-1.9705,-1.9726,-1.9705,-1.9705,-1.9705,-1.9705,-1.9705,-1.9705,-1.9705,-1.9705,-1.9705,-1.9705,-1.9705,-1.9705,-1.9705,-1.9369,-1.8664,-1.8363,-1.78,-1.706,-1.671,-1.6522,-1.6534,-1.6534,-1.6534,-1.6534,-1.6534,-1.6534,-1.6534,-1.6534,-1.6534,-1.6534,-1.6534,-1.6534,-1.6534,-1.6534,-1.6534,-1.6479,-1.6534,-1.6491,-1.6392,-1.6008,-1.532,-1.4514,-1.4154,-1.4344,-4.525,-4.4334,-4.3083,-4.1738,-4.0523,-4.0258,-3.9835,-3.9219,-3.8392,-3.7526,-3.6699,-3.6084,-3.5595,-3.5242,-3.5207,-3.4286,-3.2817,-3.2645,-3.1656,-3.0077,-3.0075,-2.982,-2.9189,-2.9355,-2.8979,-2.825,-2.8154,-2.7606,-2.6617,-2.6063,-2.5517,-2.5051,-2.5444,-2.5268,-2.4488,-2.4664,-2.453,-2.4018,-2.3447,-2.329,-2.3467,-2.3308,-2.2946,-2.2466,-2.2321,-2.2327,-2.2327,-2.2327,-2.2327,-2.2327,-2.2327,-2.2327,-2.2327,-2.2327,-2.2135,-2.1823,-2.1507,-2.1493,-2.1764,-2.1794,-2.1928,-2.2209,-2.1869,-2.1491,-2.1181,-2.0764,-2.033,-1.9945,-1.9874,-1.9854,-1.9726,-1.9705,-1.9705,-1.9705,-1.9705,-1.9705,-1.9705,-1.9705,-1.9705,-1.9705,-1.9705,-1.9705,-1.9705,-1.9705,-1.9435,-1.8736,-1.8428,-1.7936,-1.731,-1.6837,-1.6723,-1.6509,-1.6534,-1.6534,-1.6534,-1.6534,-1.6534,-1.6534,-1.6534,-1.6534,-1.6534,-1.6534,-1.6534,-1.6534,-1.6534,-1.6534,-1.6534,-1.6534,-1.6534,-1.638,-1.6051,-1.5543,-1.5062,-1.4835,-1.4786,-4.4372,-4.3422,-4.1626,-4.0765,-4.0446,-3.9696,-3.9335,-3.9142,-3.8315,-3.7488,-3.6757,-3.6603,-3.6185,-3.5498,-3.5446,-3.4532,-3.314,-3.3425,-3.2778,-3.1309,-3.1708,-3.1073,-2.9506,-3.0139,-2.9935,-2.8906,-2.8833,-2.8462,-2.7669,-2.6973,-2.6366,-2.6044,-2.617,-2.5973,-2.5575,-2.5638,-2.5567,-2.5446,-2.534,-2.5374,-2.5382,-2.54,-2.4488,-2.2998,-2.2487,-2.24,-2.231,-2.231,-2.231,-2.2327,-2.2327,-2.231,-2.231,-2.2293,-2.231,-2.2237,-2.2225,-2.2225,-2.2237,-2.2225,-2.2254,-2.2237,-2.1928,-2.1598,-2.1521,-2.1181,-2.0748,-2.0299,-2.028,-2.0124,-1.9854,-1.9818,-1.9747,-1.9732,-1.9711,-1.9726,-1.9711,-1.9711,-1.9726,-1.9705,-1.9705,-1.9705,-1.9705,-1.9705,-1.928,-1.8662,-1.8595,-1.8355,-1.7201,-1.7034,-1.6951,-1.6637,-1.6534,-1.6534,-1.6534,-1.6534,-1.6534,-1.6534,-1.6534,-1.6534,-1.6534,-1.6534,-1.6534,-1.6534,-1.6534,-1.6534,-1.6534,-1.6534,-1.6534,-1.638,-1.6095,-1.5688,-1.5599,-1.5062,-1.5063,-4.4086,-4.2674,-4.1434,-4.047,-3.9779,-3.9457,-3.9039,-3.8373,-3.7565,-3.7007,-3.6661,-3.6166,-3.5776,-3.5507,-3.5507,-3.4853,-3.3833,-3.3972,-3.337,-3.2241,-3.218,-3.1468,-3.029,-3.0302,-2.989,-2.9108,-2.8975,-2.8847,-2.8613,-2.8264,-2.7798,-2.7382,-2.7702,-2.7525,-2.6903,-2.7392,-2.7353,-2.6463,-2.6373,-2.6226,-2.5967,-2.5711,-2.5308,-2.4884,-2.4048,-2.3285,-2.2563,-2.2563,-2.2473,-2.231,-2.2327,-2.2388,-2.2537,-2.2563,-2.249,-2.2338,-2.2327,-2.2327,-2.2327,-2.2327,-2.2327,-2.2282,-2.2152,-2.1882,-2.1658,-2.1477,-2.1213,-2.0862,-2.0748,-2.0665,-2.0532,-2.0261,-1.9993,-1.9767,-1.9928,-1.9974,-1.9778,-1.9713,-1.9705,-1.9705,-1.9705,-1.9705,-1.9705,-1.9705,-1.956,-1.9205,-1.8997,-1.8458,-1.7787,-1.7463,-1.7146,-1.668,-1.6534,-1.6534,-1.6534,-1.6534,-1.6534,-1.6534,-1.6534,-1.6534,-1.6534,-1.6534,-1.6534,-1.6534,-1.6534,-1.6534,-1.6534,-1.6534,-1.6534,-1.6436,-1.6151,-1.6107,-1.6194,-1.5744,-1.57,-4.3275,-4.1897,-4.125,-4.0422,-3.9491,-3.9151,-3.8526,-3.761,-3.673,-3.6357,-3.6209,-3.5746,-3.5507,-3.5507,-3.5507,-3.5218,-3.4603,-3.4334,-3.3646,-3.2732,-3.2518,-3.1842,-3.0863,-3.0544,-2.9935,-2.9131,-2.8975,-2.8975,-2.8975,-2.8975,-2.8705,-2.8264,-2.8778,-2.8607,-2.8064,-2.8609,-2.8433,-2.7659,-2.7504,-2.7339,-2.703,-2.6814,-2.6646,-2.6535,-2.5888,-2.4771,-2.3335,-2.3239,-2.3015,-2.2642,-2.2407,-2.2487,-2.2825,-2.266,-2.2473,-2.2338,-2.2327,-2.2327,-2.2327,-2.2327,-2.2327,-2.2327,-2.2299,-2.2135,-2.1869,-2.1823,-2.1645,-2.1323,-2.1181,-2.1166,-2.0991,-2.0782,-2.044,-2.003,-2.0016,-1.9993,-1.9737,-1.9728,-1.9726,-1.9705,-1.9705,-1.9705,-1.9705,-1.9705,-1.9617,-1.9479,-1.9207,-1.893,-1.821,-1.7827,-1.7463,-1.7076,-1.6909,-1.6951,-1.7076,-1.7242,-1.6795,-1.668,-1.665,-1.6607,-1.6607,-1.6607,-1.6565,-1.6522,-1.6534,-1.6534,-1.6534,-1.6534,-1.6534,-1.6534,-1.6436,-1.6337,-1.6436,-1.6479,-1.6293,-4.1909,-4.1121,-4.0976,-4.0359,-3.942,-3.8614,-3.7797,-3.6903,-3.6047,-3.5727,-3.5725,-3.554,-3.5509,-3.5501,-3.5515,-3.5449,-3.5141,-3.441,-3.3699,-3.3019,-3.2858,-3.2157,-3.1032,-3.0922,-3.0239,-2.9081,-2.8998,-2.8975,-2.8975,-2.8975,-2.8938,-2.8938,-2.8943,-2.8938,-2.8938,-2.8934,-2.8975,-2.8819,-2.8759,-2.8824,-2.8957,-2.8727,-2.8379,-2.7857,-2.7669,-2.6617,-2.4544,-2.4371,-2.3932,-2.3194,-2.2641,-2.2614,-2.3006,-2.2728,-2.2377,-2.2405,-2.2338,-2.231,-2.2338,-2.231,-2.2327,-2.2327,-2.2327,-2.2282,-2.2225,-2.2225,-2.2077,-2.1688,-2.1582,-2.146,-2.1213,-2.121,-2.1005,-2.0403,-2.0097,-1.9969,-1.9743,-1.9711,-1.9705,-1.9705,-1.9705,-1.9705,-1.9705,-1.9705,-1.9566,-1.9281,-1.9369,-1.9281,-1.8458,-1.8131,-1.8092,-1.7933,-1.7626,-1.7422,-1.7747,-1.8013,-1.7381,-1.6909,-1.6879,-1.685,-1.6879,-1.6879,-1.6752,-1.6723,-1.6522,-1.6522,-1.6534,-1.6534,-1.6534,-1.6534,-1.6534,-1.6534,-1.6534,-1.6534,-1.6534,-4.1914,-4.109,-4.0485,-3.9669,-3.8707,-3.7888,-3.7005,-3.6131,-3.5764,-3.5679,-3.5671,-3.5638,-3.5602,-3.5577,-3.5566,-3.5218,-3.4578,-3.3737,-3.3468,-3.359,-3.2967,-3.2119,-3.1331,-3.1011,-3.0339,-2.94,-2.9089,-2.8975,-2.8998,-2.8998,-2.8975,-2.8975,-2.8998,-2.8975,-2.9021,-2.8975,-2.8975,-2.8975,-2.8975,-2.8975,-2.8975,-2.8975,-2.8847,-2.8668,-2.8631,-2.7771,-2.6023,-2.5167,-2.4241,-2.3289,-2.3041,-2.3012,-2.3164,-2.3236,-2.3153,-2.2933,-2.2678,-2.2573,-2.2563,-2.2415,-2.231,-2.2327,-2.2327,-2.2327,-2.2327,-2.2327,-2.2237,-2.2077,-2.2077,-2.202,-2.1915,-2.1642,-2.1283,-2.0574,-2.0735,-2.0477,-1.9857,-1.9728,-1.9711,-1.9705,-1.9705,-1.9705,-1.9705,-1.9705,-1.9654,-1.9493,-1.9603,-1.9369,-1.8855,-1.8612,-1.8458,-1.8171,-1.7973,-1.7933,-1.8249,-1.8419,-1.8092,-1.7666,-1.7517,-1.7284,-1.7271,-1.7105,-1.6993,-1.6795,-1.6637,-1.6522,-1.6522,-1.6534,-1.6534,-1.6534,-1.6534,-1.6534,-1.6534,-1.6534,-1.6534,-4.166,-4.1113,-4.0273,-3.9334,-3.8405,-3.7585,-3.6693,-3.5884,-3.5777,-3.5791,-3.5786,-3.5736,-3.5675,-3.5648,-3.5611,-3.5267,-3.4646,-3.3795,-3.3487,-3.3474,-3.2325,-3.1556,-3.118,-3.0686,-3.0114,-2.9527,-2.9293,-2.9206,-2.9156,-2.9228,-2.9251,-2.9251,-2.9251,-2.9272,-2.9251,-2.9251,-2.9209,-2.916,-2.9156,-2.9071,-2.9021,-2.8975,-2.8975,-2.8975,-2.8975,-2.8168,-2.6701,-2.5892,-2.4918,-2.3822,-2.3459,-2.3427,-2.3562,-2.3531,-2.3414,-2.3212,-2.3021,-2.2848,-2.2695,-2.2563,-2.2388,-2.2321,-2.2327,-2.2327,-2.2327,-2.2327,-2.2327,-2.2327,-2.2282,-2.2327,-2.2254,-2.2077,-2.1661,-2.1308,-2.1187,-2.0877,-2.0094,-1.9943,-1.9859,-1.9797,-1.9705,-1.9705,-1.9705,-1.9705,-1.9705,-1.9705,-1.969,-1.9639,-1.9244,-1.902,-1.8779,-1.8574,-1.8535,-1.8612,-1.8727,-1.8765,-1.8727,-1.8496,-1.8277,-1.7987,-1.7827,-1.7381,-1.7146,-1.6795,-1.6552,-1.6522,-1.6534,-1.6534,-1.6534,-1.6534,-1.6534,-1.6534,-1.6534,-1.6534,-1.6534,-4.1172,-4.1016,-4.0195,-3.9258,-3.8379,-3.7519,-3.6699,-3.6073,-3.5921,-3.5907,-3.5877,-3.5788,-3.5729,-3.5696,-3.5674,-3.5514,-3.531,-3.4369,-3.3448,-3.2589,-3.1398,-3.0752,-3.1011,-3.0262,-2.9755,-2.9532,-2.9607,-2.957,-2.9434,-2.9551,-2.9696,-2.9643,-2.9625,-2.9678,-2.9625,-2.966,-2.9551,-2.9415,-2.9394,-2.931,-2.9093,-2.9071,-2.9067,-2.9044,-2.9052,-2.8371,-2.708,-2.6471,-2.5678,-2.4371,-2.3876,-2.3843,-2.4006,-2.3603,-2.3346,-2.3346,-2.3259,-2.3093,-2.2848,-2.2789,-2.2625,-2.2388,-2.2377,-2.231,-2.231,-2.2327,-2.2327,-2.2327,-2.2327,-2.2327,-2.2282,-2.2254,-2.222,-2.218,-2.1631,-2.1039,-2.0516,-2.0366,-2.0124,-1.9839,-1.9762,-1.9705,-1.9705,-1.9705,-1.9705,-1.9705,-1.9705,-1.9654,-1.9566,-1.9369,-1.9281,-1.9169,-1.9058,-1.9118,-1.9169,-1.9207,-1.9207,-1.9095,-1.8893,-1.8703,-1.8419,-1.7973,-1.7504,-1.7105,-1.668,-1.6607,-1.6565,-1.6607,-1.6565,-1.6534,-1.6534,-1.6534,-1.6534,-1.6534,-1.6534,-4.0734,-4.0156,-3.9297,-3.8457,-3.7578,-3.6699,-3.623,-3.6016,-3.5976,-3.5976,-3.5957,-3.593,-3.5893,-3.586,-3.5827,-3.5476,-3.4797,-3.3877,-3.2938,-3.2018,-3.0956,-3.0513,-3.0561,-3.018,-2.9893,-2.9829,-2.9765,-2.9661,-2.9625,-2.9696,-2.9712,-2.9696,-2.9729,-2.9712,-2.9696,-2.9693,-2.9678,-2.9644,-2.9626,-2.957,-2.9514,-2.9495,-2.9436,-2.933,-2.9435,-2.8857,-2.7697,-2.6525,-2.543,-2.4337,-2.4132,-2.4092,-2.4165,-2.3992,-2.3876,-2.3837,-2.3674,-2.3526,-2.3392,-2.3189,-2.2923,-2.2652,-2.2563,-2.2517,-2.231,-2.2327,-2.2327,-2.2327,-2.2327,-2.2327,-2.2327,-2.2327,-2.2327,-2.2271,-2.2006,-2.1673,-2.1214,-2.0699,-2.0246,-2.0124,-1.9874,-1.9726,-1.9705,-1.9705,-1.9705,-1.9705,-1.9705,-1.9705,-1.9654,-1.9639,-1.953,-1.9566,-1.953,-1.9566,-1.9603,-1.9654,-1.9654,-1.9566,-1.9479,-1.9406,-1.908,-1.8765,-1.8327,-1.7894,-1.7188,-1.6951,-1.6837,-1.6837,-1.6723,-1.6534,-1.6534,-1.6534,-1.6534,-1.6534,-1.6534,-4.0485,-3.9758,-3.8879,-3.8044,-3.7226,-3.6367,-3.6016,-3.6016,-3.6016,-3.6016,-3.6016,-3.6016,-3.5976,-3.5945,-3.591,-3.5635,-3.5007,-3.4112,-3.3231,-3.238,-3.1458,-3.0844,-3.0494,-3.0228,-3.0103,-3.0013,-3.0007,-2.9908,-2.988,-2.9927,-2.9802,-2.9588,-2.9821,-2.9821,-2.947,-2.984,-2.9927,-2.9845,-2.9829,-2.9796,-2.9713,-2.9696,-2.9643,-2.9551,-2.9605,-2.9098,-2.7751,-2.6176,-2.4976,-2.4358,-2.419,-2.419,-2.419,-2.419,-2.419,-2.419,-2.4016,-2.3855,-2.3692,-2.3522,-2.3259,-2.2972,-2.2797,-2.2669,-2.2552,-2.2422,-2.2327,-2.2327,-2.2327,-2.2327,-2.2327,-2.2327,-2.2327,-2.2299,-2.232,-2.2099,-2.1675,-2.1007,-2.0534,-2.028,-1.998,-1.9726,-1.9726,-1.9741,-1.9705,-1.9705,-1.9705,-1.9705,-1.969,-1.9705,-1.9705,-1.9705,-1.9705,-1.969,-1.969,-1.969,-1.9705,-1.969,-1.969,-1.969,-1.9479,-1.9169,-1.865,-1.8092,-1.7626,-1.7271,-1.7105,-1.6879,-1.6637,-1.6534,-1.6534,-1.6534,-1.6534,-1.6534,-1.6534,-4.0234,-3.9481,-3.8604,-3.7831,-3.7049,-3.6328,-3.5996,-3.6016,-3.6016,-3.6016,-3.6016,-3.6016,-3.5996,-3.5976,-3.5925,-3.5793,-3.5458,-3.4447,-3.3725,-3.2895,-3.2147,-3.1536,-3.0775,-3.0898,-3.0676,-3.0442,-3.0465,-3.0318,-3.0194,-3.0286,-2.9982,-2.9709,-3.0105,-2.9963,-2.9678,-3.0028,-3.0216,-3.0075,-3.0028,-2.9988,-2.9899,-2.9848,-2.9815,-2.9729,-2.9729,-2.8931,-2.7478,-2.6046,-2.4989,-2.4303,-2.4247,-2.4247,-2.4228,-2.4191,-2.419,-2.419,-2.417,-2.4036,-2.3816,-2.3756,-2.3588,-2.33,-2.2996,-2.2789,-2.2816,-2.2624,-2.2497,-2.2449,-2.2349,-2.2349,-2.2327,-2.2327,-2.2327,-2.2327,-2.2316,-2.2077,-2.1718,-2.1306,-2.0894,-2.0483,-2.007,-1.9818,-1.9747,-1.9726,-1.9705,-1.9705,-1.9705,-1.9705,-1.9705,-1.9705,-1.9705,-1.9705,-1.9705,-1.9705,-1.9705,-1.9705,-1.9705,-1.969,-1.969,-1.9654,-1.9442,-1.908,-1.8574,-1.8171,-1.8145,-1.7747,-1.7146,-1.6921,-1.668,-1.6534,-1.6534,-1.6534,-1.6534,-1.6534,-1.6534,-3.9256,-3.8533,-3.7683,-3.6884,-3.6225,-3.6013,-3.5968,-3.5996,-3.6016,-3.5996,-3.5996,-3.5996,-3.5976,-3.6016,-3.582,-3.5292,-3.4219,-3.3763,-3.3063,-3.2324,-3.2804,-3.2326,-3.1787,-3.2,-3.1885,-3.1418,-3.1347,-3.1001,-3.0515,-3.0336,-3.0302,-3.016,-3.016,-3.0283,-3.0102,-3.0129,-3.0379,-3.0311,-3.0292,-3.0267,-3.0209,-3.0144,-3.0032,-2.9897,-2.9844,-2.906,-2.7856,-2.7203,-2.6276,-2.5129,-2.4545,-2.4388,-2.4263,-2.4211,-2.4209,-2.419,-2.419,-2.417,-2.4094,-2.4036,-2.3955,-2.3649,-2.3477,-2.3333,-2.2928,-2.2979,-2.2892,-2.2816,-2.2677,-2.2473,-2.2338,-2.2327,-2.2327,-2.2327,-2.2282,-2.2265,-2.2089,-2.1735,-2.1383,-2.1165,-2.0634,-2.0158,-2.0158,-1.9909,-1.9818,-1.9762,-1.9726,-1.9741,-1.9726,-1.9726,-1.9726,-1.9762,-1.9818,-1.9818,-1.9705,-1.9705,-1.9705,-1.9705,-1.9705,-1.9705,-1.9493,-1.9369,-1.8968,-1.8893,-1.8907,-1.8341,-1.7544,-1.7188,-1.6993,-1.6765,-1.6522,-1.6534,-1.6534,-1.6534,-1.6534,-3.9247,-3.819,-3.7713,-3.6856,-3.5894,-3.5807,-3.5857,-3.5947,-3.5968,-3.5973,-3.5879,-3.5605,-3.5605,-3.5879,-3.5156,-3.4355,-3.4043,-3.3513,-3.2848,-3.2333,-3.2789,-3.3087,-3.2996,-3.2736,-3.2333,-3.1371,-3.1525,-3.1179,-3.0609,-3.0352,-3.016,-2.989,-3.0179,-2.9821,-2.9563,-3.0006,-3.011,-2.9917,-3.0217,-3.0398,-3.0379,-2.9987,-2.9752,-2.9494,-2.9238,-2.853,-2.7814,-2.6857,-2.6362,-2.5806,-2.5153,-2.4613,-2.4402,-2.4284,-2.4209,-2.419,-2.419,-2.419,-2.419,-2.419,-2.4132,-2.3937,-2.3795,-2.3685,-2.3369,-2.3242,-2.2958,-2.2868,-2.2685,-2.2436,-2.2338,-2.2327,-2.2327,-2.2327,-2.2327,-2.2327,-2.2237,-2.1899,-2.1612,-2.1491,-2.1007,-2.0567,-2.0314,-2.0227,-1.998,-1.9889,-2.0015,-2.0015,-1.9818,-1.9818,-1.9818,-1.9854,-1.9965,-1.9929,-1.9762,-1.9705,-1.9705,-1.9705,-1.9705,-1.9705,-1.9617,-1.9566,-1.9515,-1.9369,-1.9095,-1.8703,-1.8013,-1.7666,-1.7312,-1.7034,-1.6837,-1.665,-1.6534,-1.6534,-1.6534,-3.9248,-3.787,-3.7754,-3.691,-3.5811,-3.5682,-3.5755,-3.5869,-3.5873,-3.5896,-3.5801,-3.5058,-3.5156,-3.5332,-3.418,-3.3906,-3.3867,-3.3574,-3.2669,-3.2553,-3.2955,-3.3406,-3.3588,-3.3132,-3.2143,-3.0709,-3.1334,-3.1199,-3.0642,-3.0398,-3.015,-2.9608,-3.0025,-2.989,-2.9063,-2.9544,-3.014,-2.9717,-3.0121,-3.0398,-3.034,-2.9813,-2.9514,-2.9398,-2.9041,-2.8426,-2.7811,-2.685,-2.611,-2.6621,-2.5627,-2.5004,-2.4673,-2.4446,-2.4266,-2.4321,-2.4339,-2.4339,-2.4284,-2.4266,-2.4228,-2.419,-2.3958,-2.3925,-2.3891,-2.3522,-2.3194,-2.29,-2.2738,-2.2426,-2.2377,-2.2338,-2.231,-2.2327,-2.2327,-2.2327,-2.2254,-2.1945,-2.1794,-2.1688,-2.1399,-2.1007,-2.0797,-2.0682,-2.033,-2.0085,-2.0227,-2.0261,-2.0035,-1.9909,-1.9874,-1.9818,-1.9874,-1.9909,-1.9762,-1.9726,-1.9726,-1.9705,-1.9705,-1.9705,-1.9705,-1.969,-1.9603,-1.9369,-1.9043,-1.8727,-1.8496,-1.8145,-1.7787,-1.7435,-1.7076,-1.685,-1.6693,-1.6522,-1.6534,-3.7829,-3.6876,-3.6221,-3.5801,-3.565,-3.5621,-3.5674,-3.5717,-3.5704,-3.5807,-3.5773,-3.4995,-3.4619,-3.4609,-3.3887,-3.3184,-3.2734,-3.2539,-3.2676,-3.2891,-3.3195,-3.3389,-3.3424,-3.3005,-3.2111,-3.1215,-3.1288,-3.1241,-3.0704,-3.0466,-3.0336,-3.0279,-3.0334,-3.0048,-2.9924,-3.0294,-3.0309,-2.9965,-3.0243,-3.0398,-3.034,-3.0224,-2.9993,-2.9974,-2.9655,-2.9028,-2.8093,-2.7574,-2.6928,-2.5726,-2.5225,-2.5037,-2.4974,-2.4827,-2.47,-2.4654,-2.4639,-2.4594,-2.4478,-2.4426,-2.4357,-2.4228,-2.4113,-2.4094,-2.4129,-2.4012,-2.3588,-2.3247,-2.2923,-2.2625,-2.2625,-2.2426,-2.231,-2.2327,-2.2327,-2.2327,-2.2282,-2.2209,-2.2106,-2.2049,-2.1735,-2.1399,-2.1181,-2.0975,-2.0748,-2.0499,-2.0483,-2.0398,-2.0139,-2.0015,-1.9909,-1.9818,-1.9747,-1.9762,-1.9705,-1.9726,-1.9762,-1.9741,-1.9705,-1.9705,-1.9705,-1.9705,-1.9617,-1.9442,-1.9369,-1.9244,-1.8968,-1.8626,-1.8224,-1.7787,-1.7394,-1.7047,-1.6837,-1.6637,-1.6534,-3.7488,-3.668,-3.6276,-3.5874,-3.5584,-3.5546,-3.5579,-3.5579,-3.52,-3.5274,-3.5143,-3.4111,-3.3785,-3.3951,-3.2687,-3.1813,-3.1699,-3.207,-3.2402,-3.2754,-3.2712,-3.2957,-3.2996,-3.2448,-3.187,-3.1344,-3.1304,-3.1067,-3.0639,-3.0568,-3.054,-3.0533,-3.0505,-3.0305,-3.0081,-3.0264,-3.0227,-3.0131,-3.0266,-3.0498,-3.049,-3.0498,-3.0363,-2.9986,-2.9796,-2.9139,-2.8184,-2.7372,-2.6871,-2.6072,-2.5463,-2.545,-2.5493,-2.5332,-2.4975,-2.4861,-2.4818,-2.4775,-2.4639,-2.4559,-2.4444,-2.4356,-2.4266,-2.4209,-2.4151,-2.3996,-2.3819,-2.3383,-2.3017,-2.2695,-2.2686,-2.2446,-2.2338,-2.2327,-2.2327,-2.2327,-2.2327,-2.2327,-2.2327,-2.2327,-2.2094,-2.1751,-2.1323,-2.115,-2.1039,-2.0943,-2.0813,-2.0583,-2.0311,-2.0311,-2.0277,-2.0104,-2.0035,-1.998,-1.9945,-1.9909,-1.9782,-1.9726,-1.9705,-1.9705,-1.9705,-1.9705,-1.9705,-1.9654,-1.9603,-1.9566,-1.9369,-1.902,-1.8574,-1.8131,-1.7666,-1.7284,-1.6993,-1.6795,-1.6607,-3.7238,-3.6469,-3.6469,-3.6089,-3.5545,-3.5295,-3.5258,-3.5151,-3.4389,-3.4409,-3.48,-3.3076,-3.275,-3.3165,-3.1991,-3.0777,-3.0913,-3.1621,-3.1934,-3.2148,-3.193,-3.2229,-3.241,-3.173,-3.1024,-3.1401,-3.1148,-3.071,-3.0685,-3.0638,-3.0608,-3.0617,-3.0598,-3.0333,-2.9991,-3.0341,-3.008,-3.008,-3.0197,-3.0586,-3.0606,-3.0586,-3.0333,-2.9652,-2.9375,-2.8885,-2.8043,-2.7213,-2.663,-2.614,-2.5736,-2.5601,-2.6063,-2.5668,-2.5179,-2.4949,-2.4896,-2.4869,-2.4799,-2.4727,-2.4604,-2.4478,-2.4339,-2.4266,-2.417,-2.3996,-2.3753,-2.3392,-2.3141,-2.2972,-2.2972,-2.2607,-2.2426,-2.2388,-2.2349,-2.2327,-2.2327,-2.2327,-2.2327,-2.2327,-2.2327,-2.2094,-2.1691,-2.1615,-2.1568,-2.1259,-2.1134,-2.1007,-2.0797,-2.0926,-2.0862,-2.0599,-2.0431,-2.0348,-2.028,-2.0193,-1.9965,-1.9726,-1.9726,-1.9705,-1.9705,-1.9705,-1.9705,-1.9705,-1.9705,-1.9617,-1.953,-1.9406,-1.9006,-1.8535,-1.7947,-1.7504,-1.719,-1.6811,-1.6565,-3.6392,-3.5647,-3.5628,-3.557,-3.5359,-3.468,-3.4347,-3.4257,-3.346,-3.3175,-3.3537,-3.2355,-3.1938,-3.1935,-3.1246,-3.0667,-3.073,-3.0902,-3.1424,-3.1877,-3.1443,-3.1582,-3.2129,-3.1366,-3.0917,-3.1113,-3.0937,-3.0878,-3.0796,-3.0704,-3.0687,-3.07,-3.0652,-3.0514,-3.0404,-3.0521,-3.0528,-3.0456,-3.0553,-3.0617,-3.0598,-3.0584,-3.0422,-3.0164,-2.9582,-2.8793,-2.7982,-2.7129,-2.6475,-2.5689,-2.5499,-2.5412,-2.5447,-2.5399,-2.5303,-2.5253,-2.5233,-2.5171,-2.4998,-2.4911,-2.4795,-2.4604,-2.4476,-2.4393,-2.4266,-2.417,-2.4054,-2.4075,-2.3735,-2.3459,-2.3282,-2.2947,-2.2721,-2.251,-2.2415,-2.2338,-2.2327,-2.2327,-2.2327,-2.2327,-2.2327,-2.2327,-2.2123,-2.2106,-2.2089,-2.1764,-2.1491,-2.1337,-2.1244,-2.1337,-2.1462,-2.1197,-2.091,-2.0813,-2.0765,-2.0634,-2.0348,-1.9945,-1.9818,-1.9833,-1.9818,-1.9818,-1.9705,-1.9705,-1.9705,-1.9705,-1.9654,-1.9493,-1.9332,-1.893,-1.8302,-1.7813,-1.7356,-1.697,-1.6522,-3.4918,-3.5032,-3.4671,-3.4542,-3.4442,-3.3774,-3.3468,-3.3295,-3.2602,-3.2505,-3.2651,-3.1551,-3.1043,-3.103,-3.0698,-3.0625,-3.0611,-3.0638,-3.112,-3.1592,-3.1227,-3.1214,-3.1663,-3.1194,-3.0742,-3.0729,-3.0723,-3.07,-3.0721,-3.08,-3.0796,-3.0795,-3.0767,-3.0762,-3.0718,-3.076,-3.076,-3.074,-3.078,-3.076,-3.0643,-3.0309,-3.0035,-2.9994,-2.9133,-2.8283,-2.7554,-2.7089,-2.6348,-2.5659,-2.544,-2.5447,-2.5434,-2.542,-2.5406,-2.5354,-2.5346,-2.5293,-2.5165,-2.5057,-2.4924,-2.4823,-2.4697,-2.4594,-2.441,-2.4266,-2.419,-2.419,-2.3896,-2.3671,-2.3437,-2.2979,-2.2686,-2.25,-2.2473,-2.2415,-2.2349,-2.2327,-2.2327,-2.2327,-2.2327,-2.2327,-2.2327,-2.2282,-2.2135,-2.1853,-2.1794,-2.1869,-2.1705,-2.1628,-2.1751,-2.1857,-2.1554,-2.1306,-2.1259,-2.1197,-2.0943,-2.0565,-2.0158,-2.0139,-2.0,-1.9965,-1.9854,-1.9726,-1.9705,-1.9705,-1.9705,-1.9654,-1.953,-1.9132,-1.8688,-1.8129,-1.7572,-1.6941,-1.6565,-3.3398,-3.4151,-3.4055,-3.3895,-3.3627,-3.3004,-3.2631,-3.2403,-3.1563,-3.159,-3.1821,-3.0968,-3.0458,-3.0463,-3.0543,-3.0556,-3.0552,-3.0561,-3.0944,-3.1126,-3.1067,-3.1006,-3.1173,-3.0831,-3.0617,-3.0606,-3.0628,-3.0623,-3.0667,-3.0726,-3.0771,-3.0832,-3.0772,-3.0774,-3.0814,-3.0818,-3.082,-3.0859,-3.0586,-3.0469,-3.0332,-2.9648,-2.9355,-2.8984,-2.8395,-2.7583,-2.7015,-2.6585,-2.6057,-2.5706,-2.5531,-2.5522,-2.5498,-2.5488,-2.5471,-2.5428,-2.5421,-2.5398,-2.5292,-2.5166,-2.5069,-2.4981,-2.4879,-2.4701,-2.4495,-2.4321,-2.419,-2.419,-2.4016,-2.3753,-2.3477,-2.3189,-2.3014,-2.2815,-2.2608,-2.2554,-2.248,-2.2436,-2.2409,-2.2453,-2.2415,-2.2327,-2.2327,-2.2327,-2.218,-2.1928,-2.2003,-2.2254,-2.2152,-2.1928,-2.1974,-2.2094,-2.1991,-2.1675,-2.1538,-2.146,-2.1306,-2.115,-2.0715,-2.0416,-2.028,-2.0089,-1.9945,-1.9854,-1.9762,-1.9705,-1.9705,-1.9705,-1.969,-1.9295,-1.8893,-1.8352,-1.7786,-1.7063,-1.6595,-3.201,-3.2852,-3.4073,-3.4073,-3.3318,-3.2581,-3.1927,-3.1329,-3.0338,-3.0217,-3.0702,-3.0456,-3.0367,-3.0394,-3.0417,-3.0439,-3.0417,-3.0482,-3.0615,-3.0657,-3.0593,-3.0672,-3.075,-3.0685,-3.0581,-3.0581,-3.0568,-3.0575,-3.0594,-3.0607,-3.0617,-3.0623,-3.0667,-3.0628,-3.0648,-3.0707,-3.0786,-3.0664,-3.0234,-2.9785,-2.9503,-2.8899,-2.8355,-2.8133,-2.7556,-2.7012,-2.6933,-2.6268,-2.5834,-2.5586,-2.5601,-2.5587,-2.5547,-2.5543,-2.5511,-2.5489,-2.5503,-2.5465,-2.5367,-2.5292,-2.5175,-2.5031,-2.4908,-2.4789,-2.461,-2.4339,-2.4228,-2.4228,-2.4114,-2.4074,-2.3955,-2.3834,-2.3473,-2.3206,-2.293,-2.288,-2.2772,-2.2583,-2.2574,-2.2608,-2.25,-2.2349,-2.2327,-2.2327,-2.2327,-2.2106,-2.2077,-2.2327,-2.2327,-2.2152,-2.218,-2.2254,-2.2254,-2.2049,-2.1705,-2.1598,-2.1615,-2.1446,-2.1118,-2.0781,-2.0516,-2.028,-2.0035,-1.9909,-1.9818,-1.9762,-1.9705,-1.9705,-1.9654,-1.9457,-1.902,-1.8288,-1.7666,-1.6976,-1.6663,-3.1127,-3.1905,-3.245,-3.2583,-3.2381,-3.1676,-3.0976,-3.0307,-2.988,-2.9782,-2.9992,-3.0095,-3.0169,-3.0196,-3.0336,-3.0398,-3.039,-3.0417,-3.043,-3.0441,-3.0472,-3.0472,-3.0472,-3.0453,-3.0463,-3.0453,-3.0453,-3.0472,-3.0482,-3.0453,-3.0492,-3.05,-3.0467,-3.06,-3.0623,-3.0608,-3.0642,-3.04,-2.9923,-2.9441,-2.9149,-2.8076,-2.7362,-2.7293,-2.6513,-2.6116,-2.6022,-2.5824,-2.5658,-2.5604,-2.5624,-2.5619,-2.5629,-2.5607,-2.5579,-2.5564,-2.5561,-2.5535,-2.5457,-2.5386,-2.5301,-2.5222,-2.5133,-2.4993,-2.4785,-2.4465,-2.4317,-2.4284,-2.4284,-2.4209,-2.3878,-2.3774,-2.3584,-2.3397,-2.331,-2.3247,-2.3112,-2.2926,-2.2778,-2.2865,-2.2598,-2.231,-2.2327,-2.2327,-2.2327,-2.2282,-2.2299,-2.2327,-2.2327,-2.2327,-2.2327,-2.2327,-2.2327,-2.2327,-2.1974,-2.1945,-2.1945,-2.1751,-2.1524,-2.1244,-2.0894,-2.0416,-2.0193,-2.0035,-1.9874,-1.9818,-1.9762,-1.9726,-1.9654,-1.9545,-1.8869,-1.7907,-1.7338,-1.6888,-1.6675,-3.0118,-3.0856,-3.0856,-3.1048,-3.1255,-3.0872,-3.0263,-2.9683,-2.9532,-2.9551,-2.9607,-2.962,-2.9715,-2.9855,-2.9857,-3.0043,-3.0036,-3.003,-3.0075,-3.0043,-2.9973,-3.0069,-3.0062,-2.9972,-2.9813,-3.0048,-2.9908,-2.9813,-3.0163,-3.0202,-3.0182,-3.0132,-3.0072,-3.0066,-3.0537,-3.0554,-3.0367,-2.9788,-2.938,-2.8765,-2.8415,-2.7225,-2.6417,-2.6378,-2.5839,-2.5658,-2.5628,-2.5574,-2.5584,-2.5579,-2.5613,-2.5661,-2.5683,-2.5683,-2.5662,-2.5658,-2.5631,-2.5581,-2.552,-2.5453,-2.5383,-2.533,-2.5275,-2.5175,-2.4956,-2.4676,-2.4682,-2.4538,-2.4461,-2.4248,-2.3984,-2.4042,-2.4002,-2.3886,-2.3717,-2.3653,-2.3526,-2.3374,-2.3212,-2.3135,-2.2824,-2.2624,-2.2637,-2.2681,-2.2479,-2.2417,-2.2327,-2.2327,-2.2327,-2.2327,-2.2327,-2.2327,-2.2327,-2.2327,-2.2282,-2.2197,-2.2123,-2.2106,-2.1869,-2.1705,-2.1352,-2.0862,-2.055,-2.0449,-2.0296,-1.998,-1.9889,-1.9854,-1.9797,-1.9705,-1.8884,-1.8028,-1.7406,-1.6986,-1.6744,-2.8871,-2.9602,-2.9602,-2.9784,-3.0057,-3.0233,-2.9921,-2.9409,-2.9181,-2.9203,-2.9302,-2.8891,-2.9051,-2.9423,-2.9193,-2.915,-2.9452,-2.9276,-2.9212,-2.9319,-2.9055,-2.919,-2.9279,-2.9207,-2.9254,-2.9425,-2.9247,-2.92,-2.9649,-2.9431,-2.9493,-2.9361,-2.9022,-2.9096,-3.0248,-3.0424,-2.9671,-2.8446,-2.8287,-2.7731,-2.7219,-2.6314,-2.5771,-2.5615,-2.5557,-2.5465,-2.5451,-2.5473,-2.5489,-2.5503,-2.5564,-2.5601,-2.5603,-2.5658,-2.5683,-2.5684,-2.5684,-2.5661,-2.5601,-2.5468,-2.5415,-2.5383,-2.5322,-2.5217,-2.5106,-2.5042,-2.5012,-2.4771,-2.4712,-2.4716,-2.4636,-2.454,-2.4389,-2.4229,-2.4057,-2.3958,-2.3837,-2.3613,-2.3441,-2.3417,-2.3289,-2.3153,-2.314,-2.3067,-2.2794,-2.2596,-2.2372,-2.2338,-2.2405,-2.2377,-2.2415,-2.2415,-2.2398,-2.2366,-2.2366,-2.231,-2.2282,-2.2282,-2.2209,-2.2003,-2.1794,-2.143,-2.1165,-2.0991,-2.0698,-2.0379,-2.0174,-2.0,-1.9874,-1.9726,-1.9168,-1.84,-1.7692,-1.7083,-1.6786,-2.7496,-2.7745,-2.7745,-2.753,-2.7475,-2.9387,-2.9821,-2.9185,-2.9044,-2.9062,-2.8993,-2.8482,-2.8708,-2.897,-2.8409,-2.8168,-2.8666,-2.8168,-2.8058,-2.808,-2.79,-2.8339,-2.8523,-2.8604,-2.8791,-2.9242,-2.8957,-2.8431,-2.8879,-2.851,-2.8183,-2.7972,-2.7902,-2.7956,-2.8412,-2.884,-2.8917,-2.8482,-2.7943,-2.7334,-2.7296,-2.6165,-2.5354,-2.5302,-2.5335,-2.5352,-2.5348,-2.5394,-2.5402,-2.5421,-2.5489,-2.5539,-2.5524,-2.5567,-2.5598,-2.5629,-2.5634,-2.5641,-2.5623,-2.557,-2.5479,-2.5421,-2.5352,-2.5293,-2.5214,-2.5049,-2.4987,-2.4955,-2.4883,-2.4799,-2.4575,-2.4526,-2.4408,-2.4247,-2.4133,-2.4133,-2.4036,-2.3705,-2.3498,-2.3652,-2.3638,-2.3383,-2.3281,-2.3389,-2.3203,-2.2998,-2.2808,-2.2799,-2.2833,-2.2669,-2.2599,-2.2599,-2.2573,-2.2463,-2.2388,-2.247,-2.2415,-2.236,-2.2321,-2.2225,-2.2032,-2.1823,-2.1628,-2.1399,-2.1086,-2.0764,-2.0565,-2.033,-2.0015,-1.9675,-1.9213,-1.8528,-1.772,-1.7115,-1.6633,-2.6204,-2.6222,-2.6204,-2.6162,-2.6312,-2.8193,-2.8864,-2.8718,-2.8565,-2.8612,-2.865,-2.7696,-2.7687,-2.8067,-2.7547,-2.7112,-2.7733,-2.7188,-2.7018,-2.6962,-2.6808,-2.7226,-2.7566,-2.7641,-2.7643,-2.8203,-2.7941,-2.7455,-2.7774,-2.7324,-2.6969,-2.6781,-2.6714,-2.6493,-2.6849,-2.749,-2.8242,-2.7878,-2.7326,-2.7402,-2.6854,-2.5948,-2.5126,-2.5115,-2.5118,-2.513,-2.5194,-2.5245,-2.5299,-2.5348,-2.5415,-2.5451,-2.5457,-2.5484,-2.5526,-2.5554,-2.5587,-2.5603,-2.5622,-2.5625,-2.5547,-2.5503,-2.5414,-2.5367,-2.5337,-2.5226,-2.5154,-2.5088,-2.4993,-2.4904,-2.4785,-2.4727,-2.4588,-2.4442,-2.4393,-2.441,-2.4303,-2.4003,-2.3848,-2.3969,-2.394,-2.3688,-2.3512,-2.3562,-2.3617,-2.3445,-2.3289,-2.3277,-2.3248,-2.3038,-2.2898,-2.2873,-2.2873,-2.2807,-2.2747,-2.2747,-2.266,-2.2463,-2.2426,-2.2415,-2.2254,-2.2032,-2.1928,-2.1794,-2.146,-2.1181,-2.0959,-2.0698,-2.0364,-1.9914,-1.9398,-1.8636,-1.7733,-1.724,-1.6824,-2.5056,-2.5056,-2.5056,-2.5617,-2.6507,-2.6641,-2.7308,-2.816,-2.7543,-2.7822,-2.8617,-2.6009,-2.6095,-2.7181,-2.6228,-2.5949,-2.6272,-2.5982,-2.595,-2.6019,-2.5632,-2.6035,-2.6084,-2.597,-2.6337,-2.6282,-2.6117,-2.6101,-2.6463,-2.608,-2.5713,-2.5516,-2.543,-2.5208,-2.5541,-2.6263,-2.6992,-2.6811,-2.7218,-2.7039,-2.6375,-2.5423,-2.4977,-2.4902,-2.4902,-2.4949,-2.4993,-2.5034,-2.5122,-2.5216,-2.5327,-2.5376,-2.5408,-2.5446,-2.5488,-2.5508,-2.5508,-2.5551,-2.5601,-2.5613,-2.5624,-2.5581,-2.5547,-2.5488,-2.5408,-2.5368,-2.532,-2.5284,-2.5224,-2.5224,-2.5192,-2.5053,-2.4924,-2.4823,-2.4727,-2.4707,-2.4638,-2.4482,-2.4338,-2.4321,-2.4284,-2.4152,-2.4132,-2.4154,-2.4044,-2.4026,-2.3888,-2.3783,-2.3684,-2.3369,-2.3236,-2.323,-2.323,-2.3206,-2.3135,-2.3032,-2.2933,-2.2755,-2.2625,-2.259,-2.2409,-2.2304,-2.2203,-2.2056,-2.1836,-2.1598,-2.1275,-2.1007,-2.0731,-2.023,-1.9671,-1.9051,-1.8249,-1.7785,-1.732,-2.3903,-2.3903,-2.3903,-2.3773,-2.3725,-2.445,-2.5403,-2.6282,-2.6165,-2.6348,-2.6487,-2.5165,-2.5213,-2.6045,-2.4658,-2.4599,-2.455,-2.4428,-2.4118,-2.4118,-2.4313,-2.4545,-2.4716,-2.4877,-2.5213,-2.5344,-2.5201,-2.4792,-2.4836,-2.4639,-2.445,-2.42,-2.4233,-2.4057,-2.4413,-2.4993,-2.5409,-2.5891,-2.6583,-2.6427,-2.5935,-2.5145,-2.4877,-2.4746,-2.4746,-2.4766,-2.4823,-2.4855,-2.493,-2.5057,-2.5049,-2.5103,-2.533,-2.5341,-2.5361,-2.5428,-2.5482,-2.5535,-2.5593,-2.5601,-2.5615,-2.5644,-2.562,-2.557,-2.5513,-2.5447,-2.5439,-2.5406,-2.5348,-2.5311,-2.5255,-2.5143,-2.5053,-2.4975,-2.4902,-2.4842,-2.4779,-2.4695,-2.4578,-2.4561,-2.4528,-2.453,-2.4532,-2.4547,-2.4468,-2.4545,-2.4495,-2.4332,-2.4155,-2.3848,-2.3638,-2.3635,-2.3592,-2.3592,-2.3346,-2.3206,-2.3159,-2.3063,-2.2947,-2.2848,-2.2789,-2.2695,-2.25,-2.2337,-2.2181,-2.1878,-2.1521,-2.1275,-2.1118,-2.0483,-1.9899,-1.9346,-1.8846,-1.8341,-1.7754,-2.2953,-2.297,-2.297,-2.2699,-2.2479,-2.3136,-2.3857,-2.4313,-2.4761,-2.5155,-2.5417,-2.4257,-2.4247,-2.4875,-2.3934,-2.3543,-2.388,-2.3643,-2.3389,-2.3407,-2.3165,-2.3579,-2.3832,-2.395,-2.4164,-2.4311,-2.4258,-2.3922,-2.3766,-2.356,-2.3387,-2.3531,-2.3277,-2.3437,-2.3826,-2.4195,-2.4388,-2.4785,-2.5208,-2.5486,-2.5316,-2.4901,-2.4673,-2.4559,-2.4559,-2.4572,-2.4636,-2.4636,-2.4752,-2.4891,-2.4889,-2.4945,-2.5111,-2.5088,-2.5095,-2.5168,-2.5224,-2.5302,-2.5376,-2.5469,-2.5554,-2.5601,-2.5611,-2.5562,-2.5542,-2.5492,-2.5479,-2.5447,-2.5394,-2.5332,-2.5254,-2.5166,-2.5118,-2.5082,-2.5006,-2.494,-2.4865,-2.4804,-2.479,-2.479,-2.4794,-2.4779,-2.4794,-2.4818,-2.4799,-2.4757,-2.4728,-2.4663,-2.4535,-2.4385,-2.4174,-2.4099,-2.4041,-2.3983,-2.372,-2.3504,-2.3482,-2.3437,-2.3346,-2.3253,-2.3183,-2.3038,-2.2832,-2.2678,-2.252,-2.222,-2.1878,-2.1764,-2.1524,-2.0846,-2.0314,-1.9954,-1.9471,-1.8827,-1.819,-2.2197,-2.2185,-2.2197,-2.2157,-2.2236,-2.2457,-2.2468,-2.2293,-2.3271,-2.4295,-2.4716,-2.345,-2.3293,-2.3849,-2.3288,-2.3049,-2.3182,-2.3042,-2.2982,-2.3093,-2.3007,-2.313,-2.3095,-2.3105,-2.3119,-2.3095,-2.3,-2.2816,-2.295,-2.2788,-2.2694,-2.3076,-2.2954,-2.3052,-2.3371,-2.3565,-2.3684,-2.3631,-2.3961,-2.4252,-2.4505,-2.4358,-2.4132,-2.4113,-2.4134,-2.4173,-2.432,-2.4442,-2.4543,-2.4685,-2.4783,-2.4768,-2.4756,-2.4752,-2.4766,-2.4823,-2.4905,-2.4988,-2.511,-2.5216,-2.5337,-2.5393,-2.5459,-2.5444,-2.5422,-2.5469,-2.5471,-2.5488,-2.5435,-2.5414,-2.5335,-2.5325,-2.5288,-2.5245,-2.5168,-2.5097,-2.5023,-2.4996,-2.5005,-2.5005,-2.501,-2.501,-2.5003,-2.5038,-2.5038,-2.4941,-2.4905,-2.491,-2.4891,-2.4799,-2.4659,-2.4505,-2.4355,-2.4247,-2.4154,-2.3979,-2.3899,-2.3837,-2.3696,-2.3631,-2.3544,-2.3346,-2.3135,-2.294,-2.2738,-2.2563,-2.2337,-2.2056,-2.1688,-2.1275,-2.0813,-2.0616,-2.0089,-1.9332,-1.8616,-2.1323,-2.1291,-2.1323,-2.1323,-2.1324,-2.1375,-2.1391,-2.1323,-2.1577,-2.2291,-2.288,-2.2658,-2.2511,-2.273,-2.2637,-2.2473,-2.2473,-2.2483,-2.2508,-2.249,-2.2473,-2.2439,-2.2402,-2.2224,-2.2074,-2.1874,-2.174,-2.1707,-2.1766,-2.1736,-2.1852,-2.2272,-2.2235,-2.2317,-2.2912,-2.305,-2.2771,-2.2721,-2.2822,-2.3179,-2.3543,-2.3578,-2.3437,-2.3459,-2.3504,-2.3526,-2.3681,-2.3821,-2.3985,-2.4155,-2.4284,-2.4353,-2.434,-2.4393,-2.4561,-2.4704,-2.4588,-2.4657,-2.4822,-2.4968,-2.5043,-2.5106,-2.517,-2.5246,-2.5307,-2.5398,-2.5447,-2.5467,-2.5469,-2.5457,-2.5459,-2.5445,-2.5443,-2.5383,-2.5323,-2.5248,-2.5161,-2.5206,-2.5226,-2.5226,-2.5216,-2.5215,-2.5232,-2.5241,-2.5262,-2.5245,-2.5215,-2.5203,-2.5207,-2.5129,-2.4965,-2.4788,-2.4556,-2.4461,-2.441,-2.4357,-2.4248,-2.4116,-2.3981,-2.3921,-2.3899,-2.3738,-2.3552,-2.3165,-2.2915,-2.2807,-2.2546,-2.2022,-2.1655,-2.1488,-2.107,-2.0781,-2.0296,-1.9639,-1.8907,-2.1007,-2.0959,-2.0764,-2.0829,-2.0926,-2.0797,-2.0797,-2.0975,-2.1007,-2.126,-2.1691,-2.1721,-2.1738,-2.1738,-2.1721,-2.1751,-2.1751,-2.1721,-2.1705,-2.1721,-2.1781,-2.1705,-2.1584,-2.1477,-2.1413,-2.1244,-2.115,-2.1055,-2.0942,-2.1055,-2.1336,-2.1562,-2.1475,-2.1639,-2.2218,-2.2003,-2.2036,-2.2186,-2.1989,-2.2241,-2.2772,-2.2989,-2.3165,-2.3189,-2.3189,-2.3165,-2.3236,-2.3392,-2.3508,-2.3623,-2.3699,-2.3723,-2.3737,-2.3775,-2.3969,-2.4173,-2.4243,-2.4325,-2.4557,-2.4699,-2.4746,-2.4832,-2.4919,-2.5009,-2.513,-2.5219,-2.5362,-2.5379,-2.5471,-2.5467,-2.5448,-2.5426,-2.5442,-2.5395,-2.5371,-2.5323,-2.5343,-2.5395,-2.5401,-2.5369,-2.5363,-2.5313,-2.5309,-2.5282,-2.5297,-2.5282,-2.5293,-2.5318,-2.5343,-2.5344,-2.5216,-2.5091,-2.4847,-2.4689,-2.4623,-2.4575,-2.4526,-2.4389,-2.4247,-2.4266,-2.4247,-2.4136,-2.3963,-2.3577,-2.331,-2.3159,-2.2805,-2.2317,-2.2169,-2.2113,-2.1516,-2.0878,-2.0398,-1.9874,-1.9229,-2.0797,-2.078,-2.0382,-2.0465,-2.0731,-2.0416,-2.0416,-2.0764,-2.0797,-2.0797,-2.0829,-2.0829,-2.0862,-2.0991,-2.1007,-2.1007,-2.1071,-2.1229,-2.1134,-2.1103,-2.1103,-2.1229,-2.1166,-2.0959,-2.0862,-2.0797,-2.0698,-2.0698,-2.0665,-2.0698,-2.0698,-2.0862,-2.0926,-2.0959,-2.1055,-2.1199,-2.1451,-2.1552,-2.1559,-2.1681,-2.2186,-2.273,-2.2865,-2.2972,-2.3045,-2.3045,-2.3003,-2.3093,-2.3093,-2.3189,-2.3241,-2.3181,-2.3158,-2.3186,-2.3406,-2.3602,-2.3689,-2.3891,-2.4192,-2.44,-2.4516,-2.4629,-2.4697,-2.478,-2.486,-2.4981,-2.512,-2.5197,-2.5286,-2.544,-2.5402,-2.5427,-2.5428,-2.5428,-2.5403,-2.5393,-2.5453,-2.5504,-2.5481,-2.5446,-2.5434,-2.5377,-2.5347,-2.5332,-2.5312,-2.5292,-2.5312,-2.5349,-2.5359,-2.5339,-2.5278,-2.5232,-2.5124,-2.4985,-2.4873,-2.4785,-2.4708,-2.467,-2.454,-2.4591,-2.461,-2.4474,-2.4282,-2.4042,-2.3785,-2.3577,-2.3264,-2.2838,-2.2737,-2.2556,-2.1857,-2.1102,-2.055,-2.0054,-1.9543,-1.996,-1.9945,-1.9854,-1.9874,-1.9945,-1.9839,-1.9874,-1.9945,-1.9945,-1.996,-1.9945,-2.0015,-2.0277,-2.0959,-2.1007,-2.0942,-2.0812,-2.0845,-2.0975,-2.1007,-2.0731,-2.0862,-2.0748,-2.0265,-2.0193,-2.007,-1.9965,-1.9945,-1.9899,-1.9914,-2.0089,-2.0299,-2.0333,-2.0516,-2.091,-2.0974,-2.0926,-2.0991,-2.107,-2.1197,-2.1446,-2.1849,-2.2113,-2.2226,-2.2281,-2.2136,-2.2147,-2.2521,-2.2721,-2.2873,-2.293,-2.2737,-2.2611,-2.2555,-2.2803,-2.2944,-2.3029,-2.3147,-2.34,-2.3751,-2.3871,-2.393,-2.4026,-2.4298,-2.4393,-2.4467,-2.4568,-2.4636,-2.482,-2.5209,-2.5298,-2.5429,-2.5461,-2.5441,-2.5439,-2.5393,-2.5404,-2.539,-2.5371,-2.537,-2.5364,-2.5336,-2.5312,-2.5297,-2.5291,-2.5275,-2.5254,-2.5283,-2.5317,-2.5329,-2.5312,-2.532,-2.5308,-2.5221,-2.5082,-2.4936,-2.4853,-2.4855,-2.4842,-2.4845,-2.4831,-2.4756,-2.4567,-2.4351,-2.4155,-2.393,-2.3608,-2.337,-2.2902,-2.2626,-2.2,-2.1352,-2.083,-2.0333,-1.9919]},{"header":{"parameterUnit":"m.s-1","parameterCategory":1,"la1":31.0,"la2":29.5877,"lo1":-88.7671,"lo2":-86.6584,"dy":0.0162,"dx":0.0185,"nx":115,"ny":88,"refTime":"2023-09-22T00:00:00:Z","depth":0,"parameterNumber":3,"parameterNumberName":"V-component_of_WINDS"},"data":[0.0,0.0,0.0,0.0,0.0,0.0,0.0,0.0,0.0,0.0,0.0,0.0,0.0,0.0,0.0,0.0,0.0,0.0,0.0,0.0,0.0,0.0,0.0,0.0,0.0,0.0,0.0,0.0,0.0,0.0,0.0,0.0,0.0,0.0,0.0,0.0,0.0,0.0,0.0,0.0,0.0,0.0,0.0,0.0,0.0,0.0,0.0,0.0,0.0,0.0,0.0,0.0,0.0,0.0,0.0,0.0,0.0,0.0,0.0,0.0,0.0,0.0,0.0,0.0,0.0,0.0,0.0,0.0,0.0,0.0,0.0,0.0,0.0,0.0,0.0,0.0,0.0,0.0,0.0,0.0,0.0,0.0,0.0,0.0,0.0,0.0,0.0,0.0,0.0,0.0,0.0,0.0,0.0,0.0,0.0,0.0,0.0,0.0,0.0,0.0,0.0,0.0,0.0,0.0,0.0,0.0,0.0,0.0,0.0,0.0,0.0,0.0,0.0,0.0,0.0,0.0,0.0,0.0,0.0,0.0,0.0,0.0,0.0,0.0,0.0,0.0,0.0,0.0,0.0,0.0,0.0,0.0,0.0,0.0,0.0,0.0,0.0,0.0,0.0,0.0,0.0,0.0,0.0,0.0,0.0,0.0,0.0,0.0,0.0,0.0,0.0,0.0,0.0,0.0,0.0,0.0,0.0,0.0,0.0,0.0,0.0,0.0,0.0,0.0,0.0,0.0,0.0,0.0,0.0,0.0,0.0,0.0,0.0,0.0,0.0,0.0,0.0,0.0,0.0,0.0,0.0,0.0,0.0,0.0,0.0,0.0,0.0,0.0,0.0,0.0,0.0,0.0,0.0,0.0,0.0,0.0,0.0,0.0,0.0,0.0,0.0,0.0,0.0,0.0,0.0,0.0,0.0,0.0,0.0,0.0,0.0,0.0,0.0,0.0,0.0,0.0,0.0,0.0,0.0,0.0,0.0,0.0,0.0,0.0,0.0,0.0,0.0,0.0,0.0,0.0,0.0,0.0,0.0,0.0,0.0,0.0,0.0,0.0,0.0,0.0,0.0,0.0,0.0,0.0,0.0,0.0,0.0,0.0,0.0,0.0,0.0,0.0,0.0,0.0,0.0,0.0,0.0,0.0,0.0,0.0,0.0,0.0,0.0,0.0,0.0,0.0,0.0,0.0,0.0,0.0,0.0,0.0,0.0,0.0,0.0,0.0,0.0,0.0,0.0,0.0,0.0,0.0,0.0,0.0,0.0,0.0,0.0,0.0,0.0,0.0,0.0,0.0,0.0,0.0,0.0,0.0,0.0,0.0,0.0,0.0,0.0,0.0,0.0,0.0,0.0,0.0,0.0,0.0,0.0,0.0,0.0,0.0,0.0,0.0,0.0,0.0,0.0,0.0,0.0,0.0,0.0,0.0,0.0,0.0,0.0,0.0,0.0,0.0,0.0,0.0,0.0,0.0,0.0,0.0,0.0,0.0,0.0,0.0,0.0,0.0,0.0,0.0,0.0,0.0,0.0,0.0,0.0,0.0,0.0,0.0,0.0,0.0,0.0,0.0,0.0,0.0,0.0,0.0,0.0,0.0,0.0,0.0,0.0,0.0,0.0,0.0,0.0,0.0,0.0,0.0,0.0,0.0,0.0,0.0,0.0,0.0,0.0,0.0,0.0,0.0,0.0,0.0,0.0,0.0,0.0,0.0,0.0,0.0,0.0,0.0,0.0,0.0,0.0,0.0,0.0,0.0,0.0,0.0,0.0,0.0,0.0,0.0,0.0,0.0,0.0,0.0,0.0,0.0,0.0,0.0,0.0,0.0,0.0,0.0,0.0,0.0,0.0,0.0,0.0,0.0,0.0,0.0,0.0,0.0,0.0,0.0,0.0,0.0,0.0,0.0,0.0,0.0,0.0,0.0,0.0,0.0,0.0,0.0,0.0,0.0,0.0,0.0,0.0,0.0,0.0,0.0,0.0,0.0,0.0,0.0,0.0,0.0,0.0,0.0,0.0,0.0,0.0,0.0,0.0,0.0,0.0,0.0,0.0,0.0,0.0,0.0,0.0,0.0,0.0,0.0,0.0,0.0,0.0,0.0,0.0,0.0,0.0,0.0,0.0,0.0,0.0,0.0,0.0,0.0,0.0,0.0,0.0,0.0,0.0,0.0,0.0,0.0,0.0,0.0,0.0,0.0,0.0,0.0,0.0,0.0,0.0,0.0,0.0,0.0,0.0,0.0,0.0,0.0,0.0,0.0,0.0,0.0,0.0,0.0,0.0,0.0,0.0,0.0,0.0,0.0,0.0,0.0,0.0,0.0,0.0,0.0,0.0,0.0,0.0,0.0,0.0,0.0,0.0,0.0,0.0,0.0,0.0,0.0,0.0,0.0,0.0,0.0,0.0,0.0,0.0,0.0,0.0,0.0,0.0,0.0,0.0,0.0,0.0,0.0,0.0,0.0,0.0,0.0,0.0,0.0,0.0,0.0,0.0,0.0,0.0,0.0,0.0,0.0,0.0,0.0,0.0,0.0,0.0,0.0,0.0,0.0,0.0,0.0,0.0,0.0,0.0,0.0,0.0,0.0,0.0,0.0,0.0,0.0,0.0,0.0,0.0,0.0,0.0,0.0,0.0,0.0,0.0,0.0,0.0,0.0,0.0,0.0,0.0,0.0,0.0,0.0,0.0,0.0,0.0,0.0,0.0,0.0,0.0,0.0,0.0,0.0,0.0,0.0,0.0,0.0,0.0,0.0,0.0,0.0,0.0,0.0,0.0,0.0,0.0,0.0,0.0,0.0,0.0,0.0,0.0,0.0,0.0,0.0,0.0,0.0,0.0,0.0,0.0,0.0,0.0,0.0,0.0,0.0,0.0,0.0,0.0,0.0,0.0,0.0,0.0,0.0,0.0,0.0,0.0,0.0,0.0,0.0,0.0,0.0,0.0,0.0,0.0,0.0,0.0,0.0,0.0,0.0,0.0,0.0,0.0,0.0,0.0,0.0,0.0,0.0,0.0,0.0,0.0,0.0,0.0,0.0,0.0,0.0,0.0,0.0,0.0,0.0,0.0,0.0,0.0,0.0,0.0,0.0,0.0,0.0,0.0,0.0,0.0,0.0,0.0,0.0,0.0,0.0,0.0,0.0,0.0,0.0,0.0,0.0,0.0,0.0,0.0,0.0,0.0,0.0,0.0,0.0,0.0,0.0,0.0,0.0,0.0,0.0,0.0,0.0,0.0,0.0,0.0,0.0,0.0,0.0,0.0,0.0,0.0,0.0,0.0,0.0,0.0,0.0,0.0,0.0,0.0,0.0,0.0,0.0,0.0,0.0,0.0,0.0,0.0,0.0,0.0,0.0,0.0,0.0,0.0,0.0,0.0,0.0,0.0,0.0,0.0,0.0,0.0,0.0,0.0,0.0,0.0,0.0,0.0,0.0,0.0,0.0,0.0,0.0,0.0,0.0,0.0,0.0,0.0,0.0,0.0,0.0,0.0,0.0,0.0,0.0,0.0,0.0,0.0,0.0,0.0,0.0,0.0,0.0,0.0,0.0,0.0,0.0,0.0,0.0,0.0,0.0,0.0,0.0,0.0,0.0,0.0,0.0,0.0,0.0,0.0,0.0,0.0,0.0,0.0,0.0,0.0,0.0,0.0,0.0,0.0,0.0,0.0,0.0,0.0,0.0,0.0,0.0,0.0,0.0,0.0,0.0,0.0,0.0,0.0,0.0,0.0,0.0,0.0,0.0,0.0,0.0,0.0,0.0,0.0,0.0,0.0,0.0,0.0,0.0,0.0,0.0,0.0,0.0,0.0,0.0,0.0,0.0,0.0,0.0,0.0,0.0,0.0,0.0,0.0,0.0,0.0,0.0,0.0,0.0,0.0,0.0,0.0,0.0,0.0,0.0,0.0,0.0,0.0,0.0,0.0,0.0,0.0,0.0,0.0,0.0,0.0,0.0,0.0,0.0,0.0,0.0,0.0,0.0,0.0,0.0,0.0,0.0,0.0,0.0,0.0,0.0,0.0,0.0,0.0,0.0,0.0,0.0,0.0,0.0,0.0,0.0,0.0,0.0,0.0,0.0,0.0,0.0,0.0,0.0,0.0,0.0,0.0,0.0,0.0,0.0,0.0,0.0,0.0,0.0,0.0,0.0,0.0,0.0,0.0,0.0,0.0,0.0,0.0,0.0,0.0,0.0,0.0,0.0,0.0,0.0,0.0,0.0,0.0,0.0,0.0,0.0,0.0,0.0,0.0,0.0,0.0,0.0,0.0,0.0,-1.1232,0.0,0.0,0.0,0.0,0.0,0.0,0.0,0.0,0.0,0.0,0.0,0.0,0.0,0.0,0.0,0.0,0.0,0.0,0.0,0.0,0.0,0.0,0.0,0.0,0.0,0.0,0.0,0.0,0.0,0.0,0.0,0.0,0.0,0.0,0.0,0.0,0.0,0.0,0.0,0.0,0.0,0.0,0.0,0.0,0.0,0.0,0.0,0.0,0.0,0.0,0.0,0.0,0.0,0.0,0.0,0.0,0.0,0.0,0.0,0.0,0.0,0.0,0.0,0.0,0.0,0.0,0.0,0.0,0.0,0.0,0.0,0.0,0.0,0.0,0.0,0.0,0.0,0.0,0.0,0.0,0.0,0.0,0.0,0.0,0.0,0.0,0.0,0.0,0.0,0.0,0.0,0.0,0.0,0.0,0.0,0.0,0.0,0.0,0.0,0.0,0.0,0.0,0.0,0.0,0.0,0.0,0.0,0.0,0.0,0.0,0.7639,0.0284,-0.3136,-0.7466,-1.2837,0.0,0.0,0.0,0.0,0.0,0.0,0.0,0.0,0.0,0.0,0.0,0.0,0.0,0.0,0.0,0.0,0.0,0.0,0.0,0.0,0.0,0.0,0.0,0.0,0.0,0.0,0.0,0.0,0.0,0.0,0.0,0.0,0.0,0.0,0.0,0.0,0.0,0.0,0.0,0.0,0.0,0.0,0.0,0.0,0.0,0.0,0.0,0.0,0.0,0.0,0.0,0.0,0.0,0.0,0.0,0.0,0.0,0.0,0.0,0.0,0.0,0.0,0.0,0.0,0.0,0.0,0.0,0.0,0.0,0.0,0.0,0.0,0.0,0.0,0.0,0.0,0.0,0.0,0.0,0.0,0.0,0.0,0.0,0.0,0.0,0.0,0.0,0.0,0.0,0.0,0.0,0.0,0.0,0.0,0.0,0.0,0.0,0.0,0.0,0.0,0.0,0.0,0.0,0.0,0.0,0.0,0.0,0.0,0.0,0.0,0.0,0.0,-0.3436,-0.9102,-1.5784,0.0,0.0,0.0,0.0,0.0,0.0,0.0,0.0,0.0,0.0,0.0,0.0,0.0,0.0,0.0,0.0,0.0,0.0,0.0,0.0,0.0,0.0,0.0,0.0,0.0,0.0,0.0,0.0,0.0,0.0,0.0,0.0,0.0,0.0,0.0,0.0,0.0,0.0,0.0,0.0,0.0,0.0,0.0,0.0,0.0,0.0,0.0,0.0,0.0,0.0,0.0,0.0,0.0,0.0,0.0,0.0,0.0,0.0,0.0,0.0,0.0,0.0,0.0,0.0,0.0,0.0,0.0,0.0,0.0,0.0,0.0,0.0,0.0,0.0,0.0,0.0,0.0,0.0,0.0,0.0,0.0,0.0,0.0,0.0,0.0,0.0,0.0,0.0,0.0,0.0,0.0,0.0,0.0,0.0,0.0,0.0,0.0,0.0,0.0,0.0,0.0,0.0,0.0,0.0,0.0,0.0,0.0,0.0,0.0,0.0,0.8582,0.562,-0.8434,0.0,-2.1964,0.0,0.0,0.0,0.0,0.0,0.0,0.0,0.0,0.0,0.0,0.0,0.0,0.0,0.0,0.0,0.0,0.0,0.0,0.0,0.0,0.0,0.0,0.0,0.0,0.0,0.0,0.0,0.0,0.0,0.0,0.0,0.0,0.0,0.0,0.0,0.0,0.0,0.0,0.0,0.0,0.0,0.0,0.0,0.0,0.0,0.0,0.0,0.0,0.0,0.0,0.0,0.0,0.0,0.0,0.0,0.0,0.0,0.0,0.0,0.0,0.0,0.0,0.0,0.0,0.0,0.0,0.0,0.0,0.0,0.0,0.0,0.0,0.0,0.0,0.0,0.0,0.0,0.0,0.0,0.0,0.0,0.0,0.0,0.0,0.0,0.0,0.0,0.0,0.0,0.0,0.0,0.0,0.0,0.0,0.0,0.0,0.0,0.0,0.0,0.0,0.0,0.0,0.0,0.0,0.0,0.0,0.0,0.0,0.0,0.0,0.7448,0.0438,-1.2264,-1.9619,0.0,0.0,0.0,0.0,0.0,0.0,0.0,0.0,0.0,0.0,0.0,0.0,0.0,0.0,0.0,0.0,0.0,0.0,0.0,0.0,0.0,0.0,0.0,0.0,0.0,0.0,0.0,0.0,0.0,0.0,0.0,0.0,0.0,0.0,0.0,0.0,0.0,0.0,0.0,0.0,0.0,0.0,0.0,0.0,0.0,0.0,0.0,0.0,0.0,0.0,0.0,0.0,0.0,0.0,0.0,0.0,0.0,0.0,0.0,0.0,0.0,0.0,0.0,0.0,0.0,0.0,0.0,0.0,0.0,0.0,0.0,0.0,0.0,0.0,0.0,0.0,0.0,0.0,0.0,0.0,0.0,0.0,0.0,0.0,0.0,0.0,0.0,0.0,0.0,0.0,0.0,0.0,0.0,0.0,0.0,0.0,0.0,0.0,0.0,0.0,0.0,0.0,0.0,0.0,0.0,0.0,0.0,0.0,0.0,0.0,1.0776,0.3491,-0.7195,-1.5413,-1.986,-2.0342,0.0,0.0,0.0,0.0,0.0,0.0,0.0,0.0,0.0,0.0,0.0,0.0,0.0,0.0,0.0,0.0,0.0,0.0,0.0,0.0,0.0,0.0,0.0,0.0,0.0,0.0,0.0,0.0,0.0,0.0,0.0,0.0,0.0,0.0,0.0,0.0,0.0,0.0,0.0,0.0,0.0,0.0,0.0,0.0,0.0,0.0,0.0,0.0,0.0,0.0,0.0,0.0,0.0,0.0,0.0,0.0,0.0,0.0,0.0,0.0,0.0,0.0,0.0,0.0,0.0,0.0,0.0,0.0,0.0,0.0,0.0,0.0,0.0,0.0,0.0,0.0,0.0,0.0,0.0,0.0,0.0,0.0,0.0,0.0,0.0,0.0,0.0,0.0,0.0,0.0,0.0,0.0,0.0,0.0,0.0,0.0,0.0,0.0,0.0,0.0,0.0,0.0,0.0,0.0,0.0,0.0,0.0,0.0,1.3115,0.534,-0.4591,-1.6003,-1.7932,-1.9813,0.0,0.0,0.0,0.0,0.0,0.0,0.0,0.0,0.0,0.0,0.0,0.0,0.0,0.0,0.0,0.0,0.0,0.0,0.0,0.0,0.0,0.0,0.0,0.0,0.0,0.0,0.0,0.0,0.0,0.0,0.0,0.0,0.0,0.0,0.0,0.0,0.0,0.0,0.0,0.0,0.0,0.0,0.0,0.0,0.0,0.0,0.0,0.0,0.0,0.0,0.0,0.0,0.0,0.0,0.0,0.0,0.0,0.0,0.0,0.0,0.0,0.0,0.0,0.0,0.0,0.0,0.0,0.0,0.0,0.0,0.0,0.0,0.0,0.0,0.0,0.0,0.0,0.0,0.0,0.0,0.0,0.0,0.0,0.0,0.0,0.0,0.0,0.0,0.0,0.0,0.0,0.0,0.0,0.0,0.0,0.0,0.0,0.0,0.0,0.0,0.0,0.0,0.0,0.0,0.0,0.0,0.0,0.0,0.0,0.6774,-0.1901,-0.9776,-1.6302,-1.8498,-2.0497,0.0,0.0,0.0,0.0,0.0,0.0,0.0,0.0,0.0,0.0,0.0,0.0,0.0,0.0,0.0,0.0,0.0,0.0,0.0,0.0,0.0,0.0,0.0,0.0,0.0,0.0,0.0,0.0,0.0,0.0,0.0,0.0,0.0,0.0,0.0,0.0,0.0,0.0,0.0,0.0,0.0,0.0,0.0,0.0,0.0,0.0,0.0,0.0,0.0,0.0,0.0,0.0,0.0,0.0,0.0,0.0,0.0,0.0,0.0,0.0,0.0,0.0,0.0,0.0,0.0,0.0,0.0,0.0,0.0,0.0,0.0,0.0,0.0,0.0,0.0,0.0,0.0,0.0,0.0,0.0,0.0,0.0,0.0,0.0,0.0,0.0,0.0,0.0,0.0,0.0,0.0,0.0,0.0,0.0,0.0,0.0,0.0,0.0,0.0,0.0,0.0,0.0,0.0,0.0,0.0,0.0,0.0,0.0,0.0,-0.1271,0.0,-1.3644,-1.6936,-1.8792,-2.0406,0.0,0.0,0.0,0.0,0.0,0.0,0.0,0.0,0.0,0.0,0.0,0.0,0.0,0.0,0.0,0.0,0.0,0.0,0.0,0.0,0.0,0.0,0.0,0.0,0.0,0.0,0.0,0.0,0.0,0.0,0.0,0.0,0.0,0.0,0.0,0.0,0.0,0.0,0.0,0.0,0.0,0.0,0.0,0.0,0.0,0.0,0.0,0.0,0.0,0.0,0.0,0.0,0.0,0.0,0.0,0.0,0.0,0.0,0.0,0.0,0.0,0.0,0.0,0.0,0.0,0.0,0.0,0.0,0.0,0.0,0.0,0.0,0.0,0.0,0.0,0.0,0.0,0.0,0.0,0.0,0.0,0.0,0.0,0.0,0.0,0.0,0.0,0.0,0.0,0.0,0.0,0.0,0.0,0.0,0.0,0.0,0.0,0.0,0.0,0.0,0.0,0.0,0.0,0.0,0.0,0.0,0.0,0.0,-0.4677,-1.0849,-1.3372,-1.6069,-1.8835,-1.9126,-1.9555,0.0,0.0,0.0,0.0,0.0,0.0,0.0,0.0,0.0,0.0,0.0,0.0,0.0,0.0,0.0,0.0,0.0,0.0,0.0,0.0,0.0,0.0,0.0,0.0,0.0,0.0,0.0,0.0,0.0,0.0,0.0,0.0,0.0,0.0,0.0,0.0,0.0,0.0,0.0,0.0,0.0,0.0,0.0,0.0,0.0,0.0,0.0,0.0,0.0,0.0,0.0,0.0,0.0,0.0,0.0,0.0,0.0,0.0,0.0,0.0,0.0,0.0,0.0,0.0,0.0,0.0,0.0,0.0,0.0,0.0,0.0,0.0,0.0,0.0,0.0,0.0,0.0,0.0,0.0,0.0,0.0,0.0,0.0,0.0,0.0,0.0,0.0,0.0,0.0,0.0,0.0,0.0,0.0,0.0,0.0,0.0,0.0,0.0,0.0,0.0,0.0,0.0,0.0,0.0,0.0,0.0,0.0,0.0,0.0,-1.2833,-1.5149,-1.8233,-2.2048,-2.0425,-2.1142,0.0,0.0,0.0,0.0,0.0,0.0,0.0,0.0,0.0,0.0,0.0,0.0,0.0,0.0,0.0,0.0,0.0,0.0,0.0,0.0,0.0,0.0,0.0,0.0,0.0,0.0,0.0,0.0,0.0,0.0,0.0,0.0,0.0,0.0,0.0,0.0,0.0,0.0,0.0,0.0,0.0,0.0,0.0,0.0,0.0,0.0,0.0,0.0,0.0,0.0,0.0,0.0,0.0,0.0,0.0,0.0,0.0,0.0,0.0,0.0,0.0,0.0,0.0,0.0,0.0,0.0,0.0,0.0,0.0,0.0,0.0,0.0,0.0,0.0,0.0,0.0,0.0,0.0,0.0,0.0,0.0,0.0,0.0,0.0,0.0,0.0,0.0,0.0,0.0,0.0,0.0,0.0,0.0,0.0,0.0,0.0,0.0,0.0,0.0,0.0,0.0,0.0,0.0,0.0,0.0,0.0,0.0,0.0,0.0,-1.6542,-1.7933,-2.0129,-2.303,-2.1138,-2.1513,-2.4469,0.0,0.0,0.0,0.0,0.0,0.0,0.0,0.0,0.0,0.0,0.0,0.0,0.0,0.0,0.0,0.0,0.0,0.0,0.0,0.0,0.0,0.0,0.0,0.0,0.0,0.0,0.0,0.0,0.0,0.0,0.0,0.0,0.0,0.0,0.0,0.0,0.0,0.0,0.0,0.0,0.0,0.0,0.0,0.0,0.0,0.0,0.0,0.0,0.0,0.0,0.0,0.0,0.0,0.0,0.0,0.0,0.0,0.0,0.0,0.0,0.0,0.0,0.0,0.0,0.0,0.0,0.0,0.0,0.0,0.0,0.0,0.0,0.0,0.0,0.0,0.0,0.0,0.0,0.0,0.0,0.0,0.0,0.0,0.0,0.0,0.0,0.0,0.0,0.0,0.0,0.0,0.0,0.0,0.0,0.0,0.0,0.0,0.0,0.0,0.0,0.0,0.0,0.0,0.0,0.0,0.0,0.0,0.0,-2.1433,-2.1689,-2.2047,-2.2328,-2.1668,-2.1226,0.0,0.0,0.0,0.0,0.0,0.0,0.0,0.0,0.0,0.0,0.0,0.0,0.0,0.0,0.0,0.0,0.0,0.0,0.0,0.0,0.0,0.0,0.0,0.0,0.0,0.0,0.0,0.0,0.0,0.0,0.0,0.0,0.0,0.0,0.0,0.0,0.0,0.0,0.0,0.0,0.0,0.0,0.0,0.0,0.0,0.0,0.0,0.0,0.0,0.0,0.0,0.0,0.0,0.0,0.0,0.0,0.0,0.0,0.0,0.0,0.0,0.0,0.0,0.0,0.0,0.0,0.0,0.0,0.0,0.0,0.0,0.0,0.0,0.0,0.0,0.0,0.0,0.0,0.0,0.0,0.0,0.0,0.0,0.0,0.0,0.0,0.0,0.0,0.0,0.0,0.0,0.0,0.0,0.0,0.0,0.0,0.0,0.0,0.0,0.0,0.0,0.0,0.0,0.0,0.0,0.0,0.0,0.0,0.0,-2.4327,-2.6626,-2.7732,-2.7484,-2.5241,-2.44,0.0,0.0,0.0,0.0,0.0,0.0,0.0,0.0,0.0,0.0,0.0,0.0,0.0,0.0,0.0,0.0,0.0,0.0,0.0,0.0,0.0,0.0,0.0,0.0,0.0,0.0,0.0,0.0,0.0,0.0,0.0,0.0,0.0,0.0,0.0,0.0,0.0,0.0,0.0,0.0,0.0,0.0,0.0,0.0,0.0,0.0,0.0,0.0,0.0,0.0,0.0,0.0,0.0,0.0,0.0,0.0,0.0,0.0,0.0,0.0,0.0,0.0,0.0,0.0,0.0,0.0,0.0,0.0,0.0,0.0,0.0,0.0,0.0,0.0,0.0,0.0,0.0,0.0,0.0,0.0,0.0,0.0,0.0,0.0,0.0,0.0,0.0,0.0,0.0,0.0,0.0,0.0,0.0,0.0,0.0,0.0,0.0,0.0,0.0,0.0,0.0,0.0,0.0,0.0,0.0,0.0,0.0,0.0,-2.5077,-2.6833,-3.0459,-3.1884,-3.0837,-2.8561,-2.6734,0.0,0.0,0.0,0.0,0.0,0.0,0.0,0.0,0.0,0.0,0.0,0.0,0.0,0.0,0.0,0.0,0.0,0.0,0.0,0.0,0.0,0.0,0.0,0.0,0.0,0.0,0.0,0.0,0.0,0.0,0.0,0.0,0.0,0.0,0.0,0.0,0.0,0.0,0.0,0.0,0.0,0.0,0.0,0.0,0.0,0.0,0.0,0.0,0.0,0.0,0.0,0.0,0.0,0.0,0.0,0.0,0.0,0.0,0.0,0.0,0.0,0.0,0.0,0.0,0.0,0.0,0.0,0.0,0.0,0.0,0.0,0.0,0.0,0.0,0.0,0.0,0.0,0.0,0.0,0.0,0.0,0.0,0.0,0.0,0.0,0.0,0.0,0.0,0.0,0.0,0.0,0.0,0.0,0.0,0.0,0.0,0.0,0.0,0.0,0.0,0.0,0.0,0.0,0.0,0.0,0.0,0.0,0.0,-2.6923,-2.8876,-3.3045,-3.4397,-3.2557,-3.1039,-2.832,0.0,0.0,0.0,0.0,0.0,0.0,0.0,0.0,0.0,0.0,0.0,0.0,0.0,0.0,0.0,0.0,0.0,0.0,0.0,0.0,0.0,0.0,0.0,0.0,0.0,0.0,0.0,0.0,0.0,0.0,0.0,0.0,0.0,0.0,0.0,0.0,0.0,0.0,0.0,0.0,0.0,0.0,0.0,0.0,0.0,0.0,0.0,0.0,0.0,0.0,0.0,0.0,0.0,0.0,0.0,0.0,0.0,0.0,0.0,0.0,0.0,0.0,0.0,0.0,0.0,0.0,0.0,0.0,0.0,0.0,0.0,0.0,0.0,0.0,0.0,0.0,0.0,0.0,0.0,0.0,0.0,0.0,0.0,0.0,0.0,0.0,0.0,0.0,0.0,0.0,0.0,0.0,0.0,0.0,0.0,0.0,0.0,0.0,0.0,0.0,0.0,0.0,0.0,0.0,0.0,0.0,0.0,0.0,-2.7032,-2.9401,-3.2348,-3.3469,-3.2542,-3.0531,-2.8213,0.0,0.0,0.0,0.0,0.0,0.0,0.0,0.0,0.0,0.0,0.0,0.0,0.0,0.0,0.0,0.0,0.0,0.0,0.0,0.0,0.0,0.0,0.0,0.0,0.0,0.0,0.0,0.0,0.0,0.0,0.0,0.0,0.0,0.0,0.0,0.0,0.0,0.0,0.0,0.0,0.0,0.0,0.0,0.0,0.0,0.0,0.0,0.0,-1.6464,0.0,0.0,0.0,0.0,0.0,0.0,0.0,0.0,0.0,0.0,0.0,0.0,0.0,0.0,0.0,0.0,0.0,0.0,0.0,0.0,0.0,0.0,0.0,0.0,0.0,0.0,0.0,0.0,0.0,0.0,0.0,0.0,0.0,0.0,0.0,0.0,0.0,0.0,0.0,0.0,0.0,0.0,0.0,0.0,0.0,0.0,0.0,0.0,0.0,0.0,0.0,0.0,0.0,0.0,0.0,0.0,0.0,0.0,0.0,-2.7305,-3.0421,-3.2467,-3.3036,-3.2033,-2.9991,-2.8115,0.0,0.0,0.0,0.0,0.0,0.0,0.0,0.0,0.0,0.0,0.0,0.0,0.0,0.0,0.0,0.0,0.0,0.0,0.0,0.0,0.0,0.0,0.0,0.0,0.0,0.0,0.0,0.0,0.0,0.0,0.0,0.0,0.0,0.0,0.0,0.0,0.0,0.0,0.0,0.0,0.0,0.0,0.0,0.0,0.0,0.0,0.0,0.0,0.0,0.0,0.0,0.0,0.0,0.0,0.0,0.0,0.0,0.0,0.0,0.0,0.0,0.0,0.0,0.0,0.0,0.0,0.0,0.0,0.0,0.0,0.0,0.0,0.0,0.0,0.0,0.0,0.0,0.0,0.0,0.0,0.0,0.0,0.0,0.0,0.0,0.0,0.0,0.0,0.0,0.0,0.0,0.0,0.0,0.0,0.0,0.0,0.0,0.0,0.0,0.0,0.0,0.0,0.0,0.0,0.0,0.0,0.0,-2.4752,-2.7424,-3.1304,-3.2393,-3.2378,-3.1332,-2.9265,-2.7671,-2.6679,0.0,0.0,0.0,0.0,0.0,0.0,0.0,0.0,0.0,0.0,0.0,0.0,0.0,0.0,0.0,0.0,0.0,0.0,0.0,0.0,0.0,0.0,0.0,0.0,0.0,0.0,0.0,0.0,0.0,0.0,0.0,0.0,0.0,0.0,0.0,0.0,0.0,0.0,-1.9854,-2.0019,0.0,0.0,0.0,0.0,0.0,0.0,0.0,0.0,-1.7962,0.0,0.0,0.0,0.0,0.0,0.0,0.0,0.0,0.0,0.0,0.0,0.0,0.0,0.0,0.0,0.0,0.0,0.0,0.0,0.0,0.0,0.0,0.0,0.0,0.0,0.0,0.0,0.0,0.0,0.0,0.0,0.0,0.0,0.0,0.0,0.0,0.0,0.0,0.0,0.0,0.0,0.0,0.0,0.0,0.0,0.0,0.0,0.0,0.0,0.0,0.0,0.0,0.0,0.0,0.0,0.0,-2.5168,-2.4395,-2.6428,-3.1304,-3.0514,-3.0178,-3.0541,-2.7709,-2.5939,-2.5512,0.0,0.0,0.0,0.0,0.0,0.0,0.0,0.0,0.0,0.0,0.0,0.0,0.0,0.0,0.0,0.0,0.0,0.0,0.0,0.0,0.0,0.0,0.0,0.0,0.0,0.0,0.0,0.0,0.0,0.0,0.0,0.0,0.0,0.0,0.0,0.0,0.0,0.0,0.0,-2.1584,-2.2064,0.0,0.0,0.0,0.0,0.0,0.0,0.0,0.0,-1.8083,0.0,0.0,0.0,0.0,0.0,0.0,0.0,0.0,0.0,0.0,0.0,0.0,0.0,0.0,0.0,0.0,0.0,0.0,0.0,0.0,0.0,0.0,0.0,0.0,0.0,0.0,0.0,0.0,0.0,0.0,0.0,0.0,0.0,0.0,0.0,0.0,0.0,0.0,0.0,0.0,0.0,0.0,0.0,0.0,0.0,0.0,0.0,0.0,0.0,0.0,0.0,0.0,0.0,0.0,0.0,-2.3482,-2.4013,-2.5993,-2.9708,-2.9604,-2.9463,-2.9475,-2.6976,-2.5349,0.0,0.0,0.0,0.0,0.0,0.0,0.0,0.0,0.0,0.0,0.0,0.0,0.0,0.0,0.0,0.0,0.0,0.0,0.0,0.0,0.0,0.0,0.0,0.0,0.0,0.0,0.0,0.0,0.0,0.0,0.0,0.0,0.0,0.0,0.0,0.0,0.0,0.0,0.0,0.0,-2.2139,-2.2562,-2.2248,0.0,0.0,0.0,0.0,0.0,0.0,-2.0006,-1.9142,0.0,0.0,0.0,0.0,0.0,0.0,0.0,0.0,0.0,0.0,0.0,0.0,0.0,0.0,0.0,0.0,0.0,0.0,0.0,0.0,0.0,0.0,0.0,0.0,0.0,0.0,0.0,0.0,0.0,0.0,0.0,0.0,0.0,0.0,0.0,0.0,0.0,0.0,0.0,0.0,0.0,0.0,0.0,0.0,0.0,0.0,0.0,0.0,0.0,0.0,0.0,0.0,0.0,0.0,0.0,-2.1819,-2.3309,-2.5478,-2.8209,-2.8583,-2.8625,-2.8382,-2.6198,-2.4671,0.0,0.0,0.0,0.0,0.0,0.0,0.0,0.0,0.0,0.0,0.0,0.0,0.0,0.0,0.0,0.0,0.0,0.0,0.0,0.0,0.0,0.0,0.0,0.0,0.0,0.0,0.0,0.0,0.0,0.0,0.0,0.0,0.0,0.0,0.0,0.0,0.0,0.0,0.0,0.0,0.0,-2.337,-2.3116,-2.3176,0.0,0.0,0.0,0.0,-2.2165,-2.1715,0.0,0.0,0.0,0.0,0.0,0.0,0.0,0.0,0.0,0.0,0.0,0.0,0.0,0.0,0.0,0.0,0.0,0.0,0.0,0.0,0.0,0.0,0.0,0.0,0.0,0.0,0.0,0.0,0.0,0.0,0.0,0.0,0.0,0.0,0.0,0.0,0.0,0.0,0.0,0.0,0.0,0.0,0.0,0.0,0.0,0.0,0.0,0.0,0.0,0.0,0.0,0.0,0.0,0.0,0.0,0.0,-2.1779,-2.1872,-2.3979,-2.8081,-2.6624,-2.6372,-2.7599,-2.4642,-2.2978,0.0,0.0,0.0,0.0,0.0,0.0,0.0,0.0,0.0,0.0,0.0,0.0,0.0,0.0,0.0,0.0,0.0,0.0,0.0,0.0,0.0,0.0,0.0,0.0,0.0,0.0,0.0,0.0,0.0,0.0,0.0,0.0,0.0,0.0,0.0,0.0,0.0,0.0,0.0,0.0,0.0,-2.5719,-2.4552,-2.4896,-2.5031,0.0,0.0,-2.3452,-2.4071,-2.5125,0.0,0.0,0.0,0.0,0.0,0.0,0.0,0.0,0.0,0.0,0.0,0.0,0.0,0.0,0.0,0.0,0.0,0.0,0.0,0.0,0.0,0.0,0.0,0.0,0.0,0.0,0.0,0.0,0.0,0.0,0.0,0.0,0.0,0.0,0.0,0.0,0.0,0.0,0.0,0.0,0.0,0.0,0.0,0.0,0.0,0.0,0.0,0.0,0.0,0.0,0.0,0.0,0.0,0.0,0.0,-1.8481,-2.0643,-2.1732,-2.3541,-2.599,-2.6008,-2.6141,-2.641,-2.4,-2.2682,0.0,0.0,0.0,0.0,0.0,0.0,0.0,0.0,0.0,0.0,0.0,0.0,0.0,0.0,0.0,0.0,0.0,0.0,0.0,0.0,0.0,0.0,0.0,0.0,0.0,0.0,0.0,0.0,0.0,0.0,0.0,0.0,0.0,0.0,0.0,0.0,0.0,0.0,0.0,0.0,0.0,0.0,-2.4716,-2.5839,0.0,0.0,0.0,-2.5521,-2.6149,0.0,0.0,0.0,0.0,0.0,0.0,0.0,0.0,0.0,0.0,0.0,0.0,0.0,0.0,0.0,0.0,0.0,0.0,0.0,0.0,0.0,0.0,0.0,0.0,0.0,0.0,0.0,0.0,0.0,0.0,0.0,0.0,0.0,0.0,0.0,0.0,0.0,0.0,0.0,0.0,0.0,0.0,0.0,0.0,0.0,0.0,0.0,0.0,0.0,0.0,0.0,0.0,0.0,0.0,0.0,0.0,0.0,-1.9585,-2.1276,-2.2782,-2.4102,-2.5066,-2.5429,-2.5028,-2.3334,0.0,0.0,0.0,0.0,0.0,0.0,0.0,0.0,0.0,0.0,0.0,0.0,0.0,0.0,0.0,0.0,0.0,0.0,0.0,0.0,0.0,0.0,0.0,0.0,0.0,0.0,0.0,-1.7183,0.0,0.0,0.0,0.0,0.0,0.0,0.0,0.0,0.0,0.0,0.0,0.0,0.0,0.0,-2.5674,-2.5196,-2.6811,-2.7829,0.0,0.0,-2.7141,-2.734,-2.6527,-2.5345,0.0,0.0,0.0,0.0,0.0,0.0,0.0,0.0,0.0,0.0,0.0,0.0,0.0,0.0,0.0,0.0,0.0,0.0,0.0,0.0,0.0,0.0,0.0,0.0,0.0,0.0,0.0,0.0,0.0,0.0,0.0,0.0,0.0,0.0,0.0,0.0,0.0,0.0,0.0,0.0,0.0,0.0,0.0,0.0,0.0,0.0,0.0,0.0,0.0,0.0,0.0,0.0,0.0,0.0,0.0,-1.8995,-1.9687,-2.1224,-2.3502,-2.3156,-2.3126,-2.3658,-2.2446,-2.1485,0.0,0.0,0.0,0.0,0.0,0.0,0.0,0.0,0.0,0.0,0.0,0.0,0.0,0.0,0.0,0.0,0.0,0.0,0.0,0.0,0.0,0.0,0.0,0.0,0.0,0.0,0.0,0.0,0.0,0.0,0.0,0.0,0.0,0.0,0.0,0.0,0.0,0.0,0.0,0.0,0.0,-2.6497,-2.6467,-2.8173,-2.9205,0.0,0.0,-2.8053,-2.6856,-2.8113,-2.7964,-2.4208,0.0,0.0,0.0,0.0,0.0,0.0,0.0,0.0,0.0,0.0,0.0,0.0,0.0,0.0,0.0,0.0,0.0,0.0,0.0,0.0,0.0,0.0,0.0,0.0,0.0,0.0,0.0,0.0,0.0,0.0,0.0,0.0,0.0,0.0,0.0,0.0,0.0,0.0,0.0,0.0,0.0,0.0,0.0,0.0,0.0,0.0,0.0,0.0,0.0,0.0,0.0,0.0,0.0,-1.7564,-1.9007,-1.9641,-2.0893,-2.2803,-2.3117,-2.3173,-2.2905,-2.2132,-2.138,0.0,0.0,0.0,0.0,0.0,0.0,0.0,0.0,0.0,0.0,0.0,0.0,0.0,0.0,0.0,0.0,0.0,0.0,0.0,0.0,0.0,0.0,0.0,0.0,0.0,0.0,0.0,0.0,-1.7028,-1.6752,-1.6509,0.0,0.0,0.0,0.0,0.0,0.0,0.0,0.0,0.0,0.0,-2.5904,-2.7081,-2.8577,0.0,0.0,-2.8667,-2.8742,-2.741,-2.75,-2.6946,-2.4597,-2.3655,0.0,0.0,0.0,0.0,0.0,0.0,0.0,0.0,0.0,0.0,0.0,0.0,0.0,0.0,0.0,0.0,0.0,0.0,0.0,0.0,0.0,0.0,0.0,0.0,0.0,0.0,0.0,0.0,0.0,0.0,0.0,0.0,0.0,0.0,0.0,0.0,0.0,0.0,0.0,0.0,0.0,0.0,0.0,0.0,0.0,0.0,0.0,0.0,0.0,0.0,0.0,0.0,-1.7262,-1.8756,-1.9274,-2.0214,-2.1681,-2.2283,-2.2253,-2.1494,-2.1286,-2.0833,0.0,0.0,0.0,0.0,0.0,0.0,0.0,0.0,0.0,0.0,0.0,0.0,0.0,0.0,0.0,0.0,0.0,0.0,0.0,0.0,0.0,0.0,0.0,0.0,0.0,0.0,0.0,0.0,-1.6708,-1.6534,-1.6534,0.0,0.0,0.0,0.0,0.0,0.0,0.0,0.0,0.0,0.0,-2.581,-2.7156,-2.8592,-2.9175,-2.8038,-2.8682,-2.8891,-2.7739,-2.7006,-2.6078,-2.4567,0.0,0.0,0.0,0.0,0.0,0.0,0.0,0.0,0.0,0.0,0.0,0.0,0.0,0.0,0.0,0.0,0.0,0.0,0.0,0.0,0.0,0.0,0.0,0.0,0.0,0.0,0.0,0.0,0.0,0.0,-1.2323,0.0,0.0,0.0,0.0,0.0,0.0,0.0,0.0,0.0,0.0,0.0,0.0,0.0,0.0,0.0,0.0,0.0,0.0,0.0,0.0,0.0,0.0,0.0,-1.8191,-1.8276,-1.8874,-2.0038,-2.0072,-1.9849,-1.9294,-1.9686,-1.9637,-1.8988,0.0,0.0,0.0,0.0,0.0,0.0,0.0,0.0,0.0,0.0,0.0,0.0,0.0,0.0,0.0,0.0,0.0,0.0,0.0,0.0,0.0,0.0,0.0,0.0,0.0,0.0,-1.6547,-1.6534,-1.6534,0.0,0.0,0.0,0.0,0.0,0.0,0.0,0.0,0.0,0.0,-2.4956,-2.6572,-2.6632,-2.8293,-2.9235,-2.8562,-2.8547,-2.8338,-2.759,-2.6976,-2.5914,0.0,0.0,0.0,0.0,0.0,0.0,0.0,0.0,0.0,0.0,0.0,0.0,0.0,0.0,0.0,0.0,0.0,0.0,0.0,0.0,0.0,0.0,0.0,0.0,0.0,0.0,0.0,-1.1036,-1.1281,0.0,0.0,0.0,0.0,0.0,0.0,0.0,0.0,0.0,0.0,0.0,-1.415,-1.3467,0.0,0.0,0.0,0.0,0.0,0.0,0.0,0.0,0.0,0.0,0.0,0.0,-1.6886,-1.7639,-1.8028,-1.8584,-1.939,-1.9787,-1.9723,-1.9128,-1.9265,-1.9225,-1.8921,0.0,0.0,0.0,0.0,0.0,0.0,0.0,0.0,0.0,0.0,0.0,0.0,0.0,0.0,0.0,0.0,0.0,0.0,0.0,0.0,0.0,0.0,0.0,0.0,0.0,-1.6534,0.0,0.0,0.0,0.0,0.0,0.0,0.0,0.0,0.0,0.0,0.0,-2.3658,-2.509,-2.5731,-2.6214,-2.6538,-2.7156,-2.7215,0.0,0.0,0.0,0.0,0.0,0.0,0.0,0.0,0.0,0.0,0.0,0.0,0.0,0.0,-2.9685,-2.845,-2.7588,-2.6996,-2.6759,0.0,0.0,0.0,0.0,0.0,0.0,0.0,0.0,0.0,0.0,0.0,0.0,0.0,0.0,0.0,0.0,-1.1082,0.0,0.0,0.0,0.0,0.0,0.0,0.0,0.0,-1.3902,-1.432,-1.4525,-1.4042,-1.4148,0.0,-1.4365,-1.3799,0.0,0.0,0.0,0.0,0.0,0.0,0.0,0.0,-1.6798,-1.7375,-1.7739,-1.8122,-1.8507,-1.8917,-1.8837,-1.8244,-1.8357,-1.8425,-1.8341,-1.7973,-1.772,0.0,0.0,0.0,0.0,0.0,0.0,0.0,0.0,0.0,0.0,0.0,0.0,0.0,0.0,0.0,0.0,0.0,0.0,0.0,0.0,0.0,0.0,0.0,-1.6534,0.0,0.0,0.0,0.0,0.0,0.0,0.0,0.0,0.0,-2.4388,-2.4177,-2.4545,-2.6344,-2.6263,-2.614,-2.6225,0.0,0.0,0.0,0.0,0.0,0.0,0.0,-2.5345,-2.4448,-2.4866,-2.5364,-2.5496,-2.7284,-2.907,-3.0128,0.0,0.0,-2.96,-2.8569,-2.7875,-2.7875,-2.7672,-2.793,-2.9365,-2.9622,-3.0024,0.0,0.0,0.0,0.0,0.0,0.0,0.0,0.0,-1.1082,-1.139,0.0,-1.1276,0.0,0.0,0.0,0.0,0.0,-1.3177,0.0,0.0,-1.4303,-1.4698,-1.4061,-1.3938,-1.4213,-1.4853,-1.5186,-1.4727,-1.3574,-1.3125,0.0,0.0,0.0,0.0,0.0,0.0,-1.6754,-1.7325,-1.7375,-1.742,-1.7395,-1.7433,-1.7156,-1.6559,-1.7047,-1.7271,-1.7312,-1.7312,-1.7034,-1.6565,-1.6522,0.0,0.0,0.0,0.0,0.0,0.0,0.0,0.0,0.0,0.0,0.0,0.0,0.0,0.0,0.0,0.0,0.0,0.0,0.0,0.0,-1.6534,0.0,0.0,0.0,0.0,0.0,0.0,0.0,0.0,0.0,0.0,-2.4448,-2.5194,-2.5884,-2.6542,0.0,0.0,0.0,0.0,-2.6303,-2.5674,-2.6677,-2.752,-2.749,-2.7475,-2.6976,-2.5734,0.0,0.0,-2.7179,-2.8414,-2.9453,-3.0051,-3.0717,-3.141,-3.207,-3.0937,-3.004,-3.0057,-2.9485,-2.9242,-2.9643,-3.0,-3.0191,-0.6892,0.0,0.0,0.0,0.0,-0.9818,-1.0896,-1.2258,-1.2485,-1.2305,-1.1928,-1.1697,0.0,0.0,0.0,0.0,0.0,0.0,-1.3055,-1.3116,-1.4185,-1.4772,-1.4926,-1.4872,-1.5176,-1.5684,-1.5195,-1.4775,-1.4394,-1.3682,-1.3412,-1.3552,0.0,0.0,0.0,0.0,-1.5949,-1.6163,-1.6983,-1.7187,-1.6773,-1.7162,-1.7099,-1.6534,-1.665,-1.6909,-1.7271,-1.6909,-1.6837,-1.7076,-1.6723,0.0,0.0,0.0,0.0,0.0,0.0,0.0,0.0,0.0,0.0,0.0,0.0,0.0,0.0,0.0,0.0,0.0,0.0,0.0,-1.6534,-1.6534,-1.6534,0.0,0.0,0.0,0.0,0.0,0.0,0.0,0.0,0.0,-2.5717,-2.6198,-2.6557,0.0,0.0,-2.6512,-2.6333,-2.5674,-2.5285,-2.5585,0.0,0.0,0.0,-2.5779,-2.5345,-2.4925,-2.503,-2.5651,-2.7079,-2.763,-2.8556,-3.0454,-3.0615,-3.0801,-3.1918,-3.1106,-3.0362,-3.0722,-3.0526,-3.0768,-3.2141,-3.2349,-3.2511,-0.7387,-0.6976,-0.7087,-0.7772,-0.8866,-0.9859,-1.1015,-1.2214,-1.2759,-1.2792,-1.2385,-1.2144,-1.1677,-1.1115,-1.0947,0.0,0.0,0.0,-1.2656,-1.2933,-1.4197,-1.4906,-1.5002,-1.5433,-1.5794,-1.6025,-1.5186,-1.4687,-1.4521,-1.3838,-1.3472,-1.3478,0.0,0.0,-1.4376,-1.496,-1.5365,-1.5599,-1.6068,-1.6349,-1.6534,-1.6848,-1.6873,-1.6547,-1.6534,-1.6637,-1.6951,-1.668,-1.6637,-1.6951,-1.6464,-1.6132,0.0,0.0,0.0,0.0,0.0,0.0,0.0,0.0,0.0,0.0,0.0,-1.9244,0.0,0.0,0.0,0.0,-1.6534,-1.6534,-1.6534,-1.6534,0.0,0.0,0.0,0.0,0.0,0.0,0.0,-1.9913,-2.1775,-2.354,-2.4897,-2.5726,-2.6542,-2.749,-2.6767,-2.6108,-2.5839,0.0,-2.5076,-2.5211,-2.545,-2.56,-2.56,-2.527,-2.497,-2.5016,-2.5031,-2.5499,-2.6989,-2.731,-2.8013,-2.9705,-2.9956,-2.9939,-3.084,-3.0243,-3.0006,-3.097,-3.1185,-3.1533,-3.2592,-3.2746,-3.2977,-0.7957,-0.7767,-0.7933,-0.8002,-0.8304,-1.0208,-1.1103,-1.137,-1.2355,-1.2935,-1.316,-1.2592,-1.2151,-1.1784,-1.1055,0.0,-1.1655,-1.2005,-1.2299,-1.2526,-1.428,-1.4821,-1.4359,-1.5432,-1.5953,-1.5936,-1.5176,-1.458,-1.4189,-1.373,-1.3311,-1.2988,-1.3488,-1.3721,-1.3768,-1.4329,-1.4915,-1.5443,-1.5017,-1.5332,-1.6466,-1.6466,-1.6454,-1.6446,-1.6459,-1.6421,-1.6384,-1.6434,-1.6446,-1.6434,-1.6007,-1.5969,-1.6384,0.0,0.0,0.0,0.0,0.0,0.0,0.0,0.0,0.0,0.0,0.0,0.0,0.0,0.0,0.0,-1.6534,0.0,-1.6534,-1.6534,0.0,0.0,0.0,-1.7618,-1.8135,-1.9141,-1.9816,-1.9806,0.0,0.0,-2.2761,0.0,-2.5926,-2.7121,-2.6288,-2.5345,-2.4806,-2.5179,-2.533,-2.4791,-2.5241,-2.56,-2.56,-2.551,-2.533,-2.5166,-2.5405,-2.5712,-2.6609,-2.7038,-2.7534,-2.8632,-2.889,-2.9011,-2.9062,-2.9146,-2.9397,-3.0649,-3.1271,-3.1568,-3.1635,-3.1834,-3.1988,-0.8018,-0.7957,-0.7851,-0.8223,-0.8882,-0.9638,-1.067,-1.2079,-1.2547,-1.2997,-1.3186,-1.2806,-1.2231,-1.1523,-1.1309,-1.1411,-1.1826,-1.1964,-1.1963,-1.2052,-1.2685,-1.2939,-1.2825,-1.39,-1.4495,-1.4648,-1.4744,-1.4727,-1.46,-1.3877,-1.3457,-1.335,-1.3224,-1.3104,-1.3152,-1.3732,-1.4097,-1.4226,-1.5005,-1.5732,-1.6466,-1.6064,-1.5856,-1.5906,-1.5894,-1.5693,-1.5331,-1.5655,-1.5894,-1.5894,-1.617,-1.6195,-1.5906,-1.6032,0.0,0.0,0.0,0.0,0.0,0.0,0.0,0.0,0.0,-1.9235,-1.8194,0.0,-1.7666,0.0,-1.6534,-1.6534,-1.6534,-1.6534,0.0,0.0,-1.7662,-1.8045,-1.8223,-1.9172,-1.9827,-1.9954,-2.1304,-2.2346,-2.2651,-2.3531,-2.4276,-2.4567,-2.4769,-2.5166,-2.5929,-2.536,-2.5001,-2.527,-2.539,-2.56,-2.551,-2.5166,-2.4492,-2.3535,-2.3774,-2.4139,-2.4309,-2.5092,-2.6089,-2.7292,-2.7827,-2.8416,-2.9289,-2.9234,-2.8941,-2.9039,-2.9817,-3.0932,-3.1946,-3.2074,-3.187,-0.8001,-0.7929,-0.7845,-0.8012,-0.8359,-0.8993,-0.9903,-1.0922,-1.1974,-1.2409,-1.2441,-1.251,-1.2278,-1.1824,-1.1817,-1.1904,-1.2051,-1.1924,-1.187,-1.1935,-1.2172,-1.2248,-1.2258,-1.3076,-1.3625,-1.3943,-1.3951,-1.4067,-1.418,-1.3555,-1.3223,-1.3232,-1.2998,-1.2891,-1.2929,-1.3238,-1.3647,-1.419,-1.5141,-1.5487,-1.5276,-1.5066,-1.5176,-1.5611,-1.5475,-1.5339,-1.5254,-1.5768,-1.5944,-1.5731,-1.5994,-1.612,-1.607,-1.5881,-1.5881,0.0,0.0,0.0,0.0,0.0,0.0,0.0,0.0,0.0,0.0,0.0,-1.7381,0.0,-1.6534,-1.6534,-1.6534,-1.6534,-1.6748,-1.7313,-1.7664,-1.8028,-1.8518,-1.9095,-1.9484,-1.9571,-2.0407,-2.1028,-2.1145,-2.1897,-2.2437,-2.2481,-2.2951,-2.3789,-2.4926,-2.4597,-2.4223,-2.4283,-2.4059,-2.3999,-2.4238,-2.4238,-2.3834,-2.2951,-2.2966,-2.3201,-2.3264,-2.3798,-2.4657,-2.5692,-2.6152,-2.6607,-2.7504,-2.7605,-2.7452,-2.7692,-2.8263,-2.9312,-3.0446,-3.0695,-3.055,-0.795,-0.7811,-0.779,-0.7628,-0.7461,-0.8419,-0.8939,-0.9182,-1.0995,-1.1752,-1.178,-1.2138,-1.2338,-1.2305,-1.2305,-1.2285,-1.2231,-1.1984,-1.183,-1.18,-1.1973,-1.2079,-1.199,-1.264,-1.3065,-1.3345,-1.3072,-1.3075,-1.342,-1.3056,-1.2891,-1.2891,-1.2891,-1.2891,-1.2891,-1.2891,-1.343,-1.456,-1.505,-1.4858,-1.4039,-1.4015,-1.4504,-1.5401,-1.5107,-1.5012,-1.5336,-1.5842,-1.5971,-1.5608,-1.5645,-1.5923,-1.6429,-1.5618,-1.5517,0.0,-1.6057,0.0,0.0,0.0,0.0,0.0,0.0,0.0,0.0,-1.7248,-1.6993,-1.6552,-1.6534,-1.6534,-1.6534,-1.6534,-1.6748,-1.73,-1.7388,-1.7815,-1.8758,-1.8908,-1.8895,-1.8869,-1.9403,-1.9574,-1.9186,-2.0016,-2.0781,-2.0896,-2.1451,-2.2192,-2.3029,-2.3325,-2.3146,-2.2622,-2.2069,-2.2203,-2.2592,-2.3041,-2.3116,-2.2562,-2.2473,-2.2601,-2.2708,-2.298,-2.3395,-2.4179,-2.4551,-2.4746,-2.4989,-2.5375,-2.5827,-2.643,-2.6877,-2.748,-2.8456,-2.8934,-2.8788,-0.7946,-0.7801,-0.7689,-0.7536,-0.736,-0.7499,-0.8063,-0.902,-1.0326,-1.1583,-1.2863,-1.2742,-1.2525,-1.2311,-1.2305,-1.2178,-1.1957,-1.1897,-1.1617,-1.1169,-1.1418,-1.1281,-1.0973,-1.1887,-1.2304,-1.2202,-1.2632,-1.2932,-1.3023,-1.2941,-1.2891,-1.2891,-1.2891,-1.2891,-1.2891,0.0,0.0,0.0,-1.361,-1.4014,-1.5186,-1.4323,-1.4192,-1.492,-1.4416,0.0,-1.3553,-1.4093,-1.4592,-1.4947,-1.536,0.0,0.0,0.0,0.0,0.0,0.0,0.0,0.0,0.0,0.0,0.0,-1.6752,-1.6933,-1.7246,-1.6909,-1.6595,-1.6522,-1.6534,-1.6534,-1.6534,-1.6534,-1.676,-1.7313,-1.7405,-1.765,-1.8264,-1.8363,-1.8336,-1.8363,-1.8478,-1.8494,-1.8435,-1.9356,-2.0074,-2.0175,-2.1029,-2.1575,-2.151,-2.1853,-2.2009,-2.1874,-2.1695,-2.1724,-2.1859,-2.2009,-2.1949,-2.1321,-2.156,-2.1654,-2.1394,-2.2274,-2.3035,-2.3351,-2.3983,-2.4326,-2.4149,-2.4903,-2.5475,-2.5475,-2.5724,-2.6541,-2.8491,-2.8704,-2.8603,-0.7312,0.0,-0.7631,-0.7509,0.0,-0.7204,-0.7535,-0.822,-0.9087,-1.045,-1.2089,-1.2431,-1.2445,-1.2305,-1.2305,-1.2225,-1.2064,-1.1784,-1.149,-1.1202,-1.1062,-1.0848,-1.0624,-1.1135,-1.1416,-1.1457,-1.1717,-1.2096,-1.2556,-1.2443,-1.255,-1.2891,-1.2891,-1.2891,-1.2891,-1.2891,-1.3065,-1.3372,-1.3382,-1.3647,-1.4179,-1.3419,-1.3443,-1.4239,0.0,0.0,0.0,0.0,0.0,0.0,0.0,0.0,0.0,0.0,0.0,-1.6051,-1.6324,-1.6534,-1.6534,-1.6534,-1.6534,-1.6534,-1.6534,-1.6629,-1.6894,-1.6646,-1.6534,-1.6534,-1.6534,-1.6534,-1.6534,-1.6534,-1.6748,-1.73,-1.7385,-1.7613,-1.8086,-1.7964,-1.7822,-1.7743,-1.7521,-1.7375,-1.7375,-1.8162,-1.8821,-1.9086,-2.0001,-2.0659,-2.0489,-2.0825,-2.1126,-2.0782,-2.1036,-2.1216,-2.1246,-2.153,-2.147,-2.0946,-2.1006,-2.0963,-2.0582,-2.1171,-2.1774,-2.2029,-2.262,-2.3042,-2.3148,-2.3838,-2.4416,-2.4213,-2.4592,-2.5251,-2.6436,-2.6781,-2.707,-0.6566,-0.7597,-0.757,-0.7468,-0.7322,-0.7193,-0.72,-0.7361,0.0,0.0,0.0,-1.1765,-1.215,-1.2305,-1.2305,-1.2245,-1.2118,-1.165,-1.1369,-1.1249,-1.0782,-1.0618,-1.0618,-1.0618,-1.0733,-1.1001,-1.0806,-1.1154,-1.2007,-1.1855,-1.208,-1.2666,-1.2832,-1.2891,-1.2891,-1.2891,-1.2891,-1.2929,-1.3372,-1.3457,-1.3055,-1.2567,-1.2819,-1.3768,-1.3309,-1.3292,-1.3717,-1.4133,-1.4246,-1.3917,-1.4304,-1.4606,-1.4698,-1.5276,-1.5576,-1.5632,-1.6151,-1.6534,-1.6534,-1.6534,-1.6423,-1.6337,-1.6349,-1.6349,-1.6337,-1.6423,-1.6534,-1.6534,-1.6534,-1.6534,-1.6534,-1.6534,-1.671,-1.7187,-1.7255,-1.741,-1.7815,-1.7543,-1.7222,-1.72,-1.6835,-1.6534,-1.6572,-1.7206,-1.7638,-1.7961,-1.8988,-1.973,-1.9788,-2.0198,-2.0363,-1.9959,-2.0243,-2.0528,-2.0602,-2.0902,-2.1096,-2.0572,-2.0513,-2.0451,-2.0273,-2.0246,-2.0449,-2.0875,-2.1229,-2.1642,-2.2017,-2.2708,-2.3048,-2.2818,-2.3502,-2.4087,-2.3899,-2.4526,-2.5304,-0.6489,-0.7587,-0.7458,-0.7312,-0.717,-0.7149,-0.7082,-0.7063,-0.7887,-0.939,-1.1403,-1.1153,-1.1465,-1.2305,-1.2305,-1.2024,-1.155,-1.1463,-1.1156,0.0,-1.0658,-1.0618,-1.0618,-1.0618,-1.0598,-1.0635,-1.0689,-1.077,-1.0994,-1.1507,-1.1864,-1.203,-1.2559,-1.2891,-1.2891,-1.2891,-1.2891,-1.2891,-1.3017,-1.3238,-1.3637,-1.3092,-1.313,-1.3711,-1.3215,-1.2976,-1.3024,-1.3122,-1.3351,-1.3778,-1.3878,-1.4143,-1.4709,-1.5231,-1.5576,-1.5632,-1.6182,-1.6534,-1.6534,-1.6534,-1.6281,-1.5776,-1.5715,-1.5727,-1.5732,-1.6194,-1.6534,-1.6534,-1.6534,-1.6534,-1.6534,-1.6534,-1.6559,-1.6635,-1.666,-1.6697,-1.681,-1.6717,-1.6654,-1.6685,-1.6584,-1.6534,-1.6577,-1.7112,-1.7338,-1.7181,-1.8545,-1.9693,-1.9707,-1.9786,-1.9831,-1.972,-1.9765,-1.9824,-1.9929,-1.9899,-2.0019,-1.9869,-1.9884,-1.9906,-1.9848,-2.007,-2.028,-2.0366,-2.0781,-2.1071,-2.1247,-2.1778,-2.215,-2.2164,-2.2638,-2.2959,-2.2993,-2.3457,-2.4154,-0.5491,-0.664,-0.7269,-0.7455,-0.7383,-0.7302,-0.7136,-0.6919,-0.7261,-0.8508,-1.0295,-1.0117,-1.0565,-1.1471,-1.1465,-1.1253,-1.0866,-1.1214,-1.1202,-1.0802,-1.0692,-1.0618,-1.0618,-1.0618,-1.0537,-1.0356,-1.0175,-1.0485,-1.1036,-1.1172,-1.1625,-1.2344,-1.2725,-1.2891,-1.2891,-1.2891,-1.2891,-1.2891,-1.2891,-1.3017,-1.3276,-1.3017,-1.3017,-1.3286,-1.3017,-1.2891,-1.2891,-1.2891,-1.3007,-1.3334,-1.3334,-1.342,-1.3752,-1.4283,-1.4767,-1.5107,-1.5688,-1.6151,-1.6479,-1.6194,-1.5599,-1.4732,-1.522,-1.5457,-1.5152,-1.5964,-1.6479,-1.6534,-1.6534,-1.6534,-1.6534,-1.6534,-1.6534,-1.6534,-1.6534,-1.6534,-1.6534,-1.6534,-1.6534,-1.6534,-1.6534,-1.6534,-1.6534,-1.6791,-1.7128,-1.7177,-1.863,-1.9693,-1.9698,-1.9705,-1.9705,-1.9705,-1.9705,-1.9705,-1.9705,-1.9705,-1.9705,-1.9705,-1.9705,-1.9705,-1.9726,-1.9889,-1.998,-2.0,-2.033,-2.0599,-2.0616,-2.1084,-2.1324,-2.1207,-2.1682,-2.1999,-2.2017,-2.2637,-2.3735,-0.464,-0.581,-0.7039,-0.7526,-0.7489,-0.737,-0.717,-0.6926,-0.6803,-0.7698,-0.8978,-0.9005,-0.9487,-1.0404,-1.0461,-1.029,-1.0101,-1.0723,-1.0892,-1.0627,-1.0597,-1.0618,-1.0618,-1.0618,-1.0504,-1.02,-0.992,-1.0186,-1.0841,-1.0753,-1.1361,-1.2529,-1.2666,-1.2725,-1.2891,-1.2891,-1.2891,-1.2891,-1.2891,-1.2891,-1.2891,-1.2891,-1.2891,-1.2891,-1.2891,-1.2891,-1.2891,-1.2891,-1.2891,-1.2891,-1.2891,-1.2891,-1.2929,-1.3467,-1.4003,-1.4468,-1.5062,-1.5599,-1.602,-1.5555,-1.4812,-1.392,-1.4778,-1.5186,-1.4835,-1.58,-1.6534,-1.6534,-1.6534,-1.6534,-1.6534,-1.6534,-1.6534,-1.6534,-1.6534,-1.6534,-1.6534,-1.6534,-1.6534,-1.6534,-1.6534,-1.6534,-1.6534,-1.6534,-1.682,-1.7679,-1.8725,-1.9432,-1.9626,-1.9705,-1.9705,-1.9705,-1.9705,-1.9705,-1.9705,-1.9705,-1.9705,-1.9705,-1.9705,-1.9705,-1.9726,-1.9726,-1.9741,-1.9762,-1.9945,-2.0139,-2.0193,-2.0447,-2.0545,-2.0373,-2.0827,-2.1276,-2.1373,-2.2225,-2.3515,-0.4458,-0.5693,-0.6811,-0.7309,-0.7197,-0.7173,-0.7075,-0.6936,-0.6912,-0.7315,-0.8124,-0.8009,-0.8435,-0.918,-0.936,-0.9108,-0.869,-0.9582,-0.9835,-0.9608,-1.0251,-1.0618,-1.0618,-1.0618,-1.0611,-1.0524,-1.0194,-1.0012,-0.9994,-1.0254,-1.0898,-1.181,-1.1922,-1.2264,-1.2832,-1.29,-1.29,-1.2891,-1.2891,-1.2891,-1.2891,-1.2891,-1.2891,-1.2891,-1.2891,-1.2891,-1.2891,-1.2891,-1.2891,-1.2891,-1.2891,-1.2891,-1.2978,-1.3457,-1.3815,-1.3909,-1.4468,-1.4789,-1.4835,-1.4329,-1.3956,-1.3873,-1.4376,-1.4789,-1.4744,-1.5788,-1.6491,-1.6534,-1.6534,-1.6534,-1.6534,-1.6534,-1.6534,-1.6534,-1.6534,-1.6534,-1.6534,-1.6534,-1.6534,-1.6534,-1.6534,-1.6534,-1.6534,-1.6534,-1.6921,-1.776,-1.8444,-1.9032,-1.9487,-1.969,-1.9705,-1.9705,-1.9705,-1.9705,-1.9705,-1.9705,-1.9705,-1.9705,-1.9705,-1.9705,-1.9705,-1.9705,-1.9705,-1.9726,-1.9726,-1.9818,-1.9818,-1.9833,-1.9854,-1.9945,-2.0261,-2.0667,-2.1337,-2.1969,-2.3022,-0.3048,-0.366,-0.5571,-0.6621,-0.7064,-0.7139,-0.7061,-0.6926,-0.6834,-0.6915,-0.7099,-0.6939,-0.7435,-0.8346,-0.8429,-0.812,-0.7753,-0.8653,-0.9208,-0.9297,-0.9658,-1.011,-1.0561,-1.0618,-1.0544,-1.0301,-1.0174,-1.0192,-1.0372,-1.0867,-1.1283,-1.1514,-1.1659,-1.2044,-1.2596,-1.261,-1.2763,-1.3242,-1.3008,-1.2725,-1.2344,-1.2666,-1.2891,-1.2891,-1.2891,-1.2891,-1.2891,-1.2891,-1.2891,-1.2891,-1.2891,-1.2891,-1.2891,-1.3152,-1.342,-1.3768,-1.4376,-1.4514,-1.419,-1.3909,-1.3637,-1.3286,-1.3826,-1.4329,-1.4698,-1.5466,-1.6095,-1.6436,-1.6534,-1.6534,-1.6479,-1.6534,-1.6534,-1.6534,-1.6534,-1.6534,-1.6534,-1.6534,-1.6534,-1.6534,-1.6534,-1.6534,-1.6534,-1.6534,-1.6837,-1.7558,-1.8124,-1.8758,-1.9199,-1.9479,-1.969,-1.9705,-1.9705,-1.9705,-1.9705,-1.9705,-1.9705,-1.9705,-1.9705,-1.9705,-1.9705,-1.9705,-1.9705,-1.9705,-1.9705,-1.9705,-1.9726,-1.9705,-1.9741,-1.9797,-2.0035,-2.0516,-2.1118,-2.1385,-2.2194,-0.1976,-0.2323,-0.4528,-0.6145,-0.7054,-0.7099,-0.7024,-0.6915,-0.677,-0.6617,-0.6471,-0.6363,-0.6758,-0.733,-0.7403,-0.7131,-0.6901,-0.7762,-0.8408,-0.8695,-0.8909,-0.9474,-1.0193,-1.0251,-1.0262,-1.0212,-1.0247,-1.0322,-1.0552,-1.0929,-1.1161,-1.1153,-1.1328,-1.1715,-1.2209,-1.2163,-1.2431,-1.2905,-1.273,-1.2319,-1.1893,-1.2328,-1.2588,-1.2646,-1.2822,-1.2891,-1.2891,-1.2891,-1.2891,-1.2891,-1.2891,-1.2891,-1.2891,-1.2891,-1.3104,-1.3505,-1.3967,-1.4025,-1.36,-1.3552,-1.3372,-1.3017,-1.3467,-1.3956,-1.4422,-1.5017,-1.5599,-1.6151,-1.6238,-1.6293,-1.6479,-1.6534,-1.6534,-1.6534,-1.6534,-1.6534,-1.6534,-1.6534,-1.6534,-1.6534,-1.6534,-1.6534,-1.6534,-1.6534,-1.682,-1.7625,-1.803,-1.8574,-1.8974,-1.9369,-1.9493,-1.9675,-1.9705,-1.9705,-1.9705,-1.9705,-1.9705,-1.9705,-1.9705,-1.9705,-1.9705,-1.9705,-1.9705,-1.9705,-1.9705,-1.9705,-1.9705,-1.9705,-1.9705,-1.9782,-2.0,-2.0348,-2.0731,-2.0894,-2.1215,-0.1937,-0.2181,-0.4375,-0.5911,-0.7041,-0.691,-0.6936,-0.6902,-0.6756,-0.661,-0.6481,-0.6454,-0.6462,-0.6419,-0.649,-0.6167,-0.6067,-0.6952,-0.7267,-0.73,-0.8053,-0.8763,-0.9303,-0.9503,-0.9943,-1.0521,-1.0494,-1.043,-1.0208,-0.9951,-1.0121,-1.0721,-1.0773,-1.1092,-1.1655,-1.1752,-1.1719,-1.1933,-1.1884,-1.1765,-1.1701,-1.1709,-1.1811,-1.1908,-1.2529,-1.2803,-1.2881,-1.2881,-1.2881,-1.2891,-1.2891,-1.2881,-1.2881,-1.2871,-1.2881,-1.2968,-1.3027,-1.3027,-1.2968,-1.3027,-1.2978,-1.2968,-1.3372,-1.3826,-1.3909,-1.4422,-1.5005,-1.5576,-1.5632,-1.5864,-1.6293,-1.6337,-1.6423,-1.6411,-1.6466,-1.6479,-1.6466,-1.6466,-1.6479,-1.6534,-1.6534,-1.6534,-1.6534,-1.6534,-1.7057,-1.7787,-1.7801,-1.7881,-1.902,-1.9169,-1.9244,-1.9566,-1.9705,-1.9705,-1.9705,-1.9705,-1.9705,-1.9705,-1.9705,-1.9705,-1.9705,-1.9705,-1.9705,-1.9705,-1.9705,-1.9705,-1.9705,-1.9705,-1.9705,-1.9782,-1.9965,-2.0261,-2.033,-2.0731,-2.0923,-0.1154,-0.1863,-0.2716,-0.4164,-0.5768,-0.5809,-0.6096,-0.6766,-0.6624,-0.6525,-0.6464,-0.6458,-0.6308,-0.6261,-0.6261,-0.6146,-0.5966,-0.6296,-0.6638,-0.7074,-0.8098,-0.8875,-0.9478,-1.0139,-1.0438,-1.0595,-1.0618,-1.0571,-1.0414,-1.0287,-1.0255,-1.0306,-1.0565,-1.0912,-1.135,-1.1346,-1.154,-1.206,-1.188,-1.154,-1.1156,-1.1447,-1.1534,-1.1144,-1.1599,-1.1992,-1.2187,-1.2187,-1.2393,-1.2881,-1.2891,-1.2666,-1.2236,-1.2187,-1.2403,-1.2832,-1.2891,-1.2891,-1.2891,-1.2891,-1.2891,-1.2929,-1.3113,-1.3409,-1.3732,-1.4014,-1.4376,-1.488,-1.5005,-1.5152,-1.5332,-1.5688,-1.5903,-1.5936,-1.5922,-1.5959,-1.6016,-1.625,-1.6534,-1.6534,-1.6534,-1.6534,-1.6534,-1.6534,-1.6705,-1.7141,-1.7256,-1.7747,-1.8419,-1.8727,-1.9043,-1.953,-1.9705,-1.9705,-1.9705,-1.9705,-1.9705,-1.9705,-1.9705,-1.9705,-1.9705,-1.9705,-1.9705,-1.9705,-1.9705,-1.9705,-1.9705,-1.9705,-1.9705,-1.9762,-1.9945,-1.998,-1.9909,-2.0243,-2.0277,-0.0755,-0.1738,-0.1801,-0.2915,-0.4499,-0.4547,-0.4987,-0.5621,-0.5817,-0.5921,-0.5978,-0.6142,-0.6261,-0.6261,-0.6261,-0.621,-0.6101,-0.6054,-0.6236,-0.6734,-0.7358,-0.8161,-0.9069,-0.9777,-1.0308,-1.0531,-1.0618,-1.0618,-1.0618,-1.0618,-1.0448,-1.0287,-1.0474,-1.0767,-1.0984,-1.0982,-1.1272,-1.1669,-1.1533,-1.1115,-1.0784,-1.1107,-1.1105,-1.0654,-1.079,-1.1158,-1.1634,-1.165,-1.179,-1.2166,-1.2229,-1.2083,-1.1819,-1.2049,-1.2393,-1.2832,-1.2891,-1.2891,-1.2891,-1.2891,-1.2891,-1.2891,-1.2939,-1.3104,-1.3467,-1.3505,-1.3789,-1.4247,-1.4422,-1.4479,-1.4698,-1.4892,-1.5194,-1.5509,-1.578,-1.5903,-1.5911,-1.6262,-1.6479,-1.6534,-1.6534,-1.6534,-1.6534,-1.6534,-1.6607,-1.671,-1.6993,-1.7271,-1.7973,-1.838,-1.8727,-1.9132,-1.9281,-1.9244,-1.9132,-1.8983,-1.9406,-1.953,-1.9581,-1.9617,-1.9617,-1.9617,-1.9654,-1.969,-1.9705,-1.9705,-1.9705,-1.9705,-1.9705,-1.9705,-1.9762,-1.9818,-1.9762,-1.9726,-1.9854,-0.064,-0.1616,-0.1789,-0.238,-0.3449,-0.3463,-0.339,-0.3716,-0.4346,-0.4704,-0.4862,-0.5709,-0.6022,-0.618,-0.6103,-0.6251,-0.6196,-0.6067,-0.5942,-0.5971,-0.609,-0.6909,-0.817,-0.843,-0.9245,-1.0441,-1.0555,-1.0618,-1.0618,-1.0618,-1.0604,-1.0604,-1.0534,-1.0604,-1.0604,-1.0674,-1.0618,-1.0703,-1.0752,-1.0634,-1.0611,-1.0669,-1.054,-1.0208,-1.0208,-1.0552,-1.1185,-1.1235,-1.116,-1.0939,-1.0921,-1.1152,-1.1722,-1.2212,-1.2725,-1.2676,-1.2832,-1.2881,-1.2832,-1.2881,-1.2891,-1.2891,-1.2891,-1.2929,-1.3027,-1.3027,-1.32,-1.3684,-1.3815,-1.4003,-1.4376,-1.4239,-1.4369,-1.5374,-1.5772,-1.6027,-1.6275,-1.6466,-1.6534,-1.6534,-1.6534,-1.6534,-1.6534,-1.6534,-1.6637,-1.6909,-1.6837,-1.6909,-1.7747,-1.8052,-1.8092,-1.8249,-1.8574,-1.8765,-1.8458,-1.8171,-1.8803,-1.9281,-1.9332,-1.9384,-1.9332,-1.9332,-1.9442,-1.9493,-1.969,-1.969,-1.9705,-1.9705,-1.9705,-1.9705,-1.9705,-1.9705,-1.9705,-1.9705,-1.9705,-0.0183,-0.0538,-0.053,-0.1212,-0.2198,-0.2151,-0.2507,-0.3161,-0.3522,-0.3593,-0.3671,-0.3982,-0.445,-0.5079,-0.5157,-0.5499,-0.6019,-0.5949,-0.5901,-0.5998,-0.6558,-0.69,-0.7377,-0.802,-0.8843,-0.9695,-1.0301,-1.0618,-1.0555,-1.0555,-1.0618,-1.0618,-1.0555,-1.0618,-1.0491,-1.0618,-1.0618,-1.0618,-1.0618,-1.0618,-1.0618,-1.0618,-1.0571,-1.0434,-1.0421,-1.0383,-1.0251,-1.0489,-1.0666,-1.0736,-1.0806,-1.0914,-1.1049,-1.0897,-1.0981,-1.1434,-1.1931,-1.2129,-1.2187,-1.2618,-1.2881,-1.2891,-1.2891,-1.2891,-1.2891,-1.2891,-1.2968,-1.32,-1.32,-1.3296,-1.343,-1.3721,-1.3954,-1.4339,-1.4519,-1.4946,-1.5444,-1.6046,-1.6466,-1.6534,-1.6534,-1.6534,-1.6534,-1.6534,-1.6565,-1.6723,-1.6595,-1.6837,-1.7353,-1.7585,-1.7747,-1.8013,-1.821,-1.8249,-1.7933,-1.7787,-1.8092,-1.8535,-1.8703,-1.8945,-1.893,-1.908,-1.9207,-1.9406,-1.9566,-1.969,-1.969,-1.9705,-1.9705,-1.9705,-1.9705,-1.9705,-1.9705,-1.9705,-1.9705,0.0,0.0,0.0,-0.0343,-0.1006,-0.0984,-0.1362,-0.1959,-0.2423,-0.2503,-0.2581,-0.2969,-0.3435,-0.4062,-0.453,-0.5035,-0.5487,-0.5731,-0.5905,-0.5978,-0.6283,-0.6635,-0.6984,-0.7793,-0.8635,-0.9168,-0.9518,-0.9843,-1.011,-0.9779,-0.9646,-0.9646,-0.9646,-0.9582,-0.9646,-0.9646,-0.9773,-1.004,-1.011,-1.0295,-1.0491,-1.0618,-1.0618,-1.0618,-1.0618,-1.0322,-0.9784,-0.9939,-1.0068,-1.0112,-1.0261,-1.0431,-1.0368,-1.0293,-1.0364,-1.0762,-1.1166,-1.1516,-1.1814,-1.2187,-1.2666,-1.2822,-1.2891,-1.2891,-1.2891,-1.2891,-1.2891,-1.2891,-1.2929,-1.2891,-1.2978,-1.32,-1.347,-1.3445,-1.3957,-1.4348,-1.5005,-1.5651,-1.6225,-1.6392,-1.6534,-1.6534,-1.6534,-1.6534,-1.6534,-1.6534,-1.6522,-1.6552,-1.6951,-1.7201,-1.7435,-1.7626,-1.7666,-1.7585,-1.7463,-1.7422,-1.7463,-1.7706,-1.7961,-1.8224,-1.838,-1.8803,-1.9043,-1.9406,-1.9639,-1.969,-1.9705,-1.9705,-1.9705,-1.9705,-1.9705,-1.9705,-1.9705,-1.9705,-1.9705,0.0,0.0,0.0,0.0,0.0,0.0,0.0,-0.0236,-0.1097,-0.1489,-0.1723,-0.2267,-0.2812,-0.3202,-0.3828,-0.4361,-0.4727,-0.5367,-0.5672,-0.56,-0.5607,-0.5978,-0.6662,-0.7475,-0.8182,-0.8748,-0.842,-0.8549,-0.9139,-0.8613,-0.8027,-0.8221,-0.8285,-0.8091,-0.8285,-0.8086,-0.8544,-0.9134,-0.9268,-0.9594,-1.0231,-1.0295,-1.0364,-1.0428,-1.0288,-1.0047,-0.9656,-0.9504,-0.9283,-0.8991,-0.9465,-0.9755,-0.9821,-1.0324,-1.0517,-1.0517,-1.0661,-1.1015,-1.1516,-1.1674,-1.203,-1.2666,-1.2725,-1.2881,-1.2881,-1.2891,-1.2891,-1.2891,-1.2891,-1.2891,-1.2929,-1.2978,-1.2958,-1.3065,-1.3847,-1.4663,-1.532,-1.5487,-1.5864,-1.6281,-1.6436,-1.6534,-1.6534,-1.6534,-1.6534,-1.6534,-1.6534,-1.6565,-1.6637,-1.6837,-1.6909,-1.7034,-1.716,-1.7063,-1.7034,-1.6993,-1.6993,-1.7118,-1.7312,-1.7517,-1.7787,-1.821,-1.8688,-1.908,-1.953,-1.9617,-1.9654,-1.9617,-1.9654,-1.9705,-1.9705,-1.9705,-1.9705,-1.9705,-1.9705,0.08,0.0,0.0,0.0,0.0,0.0,0.0,0.0,0.0,0.0,0.0,-0.0706,-0.1332,-0.2036,-0.227,-0.2792,-0.3581,-0.4385,-0.4629,-0.4714,-0.518,-0.5449,-0.594,-0.6622,-0.7177,-0.7437,-0.7767,-0.8156,-0.8285,-0.8027,-0.7892,-0.8027,-0.7827,-0.7892,-0.8027,-0.7887,-0.8091,-0.8291,-0.8355,-0.8479,-0.8672,-0.8737,-0.9,-0.953,-0.9069,-0.8891,-0.8932,-0.8619,-0.8571,-0.8798,-0.8962,-0.9068,-0.9095,-0.933,-0.9465,-0.951,-0.9806,-1.0108,-1.0415,-1.0813,-1.1366,-1.1981,-1.2187,-1.2353,-1.2881,-1.2891,-1.2891,-1.2891,-1.2891,-1.2891,-1.2891,-1.2891,-1.2891,-1.2988,-1.3618,-1.4142,-1.4444,-1.5039,-1.5676,-1.5864,-1.6238,-1.6479,-1.6534,-1.6534,-1.6534,-1.6534,-1.6534,-1.6534,-1.6565,-1.6552,-1.668,-1.6637,-1.668,-1.6637,-1.6595,-1.6565,-1.6565,-1.6637,-1.671,-1.6795,-1.7105,-1.7422,-1.7854,-1.8288,-1.9006,-1.9244,-1.9369,-1.9369,-1.9493,-1.9705,-1.9705,-1.9705,-1.9705,-1.9705,-1.9705,0.1856,0.0781,0.0763,0.0498,0.0,0.0,0.0,0.0,0.0,0.0,0.0,0.0,0.0,-0.0941,-0.1411,-0.1868,-0.2525,-0.336,-0.3713,-0.3761,-0.4491,-0.5023,-0.5446,-0.6013,-0.633,-0.6654,-0.6859,-0.7111,-0.7312,-0.7116,-0.688,-0.6763,-0.6885,-0.6885,-0.6668,-0.6889,-0.7116,-0.7372,-0.7437,-0.7567,-0.7962,-0.8027,-0.8221,-0.8613,-0.821,-0.8138,-0.8089,-0.763,-0.7755,-0.8566,-0.8804,-0.8804,-0.8804,-0.8804,-0.8804,-0.8804,-0.9159,-0.9517,-0.9814,-1.0167,-1.0661,-1.1266,-1.1616,-1.199,-1.2372,-1.2686,-1.2891,-1.2891,-1.2891,-1.2891,-1.2891,-1.2891,-1.2891,-1.2939,-1.3213,-1.3542,-1.3742,-1.4641,-1.5264,-1.5632,-1.6107,-1.6479,-1.6479,-1.6491,-1.6534,-1.6534,-1.6534,-1.6534,-1.6522,-1.6534,-1.6534,-1.6534,-1.6534,-1.6522,-1.6522,-1.6522,-1.6534,-1.6522,-1.6522,-1.6522,-1.671,-1.7034,-1.7544,-1.8092,-1.8574,-1.893,-1.908,-1.9332,-1.9566,-1.9705,-1.9705,-1.9705,-1.9705,-1.9705,-1.9705,0.3078,0.1983,0.1939,0.1238,0.0323,0.0,0.0,0.0,0.0,0.0,0.0,0.0,0.0,0.0,-0.0941,-0.1406,-0.1471,-0.2409,-0.2876,-0.3167,-0.3734,-0.4362,-0.5081,-0.5518,-0.5963,-0.6332,-0.5715,-0.5962,-0.628,-0.5818,-0.5422,-0.5506,-0.5512,-0.5418,-0.5567,-0.5498,-0.5873,-0.6461,-0.6588,-0.6854,-0.7316,-0.7442,-0.7572,-0.7827,-0.7827,-0.7482,-0.717,-0.6857,-0.7165,-0.8487,-0.8646,-0.8586,-0.8639,-0.8685,-0.8804,-0.8804,-0.8857,-0.9106,-0.9562,-0.9658,-1.0012,-1.0618,-1.1216,-1.1674,-1.1751,-1.2157,-1.2471,-1.2637,-1.2774,-1.2774,-1.2891,-1.2891,-1.2891,-1.2891,-1.2949,-1.32,-1.3637,-1.4236,-1.4835,-1.5365,-1.5964,-1.6337,-1.6423,-1.6479,-1.6534,-1.6534,-1.6534,-1.6534,-1.6534,-1.6534,-1.6534,-1.6534,-1.6534,-1.6534,-1.6534,-1.6534,-1.6534,-1.6522,-1.6522,-1.6565,-1.6752,-1.7105,-1.7626,-1.8013,-1.8066,-1.8458,-1.9043,-1.9295,-1.953,-1.9705,-1.9705,-1.9705,-1.9705,-1.9705,-1.9705,0.4126,0.3033,0.2883,0.2256,0.1344,0.1258,0.0785,0.0,0.0,0.0,0.0,0.0,0.0,0.0,0.0,-0.0308,0.0,-0.1327,-0.2022,-0.2757,-0.287,-0.354,-0.4397,-0.5212,-0.5766,-0.5823,-0.5668,-0.5606,-0.5656,-0.5554,-0.5411,-0.5318,-0.5318,-0.5408,-0.5308,-0.538,-0.5425,-0.5686,-0.5683,-0.5815,-0.6009,-0.6133,-0.6384,-0.6902,-0.6959,-0.6709,-0.6367,-0.6155,-0.643,-0.7028,-0.7563,-0.7865,-0.8059,-0.8514,-0.8752,-0.8804,-0.8804,-0.8857,-0.9008,-0.9106,-0.9316,-0.9917,-1.0269,-1.045,-1.0998,-1.1208,-1.1601,-1.1877,-1.2058,-1.2393,-1.2832,-1.2891,-1.2891,-1.2891,-1.2929,-1.292,-1.3142,-1.3647,-1.4086,-1.4411,-1.5129,-1.582,-1.582,-1.6194,-1.6337,-1.6436,-1.6479,-1.6491,-1.6479,-1.6479,-1.6479,-1.6436,-1.6337,-1.6337,-1.6534,-1.6534,-1.6534,-1.6534,-1.6534,-1.6534,-1.6723,-1.6837,-1.7229,-1.7312,-1.7325,-1.7867,-1.865,-1.9006,-1.9207,-1.9457,-1.969,-1.9705,-1.9705,-1.9705,-1.9705,0.5341,0.4182,0.4047,0.3387,0.2431,0.2268,0.1722,0.0863,0.0785,0.0471,0.0,0.0,0.0,0.0,0.0,0.0,0.0,-0.0439,-0.1219,-0.2119,-0.2581,-0.3405,-0.4344,-0.5185,-0.5701,-0.5532,-0.5559,-0.5498,-0.5466,-0.5352,-0.5318,-0.527,-0.5321,-0.5325,-0.5213,-0.5291,-0.5377,-0.5343,-0.5328,-0.5428,-0.5425,-0.5287,-0.538,-0.58,-0.5882,-0.574,-0.5533,-0.5342,-0.5423,-0.578,-0.633,-0.7058,-0.7694,-0.8362,-0.8752,-0.8804,-0.8804,-0.8804,-0.8804,-0.8804,-0.8962,-0.9309,-0.9614,-0.9932,-1.0466,-1.0838,-1.1384,-1.1778,-1.2126,-1.2501,-1.2832,-1.2891,-1.2891,-1.2891,-1.2891,-1.2891,-1.2968,-1.342,-1.3768,-1.3956,-1.4641,-1.5219,-1.5588,-1.5732,-1.6107,-1.625,-1.6064,-1.6064,-1.6337,-1.6337,-1.6337,-1.6293,-1.6095,-1.6139,-1.6436,-1.6534,-1.6534,-1.6534,-1.6534,-1.6534,-1.6607,-1.6637,-1.6667,-1.6837,-1.7118,-1.7517,-1.8171,-1.8535,-1.8893,-1.9169,-1.9369,-1.9581,-1.9705,-1.9705,-1.9705,0.6392,0.5322,0.5306,0.4532,0.3448,0.3357,0.2735,0.188,0.1802,0.1254,0.0,0.0229,0.0,0.0,0.0,0.0,0.0,0.0,-0.0642,-0.1279,-0.1871,-0.2702,-0.3679,-0.4362,-0.4804,-0.5001,-0.5173,-0.5151,-0.4922,-0.5087,-0.491,-0.4955,-0.5294,-0.527,-0.5125,-0.5209,-0.5315,-0.524,-0.5311,-0.5428,-0.5418,-0.5257,-0.527,-0.525,-0.5251,-0.514,-0.5029,-0.4855,-0.4663,-0.4694,-0.5214,-0.6119,-0.7133,-0.8002,-0.8474,-0.8374,-0.8262,-0.8321,-0.848,-0.8533,-0.8639,-0.8745,-0.9256,-0.9606,-0.9896,-1.0411,-1.0939,-1.1543,-1.19,-1.2559,-1.2725,-1.2832,-1.2881,-1.2891,-1.2891,-1.2891,-1.2978,-1.3382,-1.3552,-1.3684,-1.4097,-1.4641,-1.4903,-1.5096,-1.5599,-1.5976,-1.5732,-1.5688,-1.6008,-1.6194,-1.6238,-1.6337,-1.6238,-1.6194,-1.6436,-1.6479,-1.6479,-1.6534,-1.6534,-1.6534,-1.6534,-1.6522,-1.6595,-1.6837,-1.7146,-1.7463,-1.7706,-1.8066,-1.8419,-1.8779,-1.9132,-1.9384,-1.9545,-1.969,-1.9705,0.6585,0.6254,0.6143,0.543,0.4535,0.4453,0.3828,0.2968,0.2888,0.2268,0.1406,0.1299,0.0831,0.0,0.0,0.0,0.0,0.0,0.0,0.0,-0.0724,-0.1385,-0.2191,-0.2815,-0.2951,-0.3281,-0.3842,-0.3905,-0.3634,-0.3808,-0.4196,-0.4323,-0.4872,-0.5163,-0.5075,-0.5342,-0.514,-0.4947,-0.5061,-0.5087,-0.5077,-0.5058,-0.5019,-0.5016,-0.5029,-0.4988,-0.489,-0.48,-0.4748,-0.4594,-0.5132,-0.555,-0.5996,-0.6652,-0.6966,-0.7128,-0.7182,-0.7402,-0.7777,-0.7937,-0.8209,-0.8639,-0.8956,-0.9008,-0.9081,-0.9278,-1.0012,-1.0594,-1.1366,-1.203,-1.203,-1.2559,-1.2881,-1.2891,-1.2891,-1.2891,-1.2929,-1.3017,-1.3152,-1.3248,-1.3647,-1.4097,-1.4422,-1.4687,-1.5005,-1.5377,-1.5365,-1.5511,-1.5876,-1.6064,-1.6194,-1.6337,-1.6423,-1.6436,-1.6534,-1.6479,-1.6436,-1.6491,-1.6534,-1.6534,-1.6534,-1.6534,-1.6607,-1.6752,-1.6837,-1.6951,-1.7229,-1.7598,-1.7987,-1.8419,-1.8817,-1.9184,-1.9369,-1.9566,-1.9705,0.661,0.6468,0.6396,0.6084,0.5556,0.555,0.4921,0.3975,0.3855,0.3319,0.2534,0.2161,0.1697,0.0963,0.0713,0.0486,0.0,0.0,0.0,0.0,-0.0428,-0.0863,-0.1441,-0.1843,-0.2019,-0.2261,-0.2532,-0.2786,-0.2748,-0.3078,-0.3345,-0.3411,-0.3813,-0.399,-0.3893,-0.385,-0.398,-0.3967,-0.3985,-0.4015,-0.4082,-0.4015,-0.3997,-0.4014,-0.4387,-0.442,-0.4338,-0.4703,-0.4738,-0.4656,-0.4834,-0.5005,-0.5187,-0.5385,-0.5823,-0.6372,-0.6534,-0.6696,-0.7182,-0.745,-0.7883,-0.815,-0.8533,-0.8752,-0.891,-0.9211,-0.9503,-1.0289,-1.104,-1.1814,-1.1873,-1.2442,-1.2832,-1.2891,-1.2891,-1.2891,-1.2891,-1.2891,-1.2891,-1.2891,-1.321,-1.3658,-1.4247,-1.4468,-1.4595,-1.4732,-1.4915,-1.5231,-1.5656,-1.5656,-1.57,-1.592,-1.6008,-1.6107,-1.6151,-1.6194,-1.638,-1.6479,-1.6534,-1.6534,-1.6534,-1.6534,-1.6534,-1.6565,-1.6595,-1.6637,-1.6837,-1.7201,-1.7626,-1.8052,-1.8535,-1.8945,-1.9207,-1.9406,-1.9617,0.6566,0.643,0.643,0.6445,0.6268,0.6224,0.5742,0.5018,0.4833,0.4225,0.3351,0.3112,0.2577,0.1956,0.1607,0.1209,0.054,0.0,0.0,0.0,-0.0488,-0.1055,-0.1415,-0.1732,-0.1762,-0.1234,-0.1224,-0.1408,-0.1877,-0.2277,-0.2409,-0.2544,-0.2542,-0.2654,-0.2756,-0.2988,-0.2632,-0.2632,-0.2642,-0.2676,-0.2678,-0.2676,-0.2654,-0.2594,-0.3217,-0.3547,-0.3505,-0.3825,-0.4158,-0.4257,-0.4307,-0.4399,-0.4596,-0.4584,-0.5066,-0.5932,-0.615,-0.6258,-0.6529,-0.6799,-0.723,-0.7777,-0.8262,-0.8533,-0.8857,-0.9211,-0.9718,-1.0415,-1.0914,-1.1266,-1.1266,-1.2147,-1.2559,-1.2666,-1.2774,-1.2891,-1.2891,-1.2891,-1.2891,-1.2891,-1.2891,-1.321,-1.3752,-1.3836,-1.3873,-1.4272,-1.4457,-1.4641,-1.4971,-1.4789,-1.488,-1.5242,-1.5466,-1.5543,-1.5632,-1.5776,-1.6095,-1.6479,-1.6479,-1.6534,-1.6534,-1.6534,-1.6534,-1.6534,-1.6534,-1.6607,-1.668,-1.6795,-1.7188,-1.7666,-1.8263,-1.8688,-1.8925,-1.9339,-1.9654,0.6417,0.6366,0.6362,0.6352,0.6314,0.6115,0.5979,0.5809,0.5599,0.5032,0.4118,0.3973,0.3498,0.2724,0.2528,0.2414,0.2082,0.1484,0.1166,0.1044,0.0412,0.0,-0.014,-0.0274,-0.027,0.0,-0.0067,-0.0202,-0.0538,-0.1072,-0.1474,-0.1609,-0.2076,-0.2603,-0.2259,-0.2268,-0.2671,-0.2598,-0.2606,-0.2544,-0.2542,-0.2474,-0.2528,-0.2573,-0.2718,-0.2772,-0.2633,-0.2911,-0.3134,-0.3439,-0.3527,-0.3855,-0.4373,-0.4536,-0.4519,-0.468,-0.4791,-0.5007,-0.5542,-0.5923,-0.647,-0.723,-0.7717,-0.8162,-0.8533,-0.8857,-0.9113,-0.9001,-0.971,-1.0261,-1.061,-1.1316,-1.1765,-1.2286,-1.2618,-1.2832,-1.2891,-1.2891,-1.2891,-1.2891,-1.2891,-1.2891,-1.3162,-1.3152,-1.3142,-1.36,-1.3956,-1.419,-1.4329,-1.419,-1.4071,-1.4433,-1.4778,-1.4915,-1.4949,-1.5129,-1.5543,-1.6151,-1.6337,-1.6349,-1.6337,-1.6337,-1.6534,-1.6534,-1.6534,-1.6534,-1.6565,-1.6723,-1.6879,-1.7271,-1.7907,-1.8285,-1.8612,-1.9096,-1.969,0.7901,0.7927,0.7291,0.6949,0.6851,0.6184,0.5901,0.5871,0.5749,0.5512,0.5098,0.4927,0.4363,0.3535,0.2956,0.2679,0.2611,0.2277,0.2108,0.2071,0.1637,0.1499,0.1521,0.1498,0.1544,0.1409,0.1543,0.1609,0.114,0.0202,-0.0538,-0.0605,-0.094,-0.1074,-0.1207,-0.1141,-0.1141,-0.1141,-0.1142,-0.1141,-0.1137,-0.1191,-0.118,-0.1244,-0.1654,-0.1792,-0.1866,-0.231,-0.2479,-0.2697,-0.273,-0.2843,-0.3123,-0.3234,-0.3345,-0.3846,-0.3901,-0.4233,-0.4835,-0.5269,-0.5869,-0.6362,-0.6907,-0.7402,-0.8049,-0.8593,-0.8804,-0.8804,-0.9413,-0.9865,-1.0312,-1.1208,-1.1873,-1.2344,-1.2393,-1.2618,-1.2774,-1.2891,-1.2891,-1.2891,-1.2891,-1.2891,-1.2891,-1.2929,-1.3104,-1.3457,-1.3552,-1.3467,-1.3695,-1.3779,-1.3658,-1.3525,-1.3931,-1.4236,-1.4272,-1.4365,-1.4732,-1.5287,-1.582,-1.5876,-1.6051,-1.6095,-1.6293,-1.6479,-1.6534,-1.6534,-1.6534,-1.6565,-1.668,-1.7076,-1.7504,-1.7972,-1.8436,-1.9148,-1.9654,0.9656,0.9793,0.8491,0.7903,0.7763,0.6865,0.6343,0.6079,0.6207,0.6069,0.5682,0.546,0.496,0.4417,0.3818,0.3549,0.3413,0.3145,0.3048,0.2997,0.2786,0.2576,0.2453,0.2562,0.2544,0.2678,0.241,0.2477,0.2144,0.1476,0.0806,0.0673,0.0739,0.0671,0.0605,0.0336,0.0,0.0,0.0,0.0,0.0066,-0.0065,0.0064,-0.0063,-0.0434,-0.0903,-0.0943,-0.1393,-0.1708,-0.1967,-0.1953,-0.2065,-0.2343,-0.2454,-0.2621,-0.301,-0.3065,-0.34,-0.4119,-0.4721,-0.5214,-0.571,-0.6376,-0.7317,-0.7723,-0.8374,-0.8804,-0.8804,-0.9159,-0.9718,-1.0269,-1.0813,-1.1225,-1.1625,-1.2021,-1.2246,-1.2461,-1.2501,-1.255,-1.251,-1.2618,-1.2891,-1.2891,-1.2891,-1.3065,-1.3372,-1.3286,-1.2978,-1.3113,-1.3372,-1.3334,-1.321,-1.3344,-1.3742,-1.392,-1.4003,-1.4236,-1.4468,-1.505,-1.5454,-1.5632,-1.5908,-1.6151,-1.6293,-1.6436,-1.6534,-1.6534,-1.6534,-1.6522,-1.6921,-1.7312,-1.78,-1.8338,-1.9118,-1.9603,1.1414,1.1553,0.9851,0.8971,0.8694,0.8502,0.7739,0.6945,0.7494,0.6907,0.5829,0.5439,0.5491,0.5223,0.509,0.4957,0.509,0.4284,0.403,0.3696,0.3215,0.3021,0.3029,0.309,0.2945,0.2945,0.3078,0.3011,0.2811,0.288,0.2544,0.2477,0.2144,0.241,0.2143,0.1475,0.0941,0.0,0.0,0.0,0.0708,0.0631,0.0495,0.0798,0.0361,-0.0059,-0.0059,-0.0229,-0.0564,-0.1005,-0.1118,-0.1397,-0.173,-0.1786,-0.1952,-0.223,-0.2287,-0.2676,-0.334,-0.4119,-0.478,-0.5664,-0.65,-0.7225,-0.7348,-0.8262,-0.8699,-0.8699,-0.8896,-0.9061,-0.9316,-0.9569,-1.0328,-1.0821,-1.1308,-1.1408,-1.1665,-1.1944,-1.2003,-1.2021,-1.2344,-1.2774,-1.2891,-1.2891,-1.2891,-1.3152,-1.32,-1.2891,-1.2891,-1.3113,-1.3065,-1.2978,-1.2978,-1.3248,-1.3695,-1.3826,-1.3836,-1.4061,-1.4514,-1.496,-1.532,-1.5632,-1.6008,-1.6194,-1.6337,-1.6436,-1.6534,-1.6534,-1.6565,-1.6765,-1.7201,-1.7894,-1.8535,-1.9273,-1.9596,1.1329,1.1534,1.0858,1.0195,0.9515,0.8784,0.8155,0.7697,0.7867,0.7702,0.6924,0.6465,0.6207,0.6075,0.5554,0.5428,0.5359,0.509,0.4888,0.4821,0.4486,0.435,0.435,0.4348,0.4417,0.4348,0.4348,0.435,0.442,0.4348,0.4353,0.4151,0.3471,0.2744,0.2477,0.2409,0.1941,0.1726,0.1503,0.1736,0.1719,0.1656,0.1494,0.1669,0.1622,0.1369,0.1307,0.0902,0.056,0.0223,-0.0168,-0.0559,-0.0895,-0.095,-0.1173,-0.1452,-0.1507,-0.1898,-0.2563,-0.3342,-0.4064,-0.4846,-0.5745,-0.6405,-0.6583,-0.7422,-0.8019,-0.8243,-0.848,-0.8692,-0.9406,-0.9666,-1.0072,-1.0356,-1.0501,-1.0594,-1.0839,-1.1182,-1.1481,-1.1525,-1.2206,-1.2881,-1.2891,-1.2891,-1.2891,-1.2929,-1.2939,-1.2891,-1.2891,-1.2891,-1.2891,-1.2891,-1.2891,-1.2891,-1.3334,-1.3382,-1.3382,-1.3658,-1.3978,-1.4329,-1.4767,-1.5454,-1.5776,-1.6008,-1.6238,-1.6337,-1.6436,-1.6479,-1.6565,-1.6693,-1.7366,-1.8302,-1.8921,-1.9428,-1.9611,1.1411,1.1613,1.1613,1.1147,1.0306,0.9512,0.8893,0.8511,0.8748,0.8613,0.835,0.7385,0.6997,0.6824,0.6074,0.6044,0.5975,0.5701,0.5778,0.584,0.5894,0.5913,0.6048,0.6098,0.5998,0.6113,0.6017,0.5998,0.6137,0.6145,0.6141,0.5789,0.4898,0.4292,0.3547,0.3211,0.2924,0.2606,0.257,0.2643,0.2611,0.2322,0.2369,0.2366,0.2261,0.2076,0.1961,0.162,0.1453,0.1173,0.0783,0.0392,0.0224,0.0056,-0.028,-0.056,-0.0839,-0.1117,-0.184,-0.2788,-0.3511,-0.4125,-0.5085,-0.5466,-0.5819,-0.6612,-0.7311,-0.7385,-0.783,-0.8408,-0.8967,-0.881,-0.8974,-0.9169,-0.9703,-0.9858,-1.0108,-1.0407,-1.0762,-1.0973,-1.1692,-1.2157,-1.2419,-1.2379,-1.2783,-1.2812,-1.2891,-1.2891,-1.2891,-1.2891,-1.2891,-1.2891,-1.2891,-1.2891,-1.2929,-1.3075,-1.3162,-1.3152,-1.3467,-1.3695,-1.4133,-1.4812,-1.5276,-1.541,-1.5644,-1.6107,-1.625,-1.6293,-1.6392,-1.6534,-1.738,-1.8266,-1.8912,-1.9369,-1.9604,1.1959,1.2186,1.2186,1.1732,1.1014,1.0929,1.023,0.9414,0.9977,0.9913,0.9169,0.808,0.7716,0.7609,0.674,0.6663,0.7003,0.6089,0.601,0.6971,0.6641,0.7008,0.73,0.735,0.7158,0.7678,0.7428,0.7213,0.7668,0.7338,0.749,0.7457,0.67,0.6185,0.5266,0.4411,0.3381,0.2489,0.2724,0.2976,0.3161,0.2824,0.2936,0.3088,0.2912,0.2676,0.2619,0.2397,0.223,0.2063,0.1452,0.1118,0.1062,0.056,0.0224,0.0,0.0,-0.0392,-0.1118,-0.2452,-0.3121,-0.3511,-0.4522,-0.5073,-0.5508,-0.6128,-0.6643,-0.6637,-0.6853,-0.6912,-0.7122,-0.7444,-0.7925,-0.8461,-0.8995,-0.9256,-0.951,-0.9902,-1.0254,-1.0549,-1.0736,-1.0981,-1.1411,-1.1817,-1.2376,-1.2654,-1.2852,-1.2832,-1.2676,-1.2725,-1.2618,-1.2618,-1.2608,-1.2783,-1.2783,-1.2881,-1.2929,-1.2929,-1.3017,-1.3286,-1.3552,-1.405,-1.4411,-1.4698,-1.5107,-1.5567,-1.5832,-1.6051,-1.6238,-1.6479,-1.7183,-1.8003,-1.8725,-1.9309,-1.9568,1.2242,1.2353,1.2353,1.197,1.1451,1.1134,1.0633,1.0263,1.0428,1.0434,0.9983,0.8912,0.8572,0.8375,0.7546,0.7154,0.7414,0.7154,0.7191,0.7262,0.7021,0.7197,0.7576,0.7798,0.7782,0.7835,0.7691,0.7618,0.7603,0.7773,0.7486,0.7365,0.7476,0.7035,0.6299,0.5475,0.458,0.4702,0.4488,0.4207,0.4323,0.3969,0.3846,0.4177,0.3843,0.3732,0.3619,0.3287,0.3063,0.2896,0.223,0.1842,0.1785,0.1396,0.1174,0.0895,0.0727,0.0392,-0.0335,-0.134,-0.2341,-0.3065,-0.3732,-0.4346,-0.4787,-0.5496,-0.5769,-0.5991,-0.6204,-0.6529,-0.7396,-0.7557,-0.7931,-0.8527,-0.8903,-0.8903,-0.9106,-0.9577,-0.9974,-1.0162,-1.034,-1.0718,-1.1167,-1.0845,-1.1192,-1.1781,-1.1936,-1.1868,-1.176,-1.199,-1.208,-1.208,-1.2129,-1.2452,-1.2666,-1.252,-1.2618,-1.2715,-1.2822,-1.3027,-1.3238,-1.3505,-1.3779,-1.4097,-1.456,-1.5017,-1.5287,-1.5599,-1.6064,-1.6509,-1.7073,-1.7814,-1.8592,-1.9176,-1.9647,1.2569,1.2577,1.2569,1.2339,1.1922,1.1606,1.1297,1.1024,1.0822,1.0698,1.0428,0.9672,0.9398,0.912,0.816,0.7838,0.8083,0.7349,0.7811,0.7795,0.7624,0.7936,0.8165,0.8188,0.8451,0.8421,0.8276,0.8198,0.8425,0.8158,0.8117,0.7996,0.7597,0.7659,0.7257,0.6727,0.6068,0.618,0.5871,0.57,0.5647,0.5397,0.5226,0.5281,0.5167,0.5113,0.4783,0.4395,0.395,0.3619,0.3121,0.2619,0.2563,0.2286,0.2009,0.1619,0.1397,0.1062,0.0391,0.0056,-0.1004,-0.2287,-0.2783,-0.334,-0.3956,-0.4505,-0.4889,-0.5218,-0.5655,-0.6036,-0.6583,-0.6799,-0.7283,-0.7824,-0.8103,-0.8049,-0.8487,-0.8915,-0.9214,-0.9442,-0.9672,-1.0177,-1.053,-1.0123,-0.9843,-1.0438,-1.0922,-1.0854,-1.0779,-1.1174,-1.1416,-1.1466,-1.1466,-1.1683,-1.1841,-1.1841,-1.2049,-1.2452,-1.2559,-1.2618,-1.2978,-1.3238,-1.3372,-1.3552,-1.4003,-1.4422,-1.4744,-1.5107,-1.5555,-1.6126,-1.6714,-1.7531,-1.8444,-1.9064,-1.9612,1.2905,1.2905,1.2905,1.2703,1.2431,1.2282,1.2087,1.1736,1.1338,1.0959,1.0628,1.0442,1.0279,0.9893,0.8712,0.8745,0.9304,0.8006,0.8494,0.9023,0.8826,0.9155,0.9365,0.9452,0.9586,0.9566,0.9506,0.9435,0.9697,0.9492,0.9359,0.9098,0.8694,0.8557,0.8299,0.8155,0.7549,0.7247,0.6849,0.6679,0.6515,0.6457,0.6228,0.6209,0.6209,0.5932,0.5655,0.5378,0.5054,0.456,0.3898,0.3566,0.3176,0.2674,0.2454,0.2232,0.2232,0.1675,0.1118,0.0783,0.0168,-0.1117,-0.173,-0.2454,-0.3176,-0.3622,-0.4067,-0.4401,-0.4732,-0.4732,-0.4897,-0.5382,-0.5869,-0.6362,-0.6799,-0.7085,-0.7591,-0.7955,-0.8203,-0.8374,-0.854,-0.885,-0.8962,-0.8732,-0.8633,-0.8626,-0.911,-0.9488,-0.9629,-1.0466,-1.0712,-1.0771,-1.0771,-1.0821,-1.0973,-1.1233,-1.1434,-1.1783,-1.203,-1.2138,-1.255,-1.2813,-1.2949,-1.3122,-1.3447,-1.3826,-1.4283,-1.4641,-1.5062,-1.5664,-1.6361,-1.7079,-1.7933,-1.8906,-1.9491,1.3318,1.3318,1.3318,1.311,1.2748,1.2458,1.2117,1.1702,1.1581,1.1456,1.138,1.1138,1.1028,1.1122,1.034,1.0379,1.0295,1.0181,1.0113,1.0113,0.9947,1.0356,1.0555,1.0624,1.0832,1.0823,1.0762,1.0524,1.067,1.0586,1.0128,0.9655,0.9729,0.9537,0.9432,0.9719,0.8873,0.8101,0.756,0.7391,0.7192,0.6973,0.6841,0.6804,0.6804,0.6578,0.6362,0.6312,0.5928,0.5269,0.5496,0.5336,0.4125,0.4298,0.4301,0.301,0.251,0.1898,0.1285,0.1118,0.0727,0.0056,-0.0503,-0.134,-0.2176,-0.2843,-0.3236,-0.3627,-0.4015,-0.4122,-0.4453,-0.4944,-0.5382,-0.5823,-0.6209,-0.6598,-0.7047,-0.7198,-0.7456,-0.7509,-0.7616,-0.7676,-0.7735,-0.7622,-0.7481,-0.7154,-0.7256,-0.7847,-0.8376,-0.9214,-0.9791,-0.985,-0.9953,-0.9953,-1.0517,-1.0821,-1.0922,-1.1124,-1.1316,-1.1516,-1.1674,-1.194,-1.2344,-1.2638,-1.2871,-1.3341,-1.3909,-1.4283,-1.4514,-1.5365,-1.6114,-1.6744,-1.7421,-1.8341,-1.9122,1.3252,1.3262,1.3262,1.3105,1.2978,1.309,1.2752,1.2255,1.201,1.1864,1.1718,1.157,1.15,1.1402,1.097,1.0791,1.0946,1.0713,1.0659,1.0667,1.0864,1.0808,1.105,1.1168,1.1076,1.1272,1.1247,1.0902,1.1146,1.0986,1.0474,1.0293,1.0669,1.0312,1.0052,1.0332,1.0227,0.939,0.868,0.8342,0.8043,0.7732,0.7543,0.745,0.745,0.7337,0.7122,0.7122,0.6632,0.6091,0.6495,0.6277,0.5395,0.5677,0.5736,0.4608,0.4051,0.3387,0.2779,0.2228,0.1619,0.1118,0.0838,0.0446,-0.0502,-0.1336,-0.2117,-0.2843,-0.3287,-0.3729,-0.4226,-0.4721,-0.5167,-0.5618,-0.5946,-0.6218,-0.6431,-0.6588,-0.6642,-0.6642,-0.6701,-0.6756,-0.6701,-0.6534,-0.6529,-0.646,-0.6568,-0.6956,-0.7326,-0.7747,-0.8383,-0.8712,-0.8869,-0.9026,-0.9644,-1.0159,-1.021,-1.0312,-1.0517,-1.072,-1.0872,-1.1174,-1.1633,-1.1931,-1.2227,-1.2764,-1.3341,-1.36,-1.3978,-1.4869,-1.5588,-1.6015,-1.6629,-1.7556,-1.827,1.3075,1.3133,1.3075,1.3182,1.3163,1.3965,1.3836,1.3066,1.2767,1.2246,1.1922,1.1884,1.1804,1.1696,1.1421,1.1242,1.1369,1.1301,1.1334,1.1015,1.1283,1.1344,1.1326,1.1082,1.1716,1.1326,1.1342,1.2004,1.1443,1.1548,1.1688,1.1007,1.1258,1.1057,1.0651,1.1114,1.1044,1.0645,1.0233,1.0045,0.9838,0.9411,0.8962,0.8956,0.8844,0.8679,0.8196,0.7824,0.7503,0.702,0.6815,0.6869,0.6691,0.6632,0.6578,0.6362,0.5692,0.5027,0.4258,0.3712,0.3111,0.2613,0.2339,0.2058,0.1166,0.0,-0.0945,-0.1726,-0.2169,-0.2783,-0.3279,-0.3503,-0.3892,-0.4281,-0.4608,-0.4878,-0.5148,-0.537,-0.5601,-0.5601,-0.5487,-0.5487,-0.5429,-0.5265,-0.5265,-0.5529,-0.5864,-0.6095,-0.6091,-0.6298,-0.6897,-0.7492,-0.809,-0.8349,-0.8672,-0.9145,-0.9354,-0.951,-0.9755,-0.9909,-1.0115,-1.0517,-1.0973,-1.1375,-1.1774,-1.2187,-1.2638,-1.3122,-1.3684,-1.4283,-1.4915,-1.5186,-1.5908,-1.6879,-1.7666,1.4247,1.4294,1.4247,1.4247,1.4316,1.4554,1.4496,1.4247,1.4146,1.3527,1.2748,1.2624,1.2607,1.2535,1.2419,1.2393,1.2393,1.2335,1.2412,1.2403,1.2393,1.2374,1.2482,1.2638,1.2938,1.3273,1.3453,1.3433,1.3338,1.3385,1.3195,1.2473,1.258,1.2434,1.1299,1.1808,1.2172,1.1765,1.1566,1.1243,1.0791,1.0621,1.0312,1.0261,1.0159,1.0108,0.9688,0.9444,0.8908,0.8376,0.8302,0.7972,0.7499,0.7458,0.7101,0.6735,0.6934,0.6377,0.5617,0.5023,0.4529,0.392,0.3481,0.3212,0.2493,0.1275,0.0333,-0.0333,-0.1001,-0.1613,-0.2115,-0.2282,-0.2506,-0.2892,-0.3222,-0.3492,-0.3817,-0.4161,-0.4505,-0.4391,-0.422,-0.4106,-0.3996,-0.3941,-0.4058,-0.4281,-0.4673,-0.4842,-0.4501,-0.4601,-0.542,-0.618,-0.7391,-0.783,-0.8049,-0.8209,-0.8408,-0.8778,-0.9086,-0.9242,-0.9354,-0.9651,-0.9997,-1.0864,-1.1425,-1.1683,-1.2178,-1.3102,-1.3663,-1.3888,-1.4549,-1.496,-1.5644,-1.6552,-1.7325,1.4709,1.4744,1.5017,1.4926,1.4789,1.4971,1.4971,1.4755,1.4709,1.434,1.3752,1.3705,1.3716,1.3716,1.3705,1.3658,1.3658,1.3705,1.3695,1.3705,1.361,1.3695,1.3884,1.4014,1.4039,1.4329,1.4468,1.4606,1.4801,1.4606,1.4122,1.3737,1.3946,1.3653,1.257,1.3286,1.3306,1.2745,1.2695,1.2329,1.1665,1.1275,1.0864,1.0813,1.0813,1.0864,1.0712,1.0415,1.01,0.9725,0.9695,0.9585,0.9231,0.9186,0.8724,0.8265,0.7994,0.7611,0.6753,0.6215,0.5941,0.5391,0.507,0.4918,0.4375,0.3264,0.233,0.1608,0.0945,0.0333,-0.0222,-0.0444,-0.1166,-0.1664,-0.1997,-0.2327,-0.272,-0.3118,-0.3231,-0.3171,-0.289,-0.2437,-0.227,-0.1879,-0.1935,-0.1879,-0.2435,-0.2941,-0.272,-0.2888,-0.3712,-0.4594,-0.5679,-0.6789,-0.7235,-0.7396,-0.7557,-0.7925,-0.8349,-0.8355,-0.8349,-0.8666,-0.9079,-0.9887,-1.0501,-1.0922,-1.1557,-1.2434,-1.2735,-1.2831,-1.3773,-1.4824,-1.5511,-1.6238,-1.6938,1.4971,1.5028,1.5499,1.5421,1.5062,1.5454,1.5454,1.5017,1.4971,1.4971,1.4926,1.4926,1.488,1.4698,1.4709,1.4709,1.4617,1.4387,1.4525,1.4571,1.4571,1.4387,1.4479,1.4744,1.488,1.4971,1.5107,1.5107,1.5152,1.5107,1.5107,1.488,1.4789,1.4744,1.4743,1.4638,1.4266,1.3862,1.3669,1.3548,1.2745,1.1832,1.1525,1.1266,1.1116,1.1116,1.1157,1.1015,1.1015,1.0813,1.0653,1.0503,1.0554,1.0444,1.0238,0.9776,0.9511,0.8992,0.8271,0.7635,0.732,0.7004,0.6907,0.6524,0.5968,0.5253,0.4316,0.371,0.3049,0.2114,0.1554,0.1055,0.0277,-0.0277,-0.061,-0.0942,-0.1334,-0.1783,-0.1838,-0.1779,-0.1333,-0.0831,-0.0498,-0.0111,0.0055,0.0166,0.0,-0.0332,-0.0775,-0.1273,-0.1934,-0.2652,-0.3531,-0.4631,-0.5914,-0.6583,-0.6794,-0.7074,-0.7444,-0.7343,-0.7348,-0.7658,-0.8125,-0.881,-0.9429,-0.9887,-1.0602,-1.1449,-1.1648,-1.1994,-1.3263,-1.4503,-1.5276,-1.5952,-1.6544,1.6163,1.6151,1.6293,1.6238,1.6151,1.6281,1.6238,1.6151,1.6151,1.6163,1.6151,1.6064,1.57,1.4744,1.4709,1.4801,1.4983,1.4937,1.4755,1.4709,1.5062,1.488,1.5005,1.562,1.5776,1.5964,1.6095,1.6151,1.6114,1.6126,1.5908,1.5576,1.5531,1.532,1.4846,1.4823,1.4858,1.463,1.4549,1.4365,1.4061,1.3389,1.3025,1.2832,1.2735,1.2909,1.2851,1.2101,1.1765,1.1466,1.1308,1.1213,1.1335,1.1617,1.1431,1.119,1.0923,1.0671,1.0054,0.9356,0.9044,0.8888,0.8626,0.7953,0.7458,0.7074,0.6411,0.6143,0.5163,0.3487,0.2771,0.2449,0.1836,0.1556,0.1222,0.0942,0.0554,0.0166,-0.0111,0.0221,0.0609,0.0885,0.0995,0.1326,0.1436,0.138,0.0992,0.0717,0.0884,0.0387,-0.011,-0.0774,-0.1492,-0.2929,-0.4423,-0.5642,-0.6081,-0.6312,-0.6367,-0.6195,-0.6249,-0.6691,-0.7219,-0.7853,-0.8376,-0.8888,-0.9658,-1.0222,-1.1232,-1.1778,-1.3024,-1.4133,-1.4858,-1.5531,-1.6058]}]]